<?xml version="1.0" encoding="UTF-8" standalone="no" ?>
<gpx xmlns="http://www.topografix.com/GPX/1/1" xmlns:xsi="http://www.w3.org/2001/XMLSchema-instance" xsi:schemaLocation="http://www.topografix.com/GPX/1/1 http://www.topografix.com/GPX/1/1/gpx.xsd" version="1.1" creator="VisuGPX - https://www.visugpx.com">
  <metadata>
    <name>Vallée de la Bièvre</name>
    <desc><![CDATA[rando dans la vallée de la Bièvre]]></desc>
  </metadata>
  <trk>
    <name><![CDATA[Vallée de la Bièvre]]></name>
    <trkseg>
      <trkpt lat="48.77992" lon="2.09567">
        <ele>126.40000152588</ele>
        <time>2021-03-28T07:03:30Z</time>
      </trkpt>
      <trkpt lat="48.7798" lon="2.09566">
        <ele>126.59999847412</ele>
        <time>2021-03-28T07:03:41Z</time>
      </trkpt>
      <trkpt lat="48.77973" lon="2.09566">
        <ele>126.59999847412</ele>
        <time>2021-03-28T07:03:47Z</time>
      </trkpt>
      <trkpt lat="48.77964" lon="2.09564">
        <ele>127</ele>
        <time>2021-03-28T07:03:54Z</time>
      </trkpt>
      <trkpt lat="48.77949" lon="2.09562">
        <ele>126.80000305176</ele>
        <time>2021-03-28T07:04:06Z</time>
      </trkpt>
      <trkpt lat="48.77934" lon="2.0956">
        <ele>127</ele>
        <time>2021-03-28T07:04:21Z</time>
      </trkpt>
      <trkpt lat="48.77918" lon="2.09551">
        <ele>127</ele>
        <time>2021-03-28T07:04:33Z</time>
      </trkpt>
      <trkpt lat="48.77905" lon="2.09546">
        <ele>127</ele>
        <time>2021-03-28T07:04:45Z</time>
      </trkpt>
      <trkpt lat="48.7789" lon="2.09544">
        <ele>126.59999847412</ele>
        <time>2021-03-28T07:05:00Z</time>
      </trkpt>
      <trkpt lat="48.77871" lon="2.09542">
        <ele>127</ele>
        <time>2021-03-28T07:05:14Z</time>
      </trkpt>
      <trkpt lat="48.77856" lon="2.09543">
        <ele>127.59999847412</ele>
        <time>2021-03-28T07:05:26Z</time>
      </trkpt>
      <trkpt lat="48.77843" lon="2.09543">
        <ele>128</ele>
        <time>2021-03-28T07:05:38Z</time>
      </trkpt>
      <trkpt lat="48.77839" lon="2.09542">
        <ele>128</ele>
        <time>2021-03-28T07:05:42Z</time>
      </trkpt>
      <trkpt lat="48.77837" lon="2.09542">
        <ele>128</ele>
        <time>2021-03-28T07:05:43Z</time>
      </trkpt>
      <trkpt lat="48.77825" lon="2.09541">
        <ele>127.80000305176</ele>
        <time>2021-03-28T07:05:53Z</time>
      </trkpt>
      <trkpt lat="48.7781" lon="2.09545">
        <ele>127</ele>
        <time>2021-03-28T07:06:06Z</time>
      </trkpt>
      <trkpt lat="48.77803" lon="2.09557">
        <ele>126.80000305176</ele>
        <time>2021-03-28T07:06:16Z</time>
      </trkpt>
      <trkpt lat="48.77794" lon="2.09568">
        <ele>126.19999694824</ele>
        <time>2021-03-28T07:06:28Z</time>
      </trkpt>
      <trkpt lat="48.7779" lon="2.09578">
        <ele>126</ele>
        <time>2021-03-28T07:06:37Z</time>
      </trkpt>
      <trkpt lat="48.77791" lon="2.09587">
        <ele>126.19999694824</ele>
        <time>2021-03-28T07:06:39Z</time>
      </trkpt>
      <trkpt lat="48.77789" lon="2.09594">
        <ele>126</ele>
        <time>2021-03-28T07:06:40Z</time>
      </trkpt>
      <trkpt lat="48.77781" lon="2.09622">
        <ele>126</ele>
        <time>2021-03-28T07:06:48Z</time>
      </trkpt>
      <trkpt lat="48.77779" lon="2.09637">
        <ele>126</ele>
        <time>2021-03-28T07:06:56Z</time>
      </trkpt>
      <trkpt lat="48.77778" lon="2.09648">
        <ele>125.59999847412</ele>
        <time>2021-03-28T07:07:03Z</time>
      </trkpt>
      <trkpt lat="48.77776" lon="2.09663">
        <ele>125.40000152588</ele>
        <time>2021-03-28T07:07:12Z</time>
      </trkpt>
      <trkpt lat="48.77774" lon="2.09667">
        <ele>125.40000152588</ele>
        <time>2021-03-28T07:07:14Z</time>
      </trkpt>
      <trkpt lat="48.77772" lon="2.09673">
        <ele>125.19999694824</ele>
        <time>2021-03-28T07:07:18Z</time>
      </trkpt>
      <trkpt lat="48.77771" lon="2.09674">
        <ele>125</ele>
        <time>2021-03-28T07:07:19Z</time>
      </trkpt>
      <trkpt lat="48.77762" lon="2.09681">
        <ele>124.40000152588</ele>
        <time>2021-03-28T07:07:27Z</time>
      </trkpt>
      <trkpt lat="48.77761" lon="2.09682">
        <ele>124.40000152588</ele>
        <time>2021-03-28T07:07:28Z</time>
      </trkpt>
      <trkpt lat="48.77755" lon="2.09689">
        <ele>124</ele>
        <time>2021-03-28T07:07:35Z</time>
      </trkpt>
      <trkpt lat="48.77744" lon="2.09692">
        <ele>123.59999847412</ele>
        <time>2021-03-28T07:07:42Z</time>
      </trkpt>
      <trkpt lat="48.77736" lon="2.09696">
        <ele>123.59999847412</ele>
        <time>2021-03-28T07:07:49Z</time>
      </trkpt>
      <trkpt lat="48.77731" lon="2.097">
        <ele>124</ele>
        <time>2021-03-28T07:07:55Z</time>
      </trkpt>
      <trkpt lat="48.77729" lon="2.09702">
        <ele>124.19999694824</ele>
        <time>2021-03-28T07:07:58Z</time>
      </trkpt>
      <trkpt lat="48.77728" lon="2.09706">
        <ele>124.40000152588</ele>
        <time>2021-03-28T07:08:02Z</time>
      </trkpt>
      <trkpt lat="48.77723" lon="2.0971">
        <ele>124.59999847412</ele>
        <time>2021-03-28T07:08:06Z</time>
      </trkpt>
      <trkpt lat="48.77719" lon="2.09713">
        <ele>124.80000305176</ele>
        <time>2021-03-28T07:08:10Z</time>
      </trkpt>
      <trkpt lat="48.77708" lon="2.09721">
        <ele>125</ele>
        <time>2021-03-28T07:08:21Z</time>
      </trkpt>
      <trkpt lat="48.77696" lon="2.09722">
        <ele>125.19999694824</ele>
        <time>2021-03-28T07:08:33Z</time>
      </trkpt>
      <trkpt lat="48.77681" lon="2.09726">
        <ele>125.19999694824</ele>
        <time>2021-03-28T07:08:44Z</time>
      </trkpt>
      <trkpt lat="48.77667" lon="2.09726">
        <ele>125.80000305176</ele>
        <time>2021-03-28T07:08:55Z</time>
      </trkpt>
      <trkpt lat="48.77666" lon="2.09726">
        <ele>125.80000305176</ele>
        <time>2021-03-28T07:08:56Z</time>
      </trkpt>
      <trkpt lat="48.77661" lon="2.09725">
        <ele>126.80000305176</ele>
        <time>2021-03-28T07:09:02Z</time>
      </trkpt>
      <trkpt lat="48.77656" lon="2.09722">
        <ele>127.80000305176</ele>
        <time>2021-03-28T07:09:07Z</time>
      </trkpt>
      <trkpt lat="48.77654" lon="2.09721">
        <ele>128.39999389648</ele>
        <time>2021-03-28T07:09:09Z</time>
      </trkpt>
      <trkpt lat="48.7765" lon="2.0972">
        <ele>129</ele>
        <time>2021-03-28T07:09:12Z</time>
      </trkpt>
      <trkpt lat="48.77647" lon="2.0972">
        <ele>130.19999694824</ele>
        <time>2021-03-28T07:09:18Z</time>
      </trkpt>
      <trkpt lat="48.77646" lon="2.09721">
        <ele>130.80000305176</ele>
        <time>2021-03-28T07:09:20Z</time>
      </trkpt>
      <trkpt lat="48.77643" lon="2.09721">
        <ele>131.19999694824</ele>
        <time>2021-03-28T07:09:23Z</time>
      </trkpt>
      <trkpt lat="48.77633" lon="2.09727">
        <ele>131.39999389648</ele>
        <time>2021-03-28T07:09:33Z</time>
      </trkpt>
      <trkpt lat="48.7762" lon="2.09731">
        <ele>131.80000305176</ele>
        <time>2021-03-28T07:09:46Z</time>
      </trkpt>
      <trkpt lat="48.77606" lon="2.0973">
        <ele>132.39999389648</ele>
        <time>2021-03-28T07:09:57Z</time>
      </trkpt>
      <trkpt lat="48.77604" lon="2.09729">
        <ele>132.60000610352</ele>
        <time>2021-03-28T07:09:59Z</time>
      </trkpt>
      <trkpt lat="48.77585" lon="2.09733">
        <ele>133</ele>
        <time>2021-03-28T07:10:12Z</time>
      </trkpt>
      <trkpt lat="48.77575" lon="2.09733">
        <ele>133.39999389648</ele>
        <time>2021-03-28T07:10:24Z</time>
      </trkpt>
      <trkpt lat="48.77564" lon="2.09735">
        <ele>133.80000305176</ele>
        <time>2021-03-28T07:10:35Z</time>
      </trkpt>
      <trkpt lat="48.77563" lon="2.09736">
        <ele>133.80000305176</ele>
        <time>2021-03-28T07:10:36Z</time>
      </trkpt>
      <trkpt lat="48.7755" lon="2.09738">
        <ele>134</ele>
        <time>2021-03-28T07:10:48Z</time>
      </trkpt>
      <trkpt lat="48.7754" lon="2.09747">
        <ele>134.60000610352</ele>
        <time>2021-03-28T07:11:01Z</time>
      </trkpt>
      <trkpt lat="48.77538" lon="2.09749">
        <ele>134.39999389648</ele>
        <time>2021-03-28T07:11:03Z</time>
      </trkpt>
      <trkpt lat="48.77526" lon="2.0976">
        <ele>134.39999389648</ele>
        <time>2021-03-28T07:11:12Z</time>
      </trkpt>
      <trkpt lat="48.77509" lon="2.09771">
        <ele>134.80000305176</ele>
        <time>2021-03-28T07:11:24Z</time>
      </trkpt>
      <trkpt lat="48.77497" lon="2.09783">
        <ele>134.80000305176</ele>
        <time>2021-03-28T07:11:37Z</time>
      </trkpt>
      <trkpt lat="48.77483" lon="2.09792">
        <ele>135.39999389648</ele>
        <time>2021-03-28T07:11:49Z</time>
      </trkpt>
      <trkpt lat="48.77476" lon="2.09803">
        <ele>135.80000305176</ele>
        <time>2021-03-28T07:11:59Z</time>
      </trkpt>
      <trkpt lat="48.77466" lon="2.09814">
        <ele>136.39999389648</ele>
        <time>2021-03-28T07:12:13Z</time>
      </trkpt>
      <trkpt lat="48.77451" lon="2.09829">
        <ele>136.60000610352</ele>
        <time>2021-03-28T07:12:25Z</time>
      </trkpt>
      <trkpt lat="48.77449" lon="2.09831">
        <ele>136.80000305176</ele>
        <time>2021-03-28T07:12:27Z</time>
      </trkpt>
      <trkpt lat="48.77435" lon="2.09843">
        <ele>137</ele>
        <time>2021-03-28T07:12:38Z</time>
      </trkpt>
      <trkpt lat="48.77421" lon="2.09854">
        <ele>137.60000610352</ele>
        <time>2021-03-28T07:12:51Z</time>
      </trkpt>
      <trkpt lat="48.77418" lon="2.09857">
        <ele>137.80000305176</ele>
        <time>2021-03-28T07:12:54Z</time>
      </trkpt>
      <trkpt lat="48.77409" lon="2.0987">
        <ele>138.19999694824</ele>
        <time>2021-03-28T07:13:06Z</time>
      </trkpt>
      <trkpt lat="48.77406" lon="2.09887">
        <ele>138.39999389648</ele>
        <time>2021-03-28T07:13:17Z</time>
      </trkpt>
      <trkpt lat="48.77401" lon="2.09899">
        <ele>138.39999389648</ele>
        <time>2021-03-28T07:13:20Z</time>
      </trkpt>
      <trkpt lat="48.774" lon="2.09917">
        <ele>138.60000610352</ele>
        <time>2021-03-28T07:13:29Z</time>
      </trkpt>
      <trkpt lat="48.77401" lon="2.09937">
        <ele>138.80000305176</ele>
        <time>2021-03-28T07:13:40Z</time>
      </trkpt>
      <trkpt lat="48.77403" lon="2.09939">
        <ele>139</ele>
        <time>2021-03-28T07:13:42Z</time>
      </trkpt>
      <trkpt lat="48.774" lon="2.09958">
        <ele>139.19999694824</ele>
        <time>2021-03-28T07:13:52Z</time>
      </trkpt>
      <trkpt lat="48.77392" lon="2.09966">
        <ele>139</ele>
        <time>2021-03-28T07:14:03Z</time>
      </trkpt>
      <trkpt lat="48.77387" lon="2.09965">
        <ele>139</ele>
        <time>2021-03-28T07:14:09Z</time>
      </trkpt>
      <trkpt lat="48.77384" lon="2.09971">
        <ele>139</ele>
        <time>2021-03-28T07:14:14Z</time>
      </trkpt>
      <trkpt lat="48.77376" lon="2.09981">
        <ele>138.80000305176</ele>
        <time>2021-03-28T07:14:25Z</time>
      </trkpt>
      <trkpt lat="48.77373" lon="2.09995">
        <ele>138.80000305176</ele>
        <time>2021-03-28T07:14:37Z</time>
      </trkpt>
      <trkpt lat="48.77368" lon="2.10023">
        <ele>139</ele>
        <time>2021-03-28T07:14:49Z</time>
      </trkpt>
      <trkpt lat="48.77363" lon="2.10036">
        <ele>139</ele>
        <time>2021-03-28T07:14:59Z</time>
      </trkpt>
      <trkpt lat="48.77361" lon="2.10038">
        <ele>139</ele>
        <time>2021-03-28T07:15:00Z</time>
      </trkpt>
      <trkpt lat="48.77352" lon="2.10046">
        <ele>139.39999389648</ele>
        <time>2021-03-28T07:15:10Z</time>
      </trkpt>
      <trkpt lat="48.77338" lon="2.10057">
        <ele>139.80000305176</ele>
        <time>2021-03-28T07:15:24Z</time>
      </trkpt>
      <trkpt lat="48.77337" lon="2.10058">
        <ele>139.80000305176</ele>
        <time>2021-03-28T07:15:25Z</time>
      </trkpt>
      <trkpt lat="48.77328" lon="2.1006">
        <ele>140</ele>
        <time>2021-03-28T07:15:31Z</time>
      </trkpt>
      <trkpt lat="48.77318" lon="2.10064">
        <ele>140.19999694824</ele>
        <time>2021-03-28T07:15:38Z</time>
      </trkpt>
      <trkpt lat="48.7731" lon="2.10077">
        <ele>140.19999694824</ele>
        <time>2021-03-28T07:15:48Z</time>
      </trkpt>
      <trkpt lat="48.77301" lon="2.10102">
        <ele>140.39999389648</ele>
        <time>2021-03-28T07:16:02Z</time>
      </trkpt>
      <trkpt lat="48.77285" lon="2.10116">
        <ele>140.60000610352</ele>
        <time>2021-03-28T07:16:15Z</time>
      </trkpt>
      <trkpt lat="48.77272" lon="2.10125">
        <ele>140.80000305176</ele>
        <time>2021-03-28T07:16:27Z</time>
      </trkpt>
      <trkpt lat="48.77271" lon="2.10126">
        <ele>140.80000305176</ele>
        <time>2021-03-28T07:16:28Z</time>
      </trkpt>
      <trkpt lat="48.77257" lon="2.10133">
        <ele>141.19999694824</ele>
        <time>2021-03-28T07:16:39Z</time>
      </trkpt>
      <trkpt lat="48.77247" lon="2.10147">
        <ele>141.19999694824</ele>
        <time>2021-03-28T07:16:52Z</time>
      </trkpt>
      <trkpt lat="48.77241" lon="2.10161">
        <ele>140.80000305176</ele>
        <time>2021-03-28T07:17:04Z</time>
      </trkpt>
      <trkpt lat="48.77238" lon="2.10175">
        <ele>140.60000610352</ele>
        <time>2021-03-28T07:17:11Z</time>
      </trkpt>
      <trkpt lat="48.77237" lon="2.10183">
        <ele>140.39999389648</ele>
        <time>2021-03-28T07:17:15Z</time>
      </trkpt>
      <trkpt lat="48.77233" lon="2.10202">
        <ele>140</ele>
        <time>2021-03-28T07:17:28Z</time>
      </trkpt>
      <trkpt lat="48.77236" lon="2.10219">
        <ele>139.80000305176</ele>
        <time>2021-03-28T07:17:39Z</time>
      </trkpt>
      <trkpt lat="48.77235" lon="2.10227">
        <ele>139.80000305176</ele>
        <time>2021-03-28T07:17:44Z</time>
      </trkpt>
      <trkpt lat="48.77231" lon="2.10242">
        <ele>139.80000305176</ele>
        <time>2021-03-28T07:17:52Z</time>
      </trkpt>
      <trkpt lat="48.77222" lon="2.10263">
        <ele>140</ele>
        <time>2021-03-28T07:18:04Z</time>
      </trkpt>
      <trkpt lat="48.77218" lon="2.10286">
        <ele>140.19999694824</ele>
        <time>2021-03-28T07:18:16Z</time>
      </trkpt>
      <trkpt lat="48.77211" lon="2.10304">
        <ele>140.39999389648</ele>
        <time>2021-03-28T07:18:27Z</time>
      </trkpt>
      <trkpt lat="48.77209" lon="2.10323">
        <ele>140.80000305176</ele>
        <time>2021-03-28T07:18:40Z</time>
      </trkpt>
      <trkpt lat="48.77208" lon="2.10331">
        <ele>140.80000305176</ele>
        <time>2021-03-28T07:18:44Z</time>
      </trkpt>
      <trkpt lat="48.77209" lon="2.10344">
        <ele>141.19999694824</ele>
        <time>2021-03-28T07:18:52Z</time>
      </trkpt>
      <trkpt lat="48.7721" lon="2.10372">
        <ele>141.80000305176</ele>
        <time>2021-03-28T07:19:06Z</time>
      </trkpt>
      <trkpt lat="48.7721" lon="2.10378">
        <ele>141.80000305176</ele>
        <time>2021-03-28T07:19:09Z</time>
      </trkpt>
      <trkpt lat="48.77206" lon="2.10397">
        <ele>142.39999389648</ele>
        <time>2021-03-28T07:19:19Z</time>
      </trkpt>
      <trkpt lat="48.77206" lon="2.10423">
        <ele>142.80000305176</ele>
        <time>2021-03-28T07:19:33Z</time>
      </trkpt>
      <trkpt lat="48.77206" lon="2.10426">
        <ele>143</ele>
        <time>2021-03-28T07:19:35Z</time>
      </trkpt>
      <trkpt lat="48.77204" lon="2.10446">
        <ele>143.39999389648</ele>
        <time>2021-03-28T07:19:46Z</time>
      </trkpt>
      <trkpt lat="48.77205" lon="2.10465">
        <ele>143.60000610352</ele>
        <time>2021-03-28T07:19:55Z</time>
      </trkpt>
      <trkpt lat="48.77205" lon="2.10472">
        <ele>143.80000305176</ele>
        <time>2021-03-28T07:19:59Z</time>
      </trkpt>
      <trkpt lat="48.77207" lon="2.10491">
        <ele>144.19999694824</ele>
        <time>2021-03-28T07:20:08Z</time>
      </trkpt>
      <trkpt lat="48.77208" lon="2.10497">
        <ele>144.19999694824</ele>
        <time>2021-03-28T07:20:11Z</time>
      </trkpt>
      <trkpt lat="48.77218" lon="2.10516">
        <ele>144.39999389648</ele>
        <time>2021-03-28T07:20:23Z</time>
      </trkpt>
      <trkpt lat="48.7722" lon="2.10538">
        <ele>144.19999694824</ele>
        <time>2021-03-28T07:20:36Z</time>
      </trkpt>
      <trkpt lat="48.77227" lon="2.10556">
        <ele>144.19999694824</ele>
        <time>2021-03-28T07:20:49Z</time>
      </trkpt>
      <trkpt lat="48.77229" lon="2.10564">
        <ele>144.39999389648</ele>
        <time>2021-03-28T07:20:53Z</time>
      </trkpt>
      <trkpt lat="48.77234" lon="2.10583">
        <ele>144.80000305176</ele>
        <time>2021-03-28T07:21:03Z</time>
      </trkpt>
      <trkpt lat="48.77239" lon="2.10605">
        <ele>144.60000610352</ele>
        <time>2021-03-28T07:21:17Z</time>
      </trkpt>
      <trkpt lat="48.77241" lon="2.1062">
        <ele>144.60000610352</ele>
        <time>2021-03-28T07:21:26Z</time>
      </trkpt>
      <trkpt lat="48.77243" lon="2.10638">
        <ele>144.60000610352</ele>
        <time>2021-03-28T07:21:38Z</time>
      </trkpt>
      <trkpt lat="48.77242" lon="2.10666">
        <ele>145</ele>
        <time>2021-03-28T07:21:53Z</time>
      </trkpt>
      <trkpt lat="48.77246" lon="2.10694">
        <ele>144.80000305176</ele>
        <time>2021-03-28T07:22:06Z</time>
      </trkpt>
      <trkpt lat="48.77251" lon="2.10715">
        <ele>144.39999389648</ele>
        <time>2021-03-28T07:22:19Z</time>
      </trkpt>
      <trkpt lat="48.77255" lon="2.10738">
        <ele>144.39999389648</ele>
        <time>2021-03-28T07:22:33Z</time>
      </trkpt>
      <trkpt lat="48.77249" lon="2.10759">
        <ele>144.19999694824</ele>
        <time>2021-03-28T07:22:46Z</time>
      </trkpt>
      <trkpt lat="48.77249" lon="2.10781">
        <ele>144.39999389648</ele>
        <time>2021-03-28T07:22:57Z</time>
      </trkpt>
      <trkpt lat="48.77253" lon="2.10795">
        <ele>145</ele>
        <time>2021-03-28T07:23:08Z</time>
      </trkpt>
      <trkpt lat="48.77256" lon="2.10815">
        <ele>145.19999694824</ele>
        <time>2021-03-28T07:23:19Z</time>
      </trkpt>
      <trkpt lat="48.77265" lon="2.10828">
        <ele>145.39999389648</ele>
        <time>2021-03-28T07:23:29Z</time>
      </trkpt>
      <trkpt lat="48.77267" lon="2.10837">
        <ele>146</ele>
        <time>2021-03-28T07:23:39Z</time>
      </trkpt>
      <trkpt lat="48.77267" lon="2.10838">
        <ele>146</ele>
        <time>2021-03-28T07:23:40Z</time>
      </trkpt>
      <trkpt lat="48.77266" lon="2.1084">
        <ele>146.19999694824</ele>
        <time>2021-03-28T07:23:52Z</time>
      </trkpt>
      <trkpt lat="48.77267" lon="2.10839">
        <ele>146.19999694824</ele>
        <time>2021-03-28T07:24:04Z</time>
      </trkpt>
      <trkpt lat="48.77268" lon="2.10841">
        <ele>146.19999694824</ele>
        <time>2021-03-28T07:24:11Z</time>
      </trkpt>
      <trkpt lat="48.77272" lon="2.10849">
        <ele>146.19999694824</ele>
        <time>2021-03-28T07:24:23Z</time>
      </trkpt>
      <trkpt lat="48.77275" lon="2.10859">
        <ele>146.39999389648</ele>
        <time>2021-03-28T07:24:32Z</time>
      </trkpt>
      <trkpt lat="48.77281" lon="2.10876">
        <ele>146.60000610352</ele>
        <time>2021-03-28T07:24:45Z</time>
      </trkpt>
      <trkpt lat="48.77289" lon="2.10897">
        <ele>147.19999694824</ele>
        <time>2021-03-28T07:24:59Z</time>
      </trkpt>
      <trkpt lat="48.7729" lon="2.10898">
        <ele>147.19999694824</ele>
        <time>2021-03-28T07:25:00Z</time>
      </trkpt>
      <trkpt lat="48.77298" lon="2.10918">
        <ele>148.39999389648</ele>
        <time>2021-03-28T07:25:13Z</time>
      </trkpt>
      <trkpt lat="48.77298" lon="2.10919">
        <ele>148.39999389648</ele>
        <time>2021-03-28T07:25:14Z</time>
      </trkpt>
      <trkpt lat="48.77304" lon="2.10942">
        <ele>149</ele>
        <time>2021-03-28T07:25:27Z</time>
      </trkpt>
      <trkpt lat="48.77311" lon="2.10962">
        <ele>149.60000610352</ele>
        <time>2021-03-28T07:25:41Z</time>
      </trkpt>
      <trkpt lat="48.77312" lon="2.10963">
        <ele>149.60000610352</ele>
        <time>2021-03-28T07:25:42Z</time>
      </trkpt>
      <trkpt lat="48.77318" lon="2.10984">
        <ele>150.19999694824</ele>
        <time>2021-03-28T07:25:54Z</time>
      </trkpt>
      <trkpt lat="48.77317" lon="2.10997">
        <ele>150.80000305176</ele>
        <time>2021-03-28T07:26:00Z</time>
      </trkpt>
      <trkpt lat="48.77317" lon="2.11008">
        <ele>151.39999389648</ele>
        <time>2021-03-28T07:26:05Z</time>
      </trkpt>
      <trkpt lat="48.77321" lon="2.11018">
        <ele>151.80000305176</ele>
        <time>2021-03-28T07:26:13Z</time>
      </trkpt>
      <trkpt lat="48.77321" lon="2.11028">
        <ele>152</ele>
        <time>2021-03-28T07:26:18Z</time>
      </trkpt>
      <trkpt lat="48.77321" lon="2.11047">
        <ele>152.60000610352</ele>
        <time>2021-03-28T07:26:30Z</time>
      </trkpt>
      <trkpt lat="48.77322" lon="2.11068">
        <ele>153</ele>
        <time>2021-03-28T07:26:41Z</time>
      </trkpt>
      <trkpt lat="48.7732" lon="2.11095">
        <ele>153.60000610352</ele>
        <time>2021-03-28T07:26:52Z</time>
      </trkpt>
      <trkpt lat="48.77319" lon="2.11103">
        <ele>153.80000305176</ele>
        <time>2021-03-28T07:27:02Z</time>
      </trkpt>
      <trkpt lat="48.7732" lon="2.11102">
        <ele>153.80000305176</ele>
        <time>2021-03-28T07:27:12Z</time>
      </trkpt>
      <trkpt lat="48.7732" lon="2.11101">
        <ele>153.80000305176</ele>
        <time>2021-03-28T07:27:27Z</time>
      </trkpt>
      <trkpt lat="48.77321" lon="2.11101">
        <ele>153.80000305176</ele>
        <time>2021-03-28T07:27:41Z</time>
      </trkpt>
      <trkpt lat="48.77323" lon="2.11106">
        <ele>153.80000305176</ele>
        <time>2021-03-28T07:27:50Z</time>
      </trkpt>
      <trkpt lat="48.77329" lon="2.11117">
        <ele>153.80000305176</ele>
        <time>2021-03-28T07:28:00Z</time>
      </trkpt>
      <trkpt lat="48.77335" lon="2.11133">
        <ele>153.80000305176</ele>
        <time>2021-03-28T07:28:13Z</time>
      </trkpt>
      <trkpt lat="48.77339" lon="2.11156">
        <ele>153.60000610352</ele>
        <time>2021-03-28T07:28:26Z</time>
      </trkpt>
      <trkpt lat="48.77343" lon="2.11177">
        <ele>153.39999389648</ele>
        <time>2021-03-28T07:28:36Z</time>
      </trkpt>
      <trkpt lat="48.77349" lon="2.11201">
        <ele>153.19999694824</ele>
        <time>2021-03-28T07:28:50Z</time>
      </trkpt>
      <trkpt lat="48.77352" lon="2.11218">
        <ele>153</ele>
        <time>2021-03-28T07:29:02Z</time>
      </trkpt>
      <trkpt lat="48.77356" lon="2.11235">
        <ele>153</ele>
        <time>2021-03-28T07:29:14Z</time>
      </trkpt>
      <trkpt lat="48.77357" lon="2.11267">
        <ele>153.19999694824</ele>
        <time>2021-03-28T07:29:23Z</time>
      </trkpt>
      <trkpt lat="48.77357" lon="2.11273">
        <ele>153.19999694824</ele>
        <time>2021-03-28T07:29:24Z</time>
      </trkpt>
      <trkpt lat="48.77361" lon="2.11299">
        <ele>153.60000610352</ele>
        <time>2021-03-28T07:29:36Z</time>
      </trkpt>
      <trkpt lat="48.77369" lon="2.11304">
        <ele>153.80000305176</ele>
        <time>2021-03-28T07:29:46Z</time>
      </trkpt>
      <trkpt lat="48.77375" lon="2.11325">
        <ele>153.80000305176</ele>
        <time>2021-03-28T07:29:58Z</time>
      </trkpt>
      <trkpt lat="48.77382" lon="2.11345">
        <ele>154</ele>
        <time>2021-03-28T07:30:10Z</time>
      </trkpt>
      <trkpt lat="48.77391" lon="2.11364">
        <ele>153.80000305176</ele>
        <time>2021-03-28T07:30:21Z</time>
      </trkpt>
      <trkpt lat="48.77397" lon="2.11375">
        <ele>153.80000305176</ele>
        <time>2021-03-28T07:30:31Z</time>
      </trkpt>
      <trkpt lat="48.77399" lon="2.11398">
        <ele>153.60000610352</ele>
        <time>2021-03-28T07:30:43Z</time>
      </trkpt>
      <trkpt lat="48.77397" lon="2.11422">
        <ele>154.19999694824</ele>
        <time>2021-03-28T07:30:53Z</time>
      </trkpt>
      <trkpt lat="48.77392" lon="2.11449">
        <ele>154.80000305176</ele>
        <time>2021-03-28T07:31:02Z</time>
      </trkpt>
      <trkpt lat="48.77392" lon="2.11452">
        <ele>155</ele>
        <time>2021-03-28T07:31:06Z</time>
      </trkpt>
      <trkpt lat="48.77392" lon="2.1147">
        <ele>155.39999389648</ele>
        <time>2021-03-28T07:31:16Z</time>
      </trkpt>
      <trkpt lat="48.77388" lon="2.11491">
        <ele>155.80000305176</ele>
        <time>2021-03-28T07:31:27Z</time>
      </trkpt>
      <trkpt lat="48.77385" lon="2.1151">
        <ele>155.80000305176</ele>
        <time>2021-03-28T07:31:38Z</time>
      </trkpt>
      <trkpt lat="48.77378" lon="2.11539">
        <ele>155.39999389648</ele>
        <time>2021-03-28T07:31:51Z</time>
      </trkpt>
      <trkpt lat="48.77377" lon="2.11555">
        <ele>155.19999694824</ele>
        <time>2021-03-28T07:32:03Z</time>
      </trkpt>
      <trkpt lat="48.77379" lon="2.11577">
        <ele>155</ele>
        <time>2021-03-28T07:32:13Z</time>
      </trkpt>
      <trkpt lat="48.77372" lon="2.11606">
        <ele>154.39999389648</ele>
        <time>2021-03-28T07:32:25Z</time>
      </trkpt>
      <trkpt lat="48.77363" lon="2.11627">
        <ele>154</ele>
        <time>2021-03-28T07:32:36Z</time>
      </trkpt>
      <trkpt lat="48.77362" lon="2.11629">
        <ele>154</ele>
        <time>2021-03-28T07:32:37Z</time>
      </trkpt>
      <trkpt lat="48.77357" lon="2.11647">
        <ele>153.80000305176</ele>
        <time>2021-03-28T07:32:47Z</time>
      </trkpt>
      <trkpt lat="48.77353" lon="2.11657">
        <ele>153</ele>
        <time>2021-03-28T07:32:54Z</time>
      </trkpt>
      <trkpt lat="48.77352" lon="2.11662">
        <ele>152.80000305176</ele>
        <time>2021-03-28T07:32:58Z</time>
      </trkpt>
      <trkpt lat="48.77349" lon="2.11684">
        <ele>152.19999694824</ele>
        <time>2021-03-28T07:33:10Z</time>
      </trkpt>
      <trkpt lat="48.77348" lon="2.11691">
        <ele>152</ele>
        <time>2021-03-28T07:33:15Z</time>
      </trkpt>
      <trkpt lat="48.77341" lon="2.11707">
        <ele>151.60000610352</ele>
        <time>2021-03-28T07:33:23Z</time>
      </trkpt>
      <trkpt lat="48.77332" lon="2.11729">
        <ele>151.60000610352</ele>
        <time>2021-03-28T07:33:34Z</time>
      </trkpt>
      <trkpt lat="48.77329" lon="2.11744">
        <ele>151.39999389648</ele>
        <time>2021-03-28T07:33:45Z</time>
      </trkpt>
      <trkpt lat="48.77327" lon="2.11752">
        <ele>150.80000305176</ele>
        <time>2021-03-28T07:33:50Z</time>
      </trkpt>
      <trkpt lat="48.77323" lon="2.11762">
        <ele>150.19999694824</ele>
        <time>2021-03-28T07:33:55Z</time>
      </trkpt>
      <trkpt lat="48.77319" lon="2.11771">
        <ele>149.80000305176</ele>
        <time>2021-03-28T07:34:00Z</time>
      </trkpt>
      <trkpt lat="48.77316" lon="2.11778">
        <ele>149.60000610352</ele>
        <time>2021-03-28T07:34:05Z</time>
      </trkpt>
      <trkpt lat="48.7731" lon="2.11794">
        <ele>149.39999389648</ele>
        <time>2021-03-28T07:34:15Z</time>
      </trkpt>
      <trkpt lat="48.77304" lon="2.11808">
        <ele>149</ele>
        <time>2021-03-28T07:34:27Z</time>
      </trkpt>
      <trkpt lat="48.77305" lon="2.11817">
        <ele>149</ele>
        <time>2021-03-28T07:34:39Z</time>
      </trkpt>
      <trkpt lat="48.77306" lon="2.11818">
        <ele>148.80000305176</ele>
        <time>2021-03-28T07:34:41Z</time>
      </trkpt>
      <trkpt lat="48.77309" lon="2.11823">
        <ele>147.60000610352</ele>
        <time>2021-03-28T07:34:48Z</time>
      </trkpt>
      <trkpt lat="48.77312" lon="2.11826">
        <ele>146.80000305176</ele>
        <time>2021-03-28T07:34:52Z</time>
      </trkpt>
      <trkpt lat="48.77313" lon="2.11827">
        <ele>146.39999389648</ele>
        <time>2021-03-28T07:34:54Z</time>
      </trkpt>
      <trkpt lat="48.77317" lon="2.11831">
        <ele>145.39999389648</ele>
        <time>2021-03-28T07:34:59Z</time>
      </trkpt>
      <trkpt lat="48.77322" lon="2.11833">
        <ele>144.60000610352</ele>
        <time>2021-03-28T07:35:03Z</time>
      </trkpt>
      <trkpt lat="48.77324" lon="2.11833">
        <ele>144.19999694824</ele>
        <time>2021-03-28T07:35:04Z</time>
      </trkpt>
      <trkpt lat="48.77327" lon="2.11838">
        <ele>143.19999694824</ele>
        <time>2021-03-28T07:35:08Z</time>
      </trkpt>
      <trkpt lat="48.77332" lon="2.11838">
        <ele>142.19999694824</ele>
        <time>2021-03-28T07:35:14Z</time>
      </trkpt>
      <trkpt lat="48.77335" lon="2.11838">
        <ele>141.80000305176</ele>
        <time>2021-03-28T07:35:16Z</time>
      </trkpt>
      <trkpt lat="48.77342" lon="2.11838">
        <ele>141.19999694824</ele>
        <time>2021-03-28T07:35:21Z</time>
      </trkpt>
      <trkpt lat="48.77348" lon="2.11844">
        <ele>140</ele>
        <time>2021-03-28T07:35:27Z</time>
      </trkpt>
      <trkpt lat="48.77353" lon="2.11845">
        <ele>138.80000305176</ele>
        <time>2021-03-28T07:35:32Z</time>
      </trkpt>
      <trkpt lat="48.77357" lon="2.11849">
        <ele>137.80000305176</ele>
        <time>2021-03-28T07:35:36Z</time>
      </trkpt>
      <trkpt lat="48.77358" lon="2.11849">
        <ele>137.39999389648</ele>
        <time>2021-03-28T07:35:37Z</time>
      </trkpt>
      <trkpt lat="48.77363" lon="2.11852">
        <ele>136.60000610352</ele>
        <time>2021-03-28T07:35:41Z</time>
      </trkpt>
      <trkpt lat="48.77374" lon="2.11851">
        <ele>135.19999694824</ele>
        <time>2021-03-28T07:35:48Z</time>
      </trkpt>
      <trkpt lat="48.77379" lon="2.11854">
        <ele>134</ele>
        <time>2021-03-28T07:35:54Z</time>
      </trkpt>
      <trkpt lat="48.77384" lon="2.11858">
        <ele>133.19999694824</ele>
        <time>2021-03-28T07:35:59Z</time>
      </trkpt>
      <trkpt lat="48.77387" lon="2.11858">
        <ele>132.80000305176</ele>
        <time>2021-03-28T07:36:01Z</time>
      </trkpt>
      <trkpt lat="48.77394" lon="2.11865">
        <ele>131.80000305176</ele>
        <time>2021-03-28T07:36:06Z</time>
      </trkpt>
      <trkpt lat="48.77398" lon="2.11867">
        <ele>131.19999694824</ele>
        <time>2021-03-28T07:36:09Z</time>
      </trkpt>
      <trkpt lat="48.77402" lon="2.11868">
        <ele>130.39999389648</ele>
        <time>2021-03-28T07:36:13Z</time>
      </trkpt>
      <trkpt lat="48.77411" lon="2.11868">
        <ele>129.19999694824</ele>
        <time>2021-03-28T07:36:21Z</time>
      </trkpt>
      <trkpt lat="48.77425" lon="2.11867">
        <ele>128</ele>
        <time>2021-03-28T07:36:29Z</time>
      </trkpt>
      <trkpt lat="48.77429" lon="2.11873">
        <ele>127.59999847412</ele>
        <time>2021-03-28T07:36:32Z</time>
      </trkpt>
      <trkpt lat="48.77436" lon="2.11874">
        <ele>127</ele>
        <time>2021-03-28T07:36:36Z</time>
      </trkpt>
      <trkpt lat="48.77442" lon="2.1188">
        <ele>126</ele>
        <time>2021-03-28T07:36:43Z</time>
      </trkpt>
      <trkpt lat="48.77449" lon="2.11883">
        <ele>124.80000305176</ele>
        <time>2021-03-28T07:36:48Z</time>
      </trkpt>
      <trkpt lat="48.77454" lon="2.11885">
        <ele>123.80000305176</ele>
        <time>2021-03-28T07:36:53Z</time>
      </trkpt>
      <trkpt lat="48.77456" lon="2.11886">
        <ele>123.59999847412</ele>
        <time>2021-03-28T07:36:54Z</time>
      </trkpt>
      <trkpt lat="48.77474" lon="2.11888">
        <ele>122.59999847412</ele>
        <time>2021-03-28T07:37:04Z</time>
      </trkpt>
      <trkpt lat="48.77488" lon="2.11886">
        <ele>121.40000152588</ele>
        <time>2021-03-28T07:37:13Z</time>
      </trkpt>
      <trkpt lat="48.77497" lon="2.11881">
        <ele>121</ele>
        <time>2021-03-28T07:37:20Z</time>
      </trkpt>
      <trkpt lat="48.775" lon="2.11872">
        <ele>120.59999847412</ele>
        <time>2021-03-28T07:37:27Z</time>
      </trkpt>
      <trkpt lat="48.77501" lon="2.1186">
        <ele>120.59999847412</ele>
        <time>2021-03-28T07:37:35Z</time>
      </trkpt>
      <trkpt lat="48.77502" lon="2.11854">
        <ele>120.40000152588</ele>
        <time>2021-03-28T07:37:39Z</time>
      </trkpt>
      <trkpt lat="48.77503" lon="2.11852">
        <ele>120.40000152588</ele>
        <time>2021-03-28T07:37:40Z</time>
      </trkpt>
      <trkpt lat="48.77511" lon="2.11838">
        <ele>120.19999694824</ele>
        <time>2021-03-28T07:37:50Z</time>
      </trkpt>
      <trkpt lat="48.77524" lon="2.11828">
        <ele>119.80000305176</ele>
        <time>2021-03-28T07:38:00Z</time>
      </trkpt>
      <trkpt lat="48.77538" lon="2.11819">
        <ele>119.40000152588</ele>
        <time>2021-03-28T07:38:11Z</time>
      </trkpt>
      <trkpt lat="48.77541" lon="2.11817">
        <ele>119.19999694824</ele>
        <time>2021-03-28T07:38:14Z</time>
      </trkpt>
      <trkpt lat="48.77551" lon="2.11814">
        <ele>118.59999847412</ele>
        <time>2021-03-28T07:38:22Z</time>
      </trkpt>
      <trkpt lat="48.77556" lon="2.11813">
        <ele>118.19999694824</ele>
        <time>2021-03-28T07:38:27Z</time>
      </trkpt>
      <trkpt lat="48.7756" lon="2.11812">
        <ele>117.59999847412</ele>
        <time>2021-03-28T07:38:34Z</time>
      </trkpt>
      <trkpt lat="48.77567" lon="2.11809">
        <ele>117.19999694824</ele>
        <time>2021-03-28T07:38:43Z</time>
      </trkpt>
      <trkpt lat="48.77569" lon="2.11807">
        <ele>116.80000305176</ele>
        <time>2021-03-28T07:38:46Z</time>
      </trkpt>
      <trkpt lat="48.77578" lon="2.11805">
        <ele>116</ele>
        <time>2021-03-28T07:38:53Z</time>
      </trkpt>
      <trkpt lat="48.77581" lon="2.11804">
        <ele>115.59999847412</ele>
        <time>2021-03-28T07:38:57Z</time>
      </trkpt>
      <trkpt lat="48.77585" lon="2.11801">
        <ele>115</ele>
        <time>2021-03-28T07:39:02Z</time>
      </trkpt>
      <trkpt lat="48.77589" lon="2.11797">
        <ele>114.19999694824</ele>
        <time>2021-03-28T07:39:08Z</time>
      </trkpt>
      <trkpt lat="48.77592" lon="2.11793">
        <ele>113.80000305176</ele>
        <time>2021-03-28T07:39:12Z</time>
      </trkpt>
      <trkpt lat="48.77597" lon="2.11785">
        <ele>113</ele>
        <time>2021-03-28T07:39:20Z</time>
      </trkpt>
      <trkpt lat="48.776" lon="2.11782">
        <ele>112.80000305176</ele>
        <time>2021-03-28T07:39:22Z</time>
      </trkpt>
      <trkpt lat="48.77607" lon="2.11773">
        <ele>111.80000305176</ele>
        <time>2021-03-28T07:39:30Z</time>
      </trkpt>
      <trkpt lat="48.77609" lon="2.11772">
        <ele>111.40000152588</ele>
        <time>2021-03-28T07:39:32Z</time>
      </trkpt>
      <trkpt lat="48.77616" lon="2.11767">
        <ele>110.59999847412</ele>
        <time>2021-03-28T07:39:37Z</time>
      </trkpt>
      <trkpt lat="48.77624" lon="2.11764">
        <ele>110.19999694824</ele>
        <time>2021-03-28T07:39:41Z</time>
      </trkpt>
      <trkpt lat="48.77628" lon="2.11764">
        <ele>109.59999847412</ele>
        <time>2021-03-28T07:39:44Z</time>
      </trkpt>
      <trkpt lat="48.77637" lon="2.11771">
        <ele>109</ele>
        <time>2021-03-28T07:39:53Z</time>
      </trkpt>
      <trkpt lat="48.7765" lon="2.11778">
        <ele>109</ele>
        <time>2021-03-28T07:40:03Z</time>
      </trkpt>
      <trkpt lat="48.77656" lon="2.1178">
        <ele>108.80000305176</ele>
        <time>2021-03-28T07:40:07Z</time>
      </trkpt>
      <trkpt lat="48.77674" lon="2.11785">
        <ele>108.80000305176</ele>
        <time>2021-03-28T07:40:18Z</time>
      </trkpt>
      <trkpt lat="48.77681" lon="2.11789">
        <ele>108.40000152588</ele>
        <time>2021-03-28T07:40:27Z</time>
      </trkpt>
      <trkpt lat="48.77681" lon="2.11792">
        <ele>108</ele>
        <time>2021-03-28T07:40:29Z</time>
      </trkpt>
      <trkpt lat="48.77682" lon="2.11794">
        <ele>107.40000152588</ele>
        <time>2021-03-28T07:40:31Z</time>
      </trkpt>
      <trkpt lat="48.77681" lon="2.11797">
        <ele>106.19999694824</ele>
        <time>2021-03-28T07:40:34Z</time>
      </trkpt>
      <trkpt lat="48.77681" lon="2.11799">
        <ele>105.59999847412</ele>
        <time>2021-03-28T07:40:36Z</time>
      </trkpt>
      <trkpt lat="48.77681" lon="2.118">
        <ele>105.19999694824</ele>
        <time>2021-03-28T07:40:37Z</time>
      </trkpt>
      <trkpt lat="48.77684" lon="2.11807">
        <ele>105</ele>
        <time>2021-03-28T07:40:45Z</time>
      </trkpt>
      <trkpt lat="48.77687" lon="2.1182">
        <ele>105</ele>
        <time>2021-03-28T07:40:56Z</time>
      </trkpt>
      <trkpt lat="48.77687" lon="2.11841">
        <ele>105</ele>
        <time>2021-03-28T07:41:08Z</time>
      </trkpt>
      <trkpt lat="48.77688" lon="2.11851">
        <ele>105</ele>
        <time>2021-03-28T07:41:14Z</time>
      </trkpt>
      <trkpt lat="48.77687" lon="2.11872">
        <ele>104.59999847412</ele>
        <time>2021-03-28T07:41:26Z</time>
      </trkpt>
      <trkpt lat="48.77688" lon="2.11897">
        <ele>104.59999847412</ele>
        <time>2021-03-28T07:41:39Z</time>
      </trkpt>
      <trkpt lat="48.77687" lon="2.1192">
        <ele>104.59999847412</ele>
        <time>2021-03-28T07:41:53Z</time>
      </trkpt>
      <trkpt lat="48.77688" lon="2.11935">
        <ele>104.59999847412</ele>
        <time>2021-03-28T07:42:03Z</time>
      </trkpt>
      <trkpt lat="48.77687" lon="2.1195">
        <ele>104.59999847412</ele>
        <time>2021-03-28T07:42:11Z</time>
      </trkpt>
      <trkpt lat="48.77687" lon="2.11954">
        <ele>104.59999847412</ele>
        <time>2021-03-28T07:42:13Z</time>
      </trkpt>
      <trkpt lat="48.77684" lon="2.11973">
        <ele>104.59999847412</ele>
        <time>2021-03-28T07:42:23Z</time>
      </trkpt>
      <trkpt lat="48.77681" lon="2.11987">
        <ele>104.59999847412</ele>
        <time>2021-03-28T07:42:31Z</time>
      </trkpt>
      <trkpt lat="48.77676" lon="2.12004">
        <ele>104.59999847412</ele>
        <time>2021-03-28T07:42:39Z</time>
      </trkpt>
      <trkpt lat="48.77674" lon="2.12011">
        <ele>104.59999847412</ele>
        <time>2021-03-28T07:42:43Z</time>
      </trkpt>
      <trkpt lat="48.7767" lon="2.12029">
        <ele>104.40000152588</ele>
        <time>2021-03-28T07:42:51Z</time>
      </trkpt>
      <trkpt lat="48.77668" lon="2.1204">
        <ele>104.19999694824</ele>
        <time>2021-03-28T07:42:56Z</time>
      </trkpt>
      <trkpt lat="48.77667" lon="2.12052">
        <ele>104.19999694824</ele>
        <time>2021-03-28T07:43:02Z</time>
      </trkpt>
      <trkpt lat="48.77664" lon="2.12065">
        <ele>104.19999694824</ele>
        <time>2021-03-28T07:43:10Z</time>
      </trkpt>
      <trkpt lat="48.77664" lon="2.12067">
        <ele>104.19999694824</ele>
        <time>2021-03-28T07:43:11Z</time>
      </trkpt>
      <trkpt lat="48.77657" lon="2.12086">
        <ele>104.19999694824</ele>
        <time>2021-03-28T07:43:21Z</time>
      </trkpt>
      <trkpt lat="48.77652" lon="2.12105">
        <ele>104.19999694824</ele>
        <time>2021-03-28T07:43:31Z</time>
      </trkpt>
      <trkpt lat="48.77647" lon="2.12118">
        <ele>104.59999847412</ele>
        <time>2021-03-28T07:43:39Z</time>
      </trkpt>
      <trkpt lat="48.77642" lon="2.12132">
        <ele>105</ele>
        <time>2021-03-28T07:43:47Z</time>
      </trkpt>
      <trkpt lat="48.77638" lon="2.12146">
        <ele>105.19999694824</ele>
        <time>2021-03-28T07:43:55Z</time>
      </trkpt>
      <trkpt lat="48.77634" lon="2.12164">
        <ele>105.19999694824</ele>
        <time>2021-03-28T07:44:06Z</time>
      </trkpt>
      <trkpt lat="48.7763" lon="2.12177">
        <ele>105</ele>
        <time>2021-03-28T07:44:13Z</time>
      </trkpt>
      <trkpt lat="48.77629" lon="2.12182">
        <ele>105</ele>
        <time>2021-03-28T07:44:15Z</time>
      </trkpt>
      <trkpt lat="48.77626" lon="2.12193">
        <ele>105</ele>
        <time>2021-03-28T07:44:21Z</time>
      </trkpt>
      <trkpt lat="48.77623" lon="2.12205">
        <ele>104.80000305176</ele>
        <time>2021-03-28T07:44:29Z</time>
      </trkpt>
      <trkpt lat="48.77619" lon="2.12216">
        <ele>104.40000152588</ele>
        <time>2021-03-28T07:44:39Z</time>
      </trkpt>
      <trkpt lat="48.77615" lon="2.12229">
        <ele>104.40000152588</ele>
        <time>2021-03-28T07:44:49Z</time>
      </trkpt>
      <trkpt lat="48.77611" lon="2.12244">
        <ele>104.40000152588</ele>
        <time>2021-03-28T07:45:00Z</time>
      </trkpt>
      <trkpt lat="48.77606" lon="2.12261">
        <ele>104.19999694824</ele>
        <time>2021-03-28T07:45:10Z</time>
      </trkpt>
      <trkpt lat="48.77599" lon="2.12277">
        <ele>103.80000305176</ele>
        <time>2021-03-28T07:45:22Z</time>
      </trkpt>
      <trkpt lat="48.77588" lon="2.12286">
        <ele>104</ele>
        <time>2021-03-28T07:45:33Z</time>
      </trkpt>
      <trkpt lat="48.7758" lon="2.12293">
        <ele>104.40000152588</ele>
        <time>2021-03-28T07:45:44Z</time>
      </trkpt>
      <trkpt lat="48.77569" lon="2.12311">
        <ele>104.80000305176</ele>
        <time>2021-03-28T07:45:54Z</time>
      </trkpt>
      <trkpt lat="48.7756" lon="2.12323">
        <ele>104.80000305176</ele>
        <time>2021-03-28T07:46:04Z</time>
      </trkpt>
      <trkpt lat="48.77555" lon="2.12337">
        <ele>104.40000152588</ele>
        <time>2021-03-28T07:46:16Z</time>
      </trkpt>
      <trkpt lat="48.77552" lon="2.12357">
        <ele>104.59999847412</ele>
        <time>2021-03-28T07:46:25Z</time>
      </trkpt>
      <trkpt lat="48.77548" lon="2.12371">
        <ele>104.40000152588</ele>
        <time>2021-03-28T07:46:36Z</time>
      </trkpt>
      <trkpt lat="48.77543" lon="2.12387">
        <ele>103.80000305176</ele>
        <time>2021-03-28T07:46:47Z</time>
      </trkpt>
      <trkpt lat="48.77537" lon="2.12417">
        <ele>104.19999694824</ele>
        <time>2021-03-28T07:46:59Z</time>
      </trkpt>
      <trkpt lat="48.77526" lon="2.12426">
        <ele>104.19999694824</ele>
        <time>2021-03-28T07:47:12Z</time>
      </trkpt>
      <trkpt lat="48.7753" lon="2.12437">
        <ele>104.40000152588</ele>
        <time>2021-03-28T07:47:19Z</time>
      </trkpt>
      <trkpt lat="48.7753" lon="2.1245">
        <ele>104.59999847412</ele>
        <time>2021-03-28T07:47:27Z</time>
      </trkpt>
      <trkpt lat="48.77528" lon="2.12459">
        <ele>104.59999847412</ele>
        <time>2021-03-28T07:47:35Z</time>
      </trkpt>
      <trkpt lat="48.77527" lon="2.12463">
        <ele>104.59999847412</ele>
        <time>2021-03-28T07:47:38Z</time>
      </trkpt>
      <trkpt lat="48.77522" lon="2.12486">
        <ele>104.80000305176</ele>
        <time>2021-03-28T07:47:49Z</time>
      </trkpt>
      <trkpt lat="48.77517" lon="2.12495">
        <ele>104.80000305176</ele>
        <time>2021-03-28T07:47:57Z</time>
      </trkpt>
      <trkpt lat="48.77515" lon="2.12501">
        <ele>104.59999847412</ele>
        <time>2021-03-28T07:48:06Z</time>
      </trkpt>
      <trkpt lat="48.77516" lon="2.125">
        <ele>104.40000152588</ele>
        <time>2021-03-28T07:48:14Z</time>
      </trkpt>
      <trkpt lat="48.77517" lon="2.12499">
        <ele>104.40000152588</ele>
        <time>2021-03-28T07:48:26Z</time>
      </trkpt>
      <trkpt lat="48.77516" lon="2.12499">
        <ele>104.40000152588</ele>
        <time>2021-03-28T07:48:36Z</time>
      </trkpt>
      <trkpt lat="48.77514" lon="2.12509">
        <ele>104.19999694824</ele>
        <time>2021-03-28T07:48:46Z</time>
      </trkpt>
      <trkpt lat="48.77511" lon="2.12519">
        <ele>104</ele>
        <time>2021-03-28T07:48:53Z</time>
      </trkpt>
      <trkpt lat="48.7751" lon="2.12524">
        <ele>104</ele>
        <time>2021-03-28T07:48:57Z</time>
      </trkpt>
      <trkpt lat="48.77507" lon="2.12535">
        <ele>103.80000305176</ele>
        <time>2021-03-28T07:49:07Z</time>
      </trkpt>
      <trkpt lat="48.77505" lon="2.12548">
        <ele>104</ele>
        <time>2021-03-28T07:49:15Z</time>
      </trkpt>
      <trkpt lat="48.77505" lon="2.12564">
        <ele>104</ele>
        <time>2021-03-28T07:49:24Z</time>
      </trkpt>
      <trkpt lat="48.77505" lon="2.12567">
        <ele>104</ele>
        <time>2021-03-28T07:49:25Z</time>
      </trkpt>
      <trkpt lat="48.7751" lon="2.12584">
        <ele>103.80000305176</ele>
        <time>2021-03-28T07:49:33Z</time>
      </trkpt>
      <trkpt lat="48.77508" lon="2.12595">
        <ele>103.59999847412</ele>
        <time>2021-03-28T07:49:40Z</time>
      </trkpt>
      <trkpt lat="48.77505" lon="2.12604">
        <ele>103.59999847412</ele>
        <time>2021-03-28T07:49:46Z</time>
      </trkpt>
      <trkpt lat="48.77502" lon="2.12613">
        <ele>103.59999847412</ele>
        <time>2021-03-28T07:49:49Z</time>
      </trkpt>
      <trkpt lat="48.77498" lon="2.12624">
        <ele>104</ele>
        <time>2021-03-28T07:49:56Z</time>
      </trkpt>
      <trkpt lat="48.77493" lon="2.12638">
        <ele>104.19999694824</ele>
        <time>2021-03-28T07:50:07Z</time>
      </trkpt>
      <trkpt lat="48.77489" lon="2.12643">
        <ele>105.19999694824</ele>
        <time>2021-03-28T07:50:17Z</time>
      </trkpt>
      <trkpt lat="48.77488" lon="2.12646">
        <ele>105.19999694824</ele>
        <time>2021-03-28T07:50:28Z</time>
      </trkpt>
      <trkpt lat="48.77489" lon="2.1265">
        <ele>105.19999694824</ele>
        <time>2021-03-28T07:50:33Z</time>
      </trkpt>
      <trkpt lat="48.7749" lon="2.12651">
        <ele>105.19999694824</ele>
        <time>2021-03-28T07:50:34Z</time>
      </trkpt>
      <trkpt lat="48.7749" lon="2.12659">
        <ele>105.19999694824</ele>
        <time>2021-03-28T07:50:41Z</time>
      </trkpt>
      <trkpt lat="48.77489" lon="2.12661">
        <ele>105.19999694824</ele>
        <time>2021-03-28T07:50:43Z</time>
      </trkpt>
      <trkpt lat="48.77489" lon="2.12675">
        <ele>104.59999847412</ele>
        <time>2021-03-28T07:50:50Z</time>
      </trkpt>
      <trkpt lat="48.77489" lon="2.12686">
        <ele>104.40000152588</ele>
        <time>2021-03-28T07:50:55Z</time>
      </trkpt>
      <trkpt lat="48.7749" lon="2.127">
        <ele>104.19999694824</ele>
        <time>2021-03-28T07:51:05Z</time>
      </trkpt>
      <trkpt lat="48.77488" lon="2.1271">
        <ele>104.19999694824</ele>
        <time>2021-03-28T07:51:14Z</time>
      </trkpt>
      <trkpt lat="48.77487" lon="2.12724">
        <ele>104.59999847412</ele>
        <time>2021-03-28T07:51:27Z</time>
      </trkpt>
      <trkpt lat="48.77484" lon="2.12736">
        <ele>105</ele>
        <time>2021-03-28T07:51:40Z</time>
      </trkpt>
      <trkpt lat="48.77481" lon="2.12747">
        <ele>105</ele>
        <time>2021-03-28T07:51:51Z</time>
      </trkpt>
      <trkpt lat="48.7748" lon="2.12773">
        <ele>104.80000305176</ele>
        <time>2021-03-28T07:52:05Z</time>
      </trkpt>
      <trkpt lat="48.77478" lon="2.12804">
        <ele>104.59999847412</ele>
        <time>2021-03-28T07:52:17Z</time>
      </trkpt>
      <trkpt lat="48.77471" lon="2.12838">
        <ele>104.40000152588</ele>
        <time>2021-03-28T07:52:29Z</time>
      </trkpt>
      <trkpt lat="48.77477" lon="2.12846">
        <ele>103.80000305176</ele>
        <time>2021-03-28T07:52:38Z</time>
      </trkpt>
      <trkpt lat="48.77482" lon="2.1285">
        <ele>103.40000152588</ele>
        <time>2021-03-28T07:52:44Z</time>
      </trkpt>
      <trkpt lat="48.77487" lon="2.12854">
        <ele>102.59999847412</ele>
        <time>2021-03-28T07:52:50Z</time>
      </trkpt>
      <trkpt lat="48.77494" lon="2.1286">
        <ele>102.19999694824</ele>
        <time>2021-03-28T07:52:55Z</time>
      </trkpt>
      <trkpt lat="48.77501" lon="2.12863">
        <ele>101.59999847412</ele>
        <time>2021-03-28T07:53:02Z</time>
      </trkpt>
      <trkpt lat="48.7751" lon="2.12869">
        <ele>101.19999694824</ele>
        <time>2021-03-28T07:53:11Z</time>
      </trkpt>
      <trkpt lat="48.77513" lon="2.12871">
        <ele>101.19999694824</ele>
        <time>2021-03-28T07:53:14Z</time>
      </trkpt>
      <trkpt lat="48.77516" lon="2.12892">
        <ele>100.80000305176</ele>
        <time>2021-03-28T07:53:23Z</time>
      </trkpt>
      <trkpt lat="48.7751" lon="2.12904">
        <ele>100.59999847412</ele>
        <time>2021-03-28T07:53:35Z</time>
      </trkpt>
      <trkpt lat="48.77503" lon="2.12919">
        <ele>100.40000152588</ele>
        <time>2021-03-28T07:53:47Z</time>
      </trkpt>
      <trkpt lat="48.77496" lon="2.12936">
        <ele>100.40000152588</ele>
        <time>2021-03-28T07:53:58Z</time>
      </trkpt>
      <trkpt lat="48.7749" lon="2.12945">
        <ele>100.40000152588</ele>
        <time>2021-03-28T07:54:10Z</time>
      </trkpt>
      <trkpt lat="48.77483" lon="2.12976">
        <ele>100.19999694824</ele>
        <time>2021-03-28T07:54:23Z</time>
      </trkpt>
      <trkpt lat="48.77482" lon="2.12977">
        <ele>100.19999694824</ele>
        <time>2021-03-28T07:54:24Z</time>
      </trkpt>
      <trkpt lat="48.77477" lon="2.12991">
        <ele>99.599998474121</ele>
        <time>2021-03-28T07:54:35Z</time>
      </trkpt>
      <trkpt lat="48.77474" lon="2.13001">
        <ele>99.400001525879</ele>
        <time>2021-03-28T07:54:47Z</time>
      </trkpt>
      <trkpt lat="48.77473" lon="2.13015">
        <ele>99.599998474121</ele>
        <time>2021-03-28T07:54:59Z</time>
      </trkpt>
      <trkpt lat="48.77468" lon="2.13037">
        <ele>99.599998474121</ele>
        <time>2021-03-28T07:55:13Z</time>
      </trkpt>
      <trkpt lat="48.77459" lon="2.13071">
        <ele>99.800003051758</ele>
        <time>2021-03-28T07:55:25Z</time>
      </trkpt>
      <trkpt lat="48.77446" lon="2.13091">
        <ele>99.800003051758</ele>
        <time>2021-03-28T07:55:36Z</time>
      </trkpt>
      <trkpt lat="48.7743" lon="2.13099">
        <ele>99.599998474121</ele>
        <time>2021-03-28T07:55:48Z</time>
      </trkpt>
      <trkpt lat="48.77415" lon="2.13101">
        <ele>99.400001525879</ele>
        <time>2021-03-28T07:56:02Z</time>
      </trkpt>
      <trkpt lat="48.77407" lon="2.13097">
        <ele>99.800003051758</ele>
        <time>2021-03-28T07:56:12Z</time>
      </trkpt>
      <trkpt lat="48.77396" lon="2.131">
        <ele>100</ele>
        <time>2021-03-28T07:56:21Z</time>
      </trkpt>
      <trkpt lat="48.77389" lon="2.13107">
        <ele>100</ele>
        <time>2021-03-28T07:56:30Z</time>
      </trkpt>
      <trkpt lat="48.77349" lon="2.13148">
        <ele>103</ele>
      </trkpt>
      <trkpt lat="48.77317" lon="2.13203">
        <ele>99.800003051758</ele>
        <time>2021-03-28T07:56:36Z</time>
      </trkpt>
      <trkpt lat="48.77313" lon="2.13212">
        <ele>95.800003051758</ele>
        <time>2021-03-28T07:57:57Z</time>
      </trkpt>
      <trkpt lat="48.77304" lon="2.13225">
        <ele>96.599998474121</ele>
        <time>2021-03-28T07:58:08Z</time>
      </trkpt>
      <trkpt lat="48.77303" lon="2.13226">
        <ele>96.800003051758</ele>
        <time>2021-03-28T07:58:10Z</time>
      </trkpt>
      <trkpt lat="48.77293" lon="2.13228">
        <ele>98</ele>
        <time>2021-03-28T07:58:20Z</time>
      </trkpt>
      <trkpt lat="48.77291" lon="2.13228">
        <ele>98</ele>
        <time>2021-03-28T07:58:22Z</time>
      </trkpt>
      <trkpt lat="48.77281" lon="2.13229">
        <ele>98.400001525879</ele>
        <time>2021-03-28T07:58:37Z</time>
      </trkpt>
      <trkpt lat="48.77276" lon="2.13227">
        <ele>98.800003051758</ele>
        <time>2021-03-28T07:58:44Z</time>
      </trkpt>
      <trkpt lat="48.77272" lon="2.13224">
        <ele>99</ele>
        <time>2021-03-28T07:58:50Z</time>
      </trkpt>
      <trkpt lat="48.77252" lon="2.13198">
        <ele>99.599998474121</ele>
        <time>2021-03-28T07:59:02Z</time>
      </trkpt>
      <trkpt lat="48.77251" lon="2.13192">
        <ele>99.599998474121</ele>
        <time>2021-03-28T07:59:06Z</time>
      </trkpt>
      <trkpt lat="48.77247" lon="2.13176">
        <ele>99.800003051758</ele>
        <time>2021-03-28T07:59:14Z</time>
      </trkpt>
      <trkpt lat="48.77243" lon="2.13158">
        <ele>100.59999847412</ele>
        <time>2021-03-28T07:59:29Z</time>
      </trkpt>
      <trkpt lat="48.77232" lon="2.13149">
        <ele>101.59999847412</ele>
        <time>2021-03-28T07:59:38Z</time>
      </trkpt>
      <trkpt lat="48.77227" lon="2.13143">
        <ele>102.40000152588</ele>
        <time>2021-03-28T07:59:43Z</time>
      </trkpt>
      <trkpt lat="48.77227" lon="2.13143">
        <ele>102.59999847412</ele>
        <time>2021-03-28T07:59:44Z</time>
      </trkpt>
      <trkpt lat="48.77224" lon="2.13146">
        <ele>103.59999847412</ele>
        <time>2021-03-28T07:59:56Z</time>
      </trkpt>
      <trkpt lat="48.77223" lon="2.13153">
        <ele>103.59999847412</ele>
        <time>2021-03-28T08:00:05Z</time>
      </trkpt>
      <trkpt lat="48.77223" lon="2.13154">
        <ele>103.59999847412</ele>
        <time>2021-03-28T08:00:10Z</time>
      </trkpt>
      <trkpt lat="48.77223" lon="2.13154">
        <ele>103.59999847412</ele>
        <time>2021-03-28T08:00:21Z</time>
      </trkpt>
      <trkpt lat="48.7722" lon="2.13146">
        <ele>103.80000305176</ele>
        <time>2021-03-28T08:00:33Z</time>
      </trkpt>
      <trkpt lat="48.77217" lon="2.1314">
        <ele>104.59999847412</ele>
        <time>2021-03-28T08:00:40Z</time>
      </trkpt>
      <trkpt lat="48.77213" lon="2.13135">
        <ele>105.59999847412</ele>
        <time>2021-03-28T08:00:50Z</time>
      </trkpt>
      <trkpt lat="48.77206" lon="2.13127">
        <ele>106.59999847412</ele>
        <time>2021-03-28T08:00:56Z</time>
      </trkpt>
      <trkpt lat="48.77201" lon="2.13121">
        <ele>107.19999694824</ele>
        <time>2021-03-28T08:01:02Z</time>
      </trkpt>
      <trkpt lat="48.77196" lon="2.13115">
        <ele>107.59999847412</ele>
        <time>2021-03-28T08:01:05Z</time>
      </trkpt>
      <trkpt lat="48.77182" lon="2.13095">
        <ele>108.19999694824</ele>
        <time>2021-03-28T08:01:17Z</time>
      </trkpt>
      <trkpt lat="48.7718" lon="2.13094">
        <ele>108.80000305176</ele>
        <time>2021-03-28T08:01:19Z</time>
      </trkpt>
      <trkpt lat="48.7717" lon="2.13084">
        <ele>109.80000305176</ele>
        <time>2021-03-28T08:01:27Z</time>
      </trkpt>
      <trkpt lat="48.77165" lon="2.1308">
        <ele>110</ele>
        <time>2021-03-28T08:01:31Z</time>
      </trkpt>
      <trkpt lat="48.77159" lon="2.13074">
        <ele>110.80000305176</ele>
        <time>2021-03-28T08:01:37Z</time>
      </trkpt>
      <trkpt lat="48.77151" lon="2.13068">
        <ele>111.59999847412</ele>
        <time>2021-03-28T08:01:45Z</time>
      </trkpt>
      <trkpt lat="48.7715" lon="2.13067">
        <ele>111.80000305176</ele>
        <time>2021-03-28T08:01:46Z</time>
      </trkpt>
      <trkpt lat="48.77144" lon="2.13067">
        <ele>112.80000305176</ele>
        <time>2021-03-28T08:01:54Z</time>
      </trkpt>
      <trkpt lat="48.77142" lon="2.13068">
        <ele>113</ele>
        <time>2021-03-28T08:01:56Z</time>
      </trkpt>
      <trkpt lat="48.77139" lon="2.1307">
        <ele>113.80000305176</ele>
        <time>2021-03-28T08:02:00Z</time>
      </trkpt>
      <trkpt lat="48.77131" lon="2.13069">
        <ele>115</ele>
        <time>2021-03-28T08:02:07Z</time>
      </trkpt>
      <trkpt lat="48.77129" lon="2.13071">
        <ele>115.40000152588</ele>
        <time>2021-03-28T08:02:12Z</time>
      </trkpt>
      <trkpt lat="48.77129" lon="2.13075">
        <ele>116</ele>
        <time>2021-03-28T08:02:17Z</time>
      </trkpt>
      <trkpt lat="48.77128" lon="2.13089">
        <ele>117</ele>
        <time>2021-03-28T08:02:28Z</time>
      </trkpt>
      <trkpt lat="48.77129" lon="2.1309">
        <ele>117</ele>
        <time>2021-03-28T08:02:29Z</time>
      </trkpt>
      <trkpt lat="48.77129" lon="2.13099">
        <ele>118.19999694824</ele>
        <time>2021-03-28T08:02:35Z</time>
      </trkpt>
      <trkpt lat="48.77129" lon="2.13112">
        <ele>119.40000152588</ele>
        <time>2021-03-28T08:02:44Z</time>
      </trkpt>
      <trkpt lat="48.77129" lon="2.13114">
        <ele>119.40000152588</ele>
        <time>2021-03-28T08:02:45Z</time>
      </trkpt>
      <trkpt lat="48.77132" lon="2.13131">
        <ele>119.59999847412</ele>
        <time>2021-03-28T08:02:56Z</time>
      </trkpt>
      <trkpt lat="48.77142" lon="2.1315">
        <ele>118.59999847412</ele>
        <time>2021-03-28T08:03:10Z</time>
      </trkpt>
      <trkpt lat="48.77144" lon="2.13154">
        <ele>118.59999847412</ele>
        <time>2021-03-28T08:03:12Z</time>
      </trkpt>
      <trkpt lat="48.7715" lon="2.13168">
        <ele>118.19999694824</ele>
        <time>2021-03-28T08:03:19Z</time>
      </trkpt>
      <trkpt lat="48.77152" lon="2.13176">
        <ele>118.19999694824</ele>
        <time>2021-03-28T08:03:23Z</time>
      </trkpt>
      <trkpt lat="48.7716" lon="2.13205">
        <ele>118</ele>
        <time>2021-03-28T08:03:37Z</time>
      </trkpt>
      <trkpt lat="48.77159" lon="2.13213">
        <ele>118.59999847412</ele>
        <time>2021-03-28T08:03:47Z</time>
      </trkpt>
      <trkpt lat="48.77158" lon="2.13214">
        <ele>118.59999847412</ele>
        <time>2021-03-28T08:03:59Z</time>
      </trkpt>
      <trkpt lat="48.77154" lon="2.13223">
        <ele>118.80000305176</ele>
        <time>2021-03-28T08:04:05Z</time>
      </trkpt>
      <trkpt lat="48.77151" lon="2.13226">
        <ele>119.19999694824</ele>
        <time>2021-03-28T08:04:08Z</time>
      </trkpt>
      <trkpt lat="48.77147" lon="2.13228">
        <ele>119.40000152588</ele>
        <time>2021-03-28T08:04:12Z</time>
      </trkpt>
      <trkpt lat="48.77142" lon="2.13224">
        <ele>119.19999694824</ele>
        <time>2021-03-28T08:04:20Z</time>
      </trkpt>
      <trkpt lat="48.77136" lon="2.13224">
        <ele>118.19999694824</ele>
        <time>2021-03-28T08:04:25Z</time>
      </trkpt>
      <trkpt lat="48.77135" lon="2.13225">
        <ele>117.59999847412</ele>
        <time>2021-03-28T08:04:29Z</time>
      </trkpt>
      <trkpt lat="48.77135" lon="2.13225">
        <ele>117.19999694824</ele>
        <time>2021-03-28T08:04:32Z</time>
      </trkpt>
      <trkpt lat="48.77136" lon="2.13225">
        <ele>116.59999847412</ele>
        <time>2021-03-28T08:04:39Z</time>
      </trkpt>
      <trkpt lat="48.77143" lon="2.13231">
        <ele>116.40000152588</ele>
        <time>2021-03-28T08:04:51Z</time>
      </trkpt>
      <trkpt lat="48.77144" lon="2.13236">
        <ele>116.19999694824</ele>
        <time>2021-03-28T08:04:59Z</time>
      </trkpt>
      <trkpt lat="48.77144" lon="2.13236">
        <ele>116.19999694824</ele>
        <time>2021-03-28T08:05:01Z</time>
      </trkpt>
      <trkpt lat="48.77146" lon="2.13242">
        <ele>115.80000305176</ele>
        <time>2021-03-28T08:05:15Z</time>
      </trkpt>
      <trkpt lat="48.77145" lon="2.13244">
        <ele>115.80000305176</ele>
        <time>2021-03-28T08:05:28Z</time>
      </trkpt>
      <trkpt lat="48.77147" lon="2.13248">
        <ele>115.59999847412</ele>
        <time>2021-03-28T08:05:38Z</time>
      </trkpt>
      <trkpt lat="48.77138" lon="2.13258">
        <ele>115.19999694824</ele>
        <time>2021-03-28T08:05:50Z</time>
      </trkpt>
      <trkpt lat="48.77136" lon="2.13261">
        <ele>115.19999694824</ele>
        <time>2021-03-28T08:05:53Z</time>
      </trkpt>
      <trkpt lat="48.77135" lon="2.13263">
        <ele>115</ele>
        <time>2021-03-28T08:05:54Z</time>
      </trkpt>
      <trkpt lat="48.7713" lon="2.13271">
        <ele>114</ele>
        <time>2021-03-28T08:06:02Z</time>
      </trkpt>
      <trkpt lat="48.77123" lon="2.13289">
        <ele>113.19999694824</ele>
        <time>2021-03-28T08:06:13Z</time>
      </trkpt>
      <trkpt lat="48.77122" lon="2.13291">
        <ele>113</ele>
        <time>2021-03-28T08:06:14Z</time>
      </trkpt>
      <trkpt lat="48.77118" lon="2.13304">
        <ele>112</ele>
        <time>2021-03-28T08:06:23Z</time>
      </trkpt>
      <trkpt lat="48.77116" lon="2.13309">
        <ele>111.19999694824</ele>
        <time>2021-03-28T08:06:27Z</time>
      </trkpt>
      <trkpt lat="48.77115" lon="2.13312">
        <ele>111</ele>
        <time>2021-03-28T08:06:29Z</time>
      </trkpt>
      <trkpt lat="48.77112" lon="2.13329">
        <ele>110.40000152588</ele>
        <time>2021-03-28T08:06:40Z</time>
      </trkpt>
      <trkpt lat="48.77108" lon="2.13341">
        <ele>109.80000305176</ele>
        <time>2021-03-28T08:06:46Z</time>
      </trkpt>
      <trkpt lat="48.77108" lon="2.13349">
        <ele>109.59999847412</ele>
        <time>2021-03-28T08:06:49Z</time>
      </trkpt>
      <trkpt lat="48.77105" lon="2.13365">
        <ele>109</ele>
        <time>2021-03-28T08:07:00Z</time>
      </trkpt>
      <trkpt lat="48.77104" lon="2.13369">
        <ele>108.59999847412</ele>
        <time>2021-03-28T08:07:03Z</time>
      </trkpt>
      <trkpt lat="48.771" lon="2.13392">
        <ele>107.80000305176</ele>
        <time>2021-03-28T08:07:14Z</time>
      </trkpt>
      <trkpt lat="48.771" lon="2.13397">
        <ele>107.59999847412</ele>
        <time>2021-03-28T08:07:17Z</time>
      </trkpt>
      <trkpt lat="48.77097" lon="2.13406">
        <ele>107</ele>
        <time>2021-03-28T08:07:25Z</time>
      </trkpt>
      <trkpt lat="48.77096" lon="2.1341">
        <ele>106.59999847412</ele>
        <time>2021-03-28T08:07:28Z</time>
      </trkpt>
      <trkpt lat="48.77095" lon="2.13419">
        <ele>106</ele>
        <time>2021-03-28T08:07:34Z</time>
      </trkpt>
      <trkpt lat="48.77093" lon="2.13425">
        <ele>105.59999847412</ele>
        <time>2021-03-28T08:07:39Z</time>
      </trkpt>
      <trkpt lat="48.7709" lon="2.13432">
        <ele>105.40000152588</ele>
        <time>2021-03-28T08:07:43Z</time>
      </trkpt>
      <trkpt lat="48.77084" lon="2.13448">
        <ele>104.59999847412</ele>
        <time>2021-03-28T08:07:57Z</time>
      </trkpt>
      <trkpt lat="48.77083" lon="2.13451">
        <ele>104.59999847412</ele>
        <time>2021-03-28T08:07:58Z</time>
      </trkpt>
      <trkpt lat="48.77078" lon="2.13467">
        <ele>104.19999694824</ele>
        <time>2021-03-28T08:08:09Z</time>
      </trkpt>
      <trkpt lat="48.77071" lon="2.13501">
        <ele>104</ele>
        <time>2021-03-28T08:08:22Z</time>
      </trkpt>
      <trkpt lat="48.7707" lon="2.13516">
        <ele>104.40000152588</ele>
        <time>2021-03-28T08:08:31Z</time>
      </trkpt>
      <trkpt lat="48.77069" lon="2.13537">
        <ele>105.40000152588</ele>
        <time>2021-03-28T08:08:44Z</time>
      </trkpt>
      <trkpt lat="48.77068" lon="2.13538">
        <ele>105.59999847412</ele>
        <time>2021-03-28T08:08:45Z</time>
      </trkpt>
      <trkpt lat="48.77067" lon="2.13547">
        <ele>106.80000305176</ele>
        <time>2021-03-28T08:08:51Z</time>
      </trkpt>
      <trkpt lat="48.77065" lon="2.13558">
        <ele>108</ele>
        <time>2021-03-28T08:08:59Z</time>
      </trkpt>
      <trkpt lat="48.77064" lon="2.13571">
        <ele>109.19999694824</ele>
        <time>2021-03-28T08:09:07Z</time>
      </trkpt>
      <trkpt lat="48.77064" lon="2.13582">
        <ele>109.80000305176</ele>
        <time>2021-03-28T08:09:12Z</time>
      </trkpt>
      <trkpt lat="48.77064" lon="2.13589">
        <ele>110.40000152588</ele>
        <time>2021-03-28T08:09:15Z</time>
      </trkpt>
      <trkpt lat="48.77063" lon="2.13605">
        <ele>111.19999694824</ele>
        <time>2021-03-28T08:09:27Z</time>
      </trkpt>
      <trkpt lat="48.77063" lon="2.13623">
        <ele>110.19999694824</ele>
        <time>2021-03-28T08:09:41Z</time>
      </trkpt>
      <trkpt lat="48.77061" lon="2.13639">
        <ele>109.19999694824</ele>
        <time>2021-03-28T08:09:50Z</time>
      </trkpt>
      <trkpt lat="48.77058" lon="2.13657">
        <ele>108.80000305176</ele>
        <time>2021-03-28T08:09:58Z</time>
      </trkpt>
      <trkpt lat="48.77054" lon="2.13687">
        <ele>108.19999694824</ele>
        <time>2021-03-28T08:10:10Z</time>
      </trkpt>
      <trkpt lat="48.77053" lon="2.13689">
        <ele>108.19999694824</ele>
        <time>2021-03-28T08:10:11Z</time>
      </trkpt>
      <trkpt lat="48.77046" lon="2.13711">
        <ele>108</ele>
        <time>2021-03-28T08:10:23Z</time>
      </trkpt>
      <trkpt lat="48.77042" lon="2.13718">
        <ele>107.40000152588</ele>
        <time>2021-03-28T08:10:30Z</time>
      </trkpt>
      <trkpt lat="48.7704" lon="2.13719">
        <ele>107</ele>
        <time>2021-03-28T08:10:33Z</time>
      </trkpt>
      <trkpt lat="48.77034" lon="2.13722">
        <ele>106.40000152588</ele>
        <time>2021-03-28T08:10:43Z</time>
      </trkpt>
      <trkpt lat="48.77025" lon="2.1372">
        <ele>106.40000152588</ele>
        <time>2021-03-28T08:10:53Z</time>
      </trkpt>
      <trkpt lat="48.77009" lon="2.13719">
        <ele>106.59999847412</ele>
        <time>2021-03-28T08:11:03Z</time>
      </trkpt>
      <trkpt lat="48.76996" lon="2.1372">
        <ele>107.59999847412</ele>
        <time>2021-03-28T08:11:15Z</time>
      </trkpt>
      <trkpt lat="48.76991" lon="2.1373">
        <ele>108.19999694824</ele>
        <time>2021-03-28T08:11:25Z</time>
      </trkpt>
      <trkpt lat="48.76987" lon="2.13752">
        <ele>108.40000152588</ele>
        <time>2021-03-28T08:11:32Z</time>
      </trkpt>
      <trkpt lat="48.76984" lon="2.13758">
        <ele>108.40000152588</ele>
        <time>2021-03-28T08:11:37Z</time>
      </trkpt>
      <trkpt lat="48.76977" lon="2.13769">
        <ele>109.40000152588</ele>
        <time>2021-03-28T08:11:49Z</time>
      </trkpt>
      <trkpt lat="48.76971" lon="2.13783">
        <ele>110.40000152588</ele>
        <time>2021-03-28T08:11:59Z</time>
      </trkpt>
      <trkpt lat="48.76964" lon="2.1379">
        <ele>111.40000152588</ele>
        <time>2021-03-28T08:12:10Z</time>
      </trkpt>
      <trkpt lat="48.76959" lon="2.13798">
        <ele>111</ele>
        <time>2021-03-28T08:12:22Z</time>
      </trkpt>
      <trkpt lat="48.76953" lon="2.13807">
        <ele>109.40000152588</ele>
        <time>2021-03-28T08:12:32Z</time>
      </trkpt>
      <trkpt lat="48.76952" lon="2.1381">
        <ele>109.19999694824</ele>
        <time>2021-03-28T08:12:34Z</time>
      </trkpt>
      <trkpt lat="48.76951" lon="2.13835">
        <ele>108</ele>
        <time>2021-03-28T08:12:39Z</time>
      </trkpt>
      <trkpt lat="48.76952" lon="2.13847">
        <ele>107.59999847412</ele>
        <time>2021-03-28T08:12:42Z</time>
      </trkpt>
      <trkpt lat="48.76951" lon="2.13862">
        <ele>107.40000152588</ele>
        <time>2021-03-28T08:12:54Z</time>
      </trkpt>
      <trkpt lat="48.76952" lon="2.13862">
        <ele>107.40000152588</ele>
        <time>2021-03-28T08:13:06Z</time>
      </trkpt>
      <trkpt lat="48.76952" lon="2.13862">
        <ele>107.40000152588</ele>
        <time>2021-03-28T08:13:14Z</time>
      </trkpt>
      <trkpt lat="48.76952" lon="2.13862">
        <ele>107.40000152588</ele>
        <time>2021-03-28T08:13:22Z</time>
      </trkpt>
      <trkpt lat="48.76952" lon="2.13866">
        <ele>107.40000152588</ele>
        <time>2021-03-28T08:13:31Z</time>
      </trkpt>
      <trkpt lat="48.76954" lon="2.13874">
        <ele>106.80000305176</ele>
        <time>2021-03-28T08:13:38Z</time>
      </trkpt>
      <trkpt lat="48.76954" lon="2.13878">
        <ele>106.40000152588</ele>
        <time>2021-03-28T08:13:42Z</time>
      </trkpt>
      <trkpt lat="48.76954" lon="2.13883">
        <ele>105.80000305176</ele>
        <time>2021-03-28T08:13:46Z</time>
      </trkpt>
      <trkpt lat="48.76954" lon="2.13896">
        <ele>105</ele>
        <time>2021-03-28T08:13:55Z</time>
      </trkpt>
      <trkpt lat="48.76954" lon="2.13902">
        <ele>104.80000305176</ele>
        <time>2021-03-28T08:13:57Z</time>
      </trkpt>
      <trkpt lat="48.76957" lon="2.1392">
        <ele>104</ele>
        <time>2021-03-28T08:14:06Z</time>
      </trkpt>
      <trkpt lat="48.7696" lon="2.13927">
        <ele>103.80000305176</ele>
        <time>2021-03-28T08:14:09Z</time>
      </trkpt>
      <trkpt lat="48.76965" lon="2.1394">
        <ele>102.59999847412</ele>
        <time>2021-03-28T08:14:15Z</time>
      </trkpt>
      <trkpt lat="48.76969" lon="2.13949">
        <ele>101.59999847412</ele>
        <time>2021-03-28T08:14:21Z</time>
      </trkpt>
      <trkpt lat="48.76973" lon="2.13959">
        <ele>100.80000305176</ele>
        <time>2021-03-28T08:14:27Z</time>
      </trkpt>
      <trkpt lat="48.76975" lon="2.13962">
        <ele>100.59999847412</ele>
        <time>2021-03-28T08:14:29Z</time>
      </trkpt>
      <trkpt lat="48.76983" lon="2.13972">
        <ele>99.400001525879</ele>
        <time>2021-03-28T08:14:38Z</time>
      </trkpt>
      <trkpt lat="48.76984" lon="2.13974">
        <ele>99.199996948242</ele>
        <time>2021-03-28T08:14:39Z</time>
      </trkpt>
      <trkpt lat="48.76989" lon="2.13982">
        <ele>98.400001525879</ele>
        <time>2021-03-28T08:14:46Z</time>
      </trkpt>
      <trkpt lat="48.7699" lon="2.13988">
        <ele>98</ele>
        <time>2021-03-28T08:14:50Z</time>
      </trkpt>
      <trkpt lat="48.76989" lon="2.13996">
        <ele>97.400001525879</ele>
        <time>2021-03-28T08:14:54Z</time>
      </trkpt>
      <trkpt lat="48.76988" lon="2.13999">
        <ele>96.599998474121</ele>
        <time>2021-03-28T08:15:02Z</time>
      </trkpt>
      <trkpt lat="48.76991" lon="2.14003">
        <ele>96.599998474121</ele>
        <time>2021-03-28T08:15:09Z</time>
      </trkpt>
      <trkpt lat="48.76997" lon="2.1401">
        <ele>96.199996948242</ele>
        <time>2021-03-28T08:15:15Z</time>
      </trkpt>
      <trkpt lat="48.77002" lon="2.14014">
        <ele>95.800003051758</ele>
        <time>2021-03-28T08:15:19Z</time>
      </trkpt>
      <trkpt lat="48.77006" lon="2.14019">
        <ele>95.199996948242</ele>
        <time>2021-03-28T08:15:23Z</time>
      </trkpt>
      <trkpt lat="48.7701" lon="2.14024">
        <ele>94.800003051758</ele>
        <time>2021-03-28T08:15:27Z</time>
      </trkpt>
      <trkpt lat="48.77016" lon="2.14032">
        <ele>94.199996948242</ele>
        <time>2021-03-28T08:15:34Z</time>
      </trkpt>
      <trkpt lat="48.77021" lon="2.14039">
        <ele>93</ele>
        <time>2021-03-28T08:15:40Z</time>
      </trkpt>
      <trkpt lat="48.77023" lon="2.14041">
        <ele>92.800003051758</ele>
        <time>2021-03-28T08:15:42Z</time>
      </trkpt>
      <trkpt lat="48.77029" lon="2.14047">
        <ele>92</ele>
        <time>2021-03-28T08:15:49Z</time>
      </trkpt>
      <trkpt lat="48.77031" lon="2.14049">
        <ele>91.800003051758</ele>
        <time>2021-03-28T08:15:51Z</time>
      </trkpt>
      <trkpt lat="48.77037" lon="2.14057">
        <ele>91</ele>
        <time>2021-03-28T08:15:59Z</time>
      </trkpt>
      <trkpt lat="48.77038" lon="2.14058">
        <ele>91</ele>
        <time>2021-03-28T08:16:00Z</time>
      </trkpt>
      <trkpt lat="48.77049" lon="2.14065">
        <ele>90.599998474121</ele>
        <time>2021-03-28T08:16:09Z</time>
      </trkpt>
      <trkpt lat="48.77058" lon="2.14073">
        <ele>90.400001525879</ele>
        <time>2021-03-28T08:16:18Z</time>
      </trkpt>
      <trkpt lat="48.77068" lon="2.14084">
        <ele>90</ele>
        <time>2021-03-28T08:16:30Z</time>
      </trkpt>
      <trkpt lat="48.7707" lon="2.14086">
        <ele>90</ele>
        <time>2021-03-28T08:16:33Z</time>
      </trkpt>
      <trkpt lat="48.77075" lon="2.141">
        <ele>89.599998474121</ele>
        <time>2021-03-28T08:16:42Z</time>
      </trkpt>
      <trkpt lat="48.77079" lon="2.14108">
        <ele>89.400001525879</ele>
        <time>2021-03-28T08:16:54Z</time>
      </trkpt>
      <trkpt lat="48.77085" lon="2.14106">
        <ele>89.400001525879</ele>
        <time>2021-03-28T08:17:00Z</time>
      </trkpt>
      <trkpt lat="48.77089" lon="2.14111">
        <ele>89.400001525879</ele>
        <time>2021-03-28T08:17:05Z</time>
      </trkpt>
      <trkpt lat="48.77098" lon="2.14116">
        <ele>89.400001525879</ele>
        <time>2021-03-28T08:17:16Z</time>
      </trkpt>
      <trkpt lat="48.77114" lon="2.1411">
        <ele>89.599998474121</ele>
        <time>2021-03-28T08:17:29Z</time>
      </trkpt>
      <trkpt lat="48.77116" lon="2.14117">
        <ele>90.599998474121</ele>
        <time>2021-03-28T08:17:39Z</time>
      </trkpt>
      <trkpt lat="48.77116" lon="2.1412">
        <ele>91</ele>
        <time>2021-03-28T08:17:42Z</time>
      </trkpt>
      <trkpt lat="48.77114" lon="2.14133">
        <ele>91</ele>
        <time>2021-03-28T08:17:53Z</time>
      </trkpt>
      <trkpt lat="48.77108" lon="2.1415">
        <ele>90.800003051758</ele>
        <time>2021-03-28T08:18:06Z</time>
      </trkpt>
      <trkpt lat="48.77105" lon="2.14158">
        <ele>90</ele>
        <time>2021-03-28T08:18:12Z</time>
      </trkpt>
      <trkpt lat="48.771" lon="2.14169">
        <ele>89.800003051758</ele>
        <time>2021-03-28T08:18:20Z</time>
      </trkpt>
      <trkpt lat="48.77096" lon="2.14189">
        <ele>89.599998474121</ele>
        <time>2021-03-28T08:18:33Z</time>
      </trkpt>
      <trkpt lat="48.77085" lon="2.14208">
        <ele>89</ele>
        <time>2021-03-28T08:18:45Z</time>
      </trkpt>
      <trkpt lat="48.77083" lon="2.14215">
        <ele>88.800003051758</ele>
        <time>2021-03-28T08:18:49Z</time>
      </trkpt>
      <trkpt lat="48.77078" lon="2.1423">
        <ele>88.800003051758</ele>
        <time>2021-03-28T08:18:58Z</time>
      </trkpt>
      <trkpt lat="48.77066" lon="2.14253">
        <ele>89.199996948242</ele>
        <time>2021-03-28T08:19:12Z</time>
      </trkpt>
      <trkpt lat="48.77056" lon="2.14272">
        <ele>89.400001525879</ele>
        <time>2021-03-28T08:19:24Z</time>
      </trkpt>
      <trkpt lat="48.77045" lon="2.14292">
        <ele>89.599998474121</ele>
        <time>2021-03-28T08:19:35Z</time>
      </trkpt>
      <trkpt lat="48.77038" lon="2.14307">
        <ele>89.400001525879</ele>
        <time>2021-03-28T08:19:48Z</time>
      </trkpt>
      <trkpt lat="48.77032" lon="2.14322">
        <ele>89.199996948242</ele>
        <time>2021-03-28T08:20:00Z</time>
      </trkpt>
      <trkpt lat="48.77025" lon="2.14339">
        <ele>88.599998474121</ele>
        <time>2021-03-28T08:20:13Z</time>
      </trkpt>
      <trkpt lat="48.77021" lon="2.14358">
        <ele>88.400001525879</ele>
        <time>2021-03-28T08:20:26Z</time>
      </trkpt>
      <trkpt lat="48.77011" lon="2.14383">
        <ele>88.400001525879</ele>
        <time>2021-03-28T08:20:37Z</time>
      </trkpt>
      <trkpt lat="48.77006" lon="2.14402">
        <ele>88.400001525879</ele>
        <time>2021-03-28T08:20:45Z</time>
      </trkpt>
      <trkpt lat="48.76997" lon="2.14418">
        <ele>88.599998474121</ele>
        <time>2021-03-28T08:20:56Z</time>
      </trkpt>
      <trkpt lat="48.76991" lon="2.14436">
        <ele>88.400001525879</ele>
        <time>2021-03-28T08:21:07Z</time>
      </trkpt>
      <trkpt lat="48.76984" lon="2.14455">
        <ele>88.800003051758</ele>
        <time>2021-03-28T08:21:20Z</time>
      </trkpt>
      <trkpt lat="48.76976" lon="2.1448">
        <ele>89</ele>
        <time>2021-03-28T08:21:34Z</time>
      </trkpt>
      <trkpt lat="48.76971" lon="2.14489">
        <ele>89.199996948242</ele>
        <time>2021-03-28T08:21:40Z</time>
      </trkpt>
      <trkpt lat="48.76965" lon="2.14498">
        <ele>89.199996948242</ele>
        <time>2021-03-28T08:21:46Z</time>
      </trkpt>
      <trkpt lat="48.76956" lon="2.14496">
        <ele>89.199996948242</ele>
        <time>2021-03-28T08:21:59Z</time>
      </trkpt>
      <trkpt lat="48.76944" lon="2.14488">
        <ele>89.199996948242</ele>
        <time>2021-03-28T08:22:11Z</time>
      </trkpt>
      <trkpt lat="48.76934" lon="2.14475">
        <ele>89.199996948242</ele>
        <time>2021-03-28T08:22:21Z</time>
      </trkpt>
      <trkpt lat="48.76931" lon="2.14471">
        <ele>89.199996948242</ele>
        <time>2021-03-28T08:22:24Z</time>
      </trkpt>
      <trkpt lat="48.76915" lon="2.1445">
        <ele>89.400001525879</ele>
        <time>2021-03-28T08:22:38Z</time>
      </trkpt>
      <trkpt lat="48.76912" lon="2.14447">
        <ele>89.800003051758</ele>
        <time>2021-03-28T08:22:41Z</time>
      </trkpt>
      <trkpt lat="48.76905" lon="2.14441">
        <ele>90</ele>
        <time>2021-03-28T08:22:49Z</time>
      </trkpt>
      <trkpt lat="48.76889" lon="2.14433">
        <ele>90.199996948242</ele>
        <time>2021-03-28T08:23:04Z</time>
      </trkpt>
      <trkpt lat="48.76876" lon="2.14434">
        <ele>90.599998474121</ele>
        <time>2021-03-28T08:23:15Z</time>
      </trkpt>
      <trkpt lat="48.76872" lon="2.14435">
        <ele>90.800003051758</ele>
        <time>2021-03-28T08:23:19Z</time>
      </trkpt>
      <trkpt lat="48.7687" lon="2.14435">
        <ele>90.800003051758</ele>
        <time>2021-03-28T08:23:20Z</time>
      </trkpt>
      <trkpt lat="48.76856" lon="2.14441">
        <ele>91.400001525879</ele>
        <time>2021-03-28T08:23:30Z</time>
      </trkpt>
      <trkpt lat="48.76842" lon="2.14455">
        <ele>91.800003051758</ele>
        <time>2021-03-28T08:23:44Z</time>
      </trkpt>
      <trkpt lat="48.76839" lon="2.14458">
        <ele>92</ele>
        <time>2021-03-28T08:23:48Z</time>
      </trkpt>
      <trkpt lat="48.76837" lon="2.14464">
        <ele>92</ele>
        <time>2021-03-28T08:23:52Z</time>
      </trkpt>
      <trkpt lat="48.7683" lon="2.14479">
        <ele>92.199996948242</ele>
        <time>2021-03-28T08:24:03Z</time>
      </trkpt>
      <trkpt lat="48.76824" lon="2.14495">
        <ele>92.400001525879</ele>
        <time>2021-03-28T08:24:16Z</time>
      </trkpt>
      <trkpt lat="48.76816" lon="2.14505">
        <ele>92.400001525879</ele>
        <time>2021-03-28T08:24:26Z</time>
      </trkpt>
      <trkpt lat="48.76811" lon="2.14522">
        <ele>92.400001525879</ele>
        <time>2021-03-28T08:24:37Z</time>
      </trkpt>
      <trkpt lat="48.76803" lon="2.14541">
        <ele>92.599998474121</ele>
        <time>2021-03-28T08:24:51Z</time>
      </trkpt>
      <trkpt lat="48.76795" lon="2.1456">
        <ele>92.599998474121</ele>
        <time>2021-03-28T08:25:05Z</time>
      </trkpt>
      <trkpt lat="48.7679" lon="2.14584">
        <ele>92.599998474121</ele>
        <time>2021-03-28T08:25:19Z</time>
      </trkpt>
      <trkpt lat="48.76786" lon="2.14602">
        <ele>93</ele>
        <time>2021-03-28T08:25:30Z</time>
      </trkpt>
      <trkpt lat="48.76785" lon="2.14609">
        <ele>93</ele>
        <time>2021-03-28T08:25:33Z</time>
      </trkpt>
      <trkpt lat="48.76784" lon="2.14644">
        <ele>93.199996948242</ele>
        <time>2021-03-28T08:25:45Z</time>
      </trkpt>
      <trkpt lat="48.76779" lon="2.14666">
        <ele>93.199996948242</ele>
        <time>2021-03-28T08:25:57Z</time>
      </trkpt>
      <trkpt lat="48.7677" lon="2.14689">
        <ele>92.800003051758</ele>
        <time>2021-03-28T08:26:11Z</time>
      </trkpt>
      <trkpt lat="48.76759" lon="2.14705">
        <ele>92.599998474121</ele>
        <time>2021-03-28T08:26:25Z</time>
      </trkpt>
      <trkpt lat="48.76752" lon="2.14737">
        <ele>92.599998474121</ele>
        <time>2021-03-28T08:26:37Z</time>
      </trkpt>
      <trkpt lat="48.76744" lon="2.14751">
        <ele>92.800003051758</ele>
        <time>2021-03-28T08:26:47Z</time>
      </trkpt>
      <trkpt lat="48.76734" lon="2.14768">
        <ele>92.599998474121</ele>
        <time>2021-03-28T08:27:00Z</time>
      </trkpt>
      <trkpt lat="48.76723" lon="2.14786">
        <ele>92.599998474121</ele>
        <time>2021-03-28T08:27:12Z</time>
      </trkpt>
      <trkpt lat="48.76714" lon="2.148">
        <ele>93.199996948242</ele>
        <time>2021-03-28T08:27:24Z</time>
      </trkpt>
      <trkpt lat="48.76703" lon="2.14813">
        <ele>93.800003051758</ele>
        <time>2021-03-28T08:27:36Z</time>
      </trkpt>
      <trkpt lat="48.76696" lon="2.14821">
        <ele>94</ele>
        <time>2021-03-28T08:27:46Z</time>
      </trkpt>
      <trkpt lat="48.76694" lon="2.14825">
        <ele>94</ele>
        <time>2021-03-28T08:27:50Z</time>
      </trkpt>
      <trkpt lat="48.76683" lon="2.14838">
        <ele>94.199996948242</ele>
        <time>2021-03-28T08:28:01Z</time>
      </trkpt>
      <trkpt lat="48.76672" lon="2.14852">
        <ele>94.400001525879</ele>
        <time>2021-03-28T08:28:13Z</time>
      </trkpt>
      <trkpt lat="48.76664" lon="2.14861">
        <ele>95.199996948242</ele>
        <time>2021-03-28T08:28:20Z</time>
      </trkpt>
      <trkpt lat="48.76664" lon="2.14862">
        <ele>95.199996948242</ele>
        <time>2021-03-28T08:28:21Z</time>
      </trkpt>
      <trkpt lat="48.76655" lon="2.14875">
        <ele>95.400001525879</ele>
        <time>2021-03-28T08:28:31Z</time>
      </trkpt>
      <trkpt lat="48.76642" lon="2.14889">
        <ele>95.599998474121</ele>
        <time>2021-03-28T08:28:37Z</time>
      </trkpt>
      <trkpt lat="48.76634" lon="2.14897">
        <ele>96.199996948242</ele>
        <time>2021-03-28T08:28:44Z</time>
      </trkpt>
      <trkpt lat="48.76624" lon="2.14905">
        <ele>97.199996948242</ele>
        <time>2021-03-28T08:28:53Z</time>
      </trkpt>
      <trkpt lat="48.76623" lon="2.14907">
        <ele>97.400001525879</ele>
        <time>2021-03-28T08:28:55Z</time>
      </trkpt>
      <trkpt lat="48.7662" lon="2.14912">
        <ele>98.199996948242</ele>
        <time>2021-03-28T08:29:01Z</time>
      </trkpt>
      <trkpt lat="48.7662" lon="2.14913">
        <ele>98.400001525879</ele>
        <time>2021-03-28T08:29:02Z</time>
      </trkpt>
      <trkpt lat="48.76618" lon="2.14923">
        <ele>99.199996948242</ele>
        <time>2021-03-28T08:29:10Z</time>
      </trkpt>
      <trkpt lat="48.76617" lon="2.14925">
        <ele>99.599998474121</ele>
        <time>2021-03-28T08:29:12Z</time>
      </trkpt>
      <trkpt lat="48.76614" lon="2.14928">
        <ele>100.59999847412</ele>
        <time>2021-03-28T08:29:16Z</time>
      </trkpt>
      <trkpt lat="48.76613" lon="2.14932">
        <ele>101</ele>
        <time>2021-03-28T08:29:19Z</time>
      </trkpt>
      <trkpt lat="48.7661" lon="2.14942">
        <ele>101.80000305176</ele>
        <time>2021-03-28T08:29:25Z</time>
      </trkpt>
      <trkpt lat="48.76609" lon="2.14943">
        <ele>101.80000305176</ele>
        <time>2021-03-28T08:29:26Z</time>
      </trkpt>
      <trkpt lat="48.76606" lon="2.14951">
        <ele>102.80000305176</ele>
        <time>2021-03-28T08:29:32Z</time>
      </trkpt>
      <trkpt lat="48.76603" lon="2.14956">
        <ele>103.40000152588</ele>
        <time>2021-03-28T08:29:36Z</time>
      </trkpt>
      <trkpt lat="48.76604" lon="2.14961">
        <ele>103.80000305176</ele>
        <time>2021-03-28T08:29:40Z</time>
      </trkpt>
      <trkpt lat="48.76606" lon="2.14967">
        <ele>104</ele>
        <time>2021-03-28T08:29:45Z</time>
      </trkpt>
      <trkpt lat="48.76617" lon="2.14979">
        <ele>103.40000152588</ele>
        <time>2021-03-28T08:29:56Z</time>
      </trkpt>
      <trkpt lat="48.76618" lon="2.14981">
        <ele>103.40000152588</ele>
        <time>2021-03-28T08:29:58Z</time>
      </trkpt>
      <trkpt lat="48.76623" lon="2.14984">
        <ele>102.59999847412</ele>
        <time>2021-03-28T08:30:03Z</time>
      </trkpt>
      <trkpt lat="48.76628" lon="2.14988">
        <ele>101.80000305176</ele>
        <time>2021-03-28T08:30:09Z</time>
      </trkpt>
      <trkpt lat="48.76631" lon="2.14989">
        <ele>101</ele>
        <time>2021-03-28T08:30:12Z</time>
      </trkpt>
      <trkpt lat="48.76635" lon="2.14989">
        <ele>100.59999847412</ele>
        <time>2021-03-28T08:30:15Z</time>
      </trkpt>
      <trkpt lat="48.76642" lon="2.14992">
        <ele>99.599998474121</ele>
        <time>2021-03-28T08:30:21Z</time>
      </trkpt>
      <trkpt lat="48.76646" lon="2.14995">
        <ele>98.400001525879</ele>
        <time>2021-03-28T08:30:26Z</time>
      </trkpt>
      <trkpt lat="48.76648" lon="2.14996">
        <ele>98</ele>
        <time>2021-03-28T08:30:28Z</time>
      </trkpt>
      <trkpt lat="48.76654" lon="2.14998">
        <ele>97.199996948242</ele>
        <time>2021-03-28T08:30:35Z</time>
      </trkpt>
      <trkpt lat="48.7666" lon="2.15001">
        <ele>96.199996948242</ele>
        <time>2021-03-28T08:30:40Z</time>
      </trkpt>
      <trkpt lat="48.76662" lon="2.15008">
        <ele>95.400001525879</ele>
        <time>2021-03-28T08:30:45Z</time>
      </trkpt>
      <trkpt lat="48.76669" lon="2.15013">
        <ele>95</ele>
        <time>2021-03-28T08:30:52Z</time>
      </trkpt>
      <trkpt lat="48.76671" lon="2.15013">
        <ele>95</ele>
        <time>2021-03-28T08:30:54Z</time>
      </trkpt>
      <trkpt lat="48.76682" lon="2.15022">
        <ele>94.599998474121</ele>
        <time>2021-03-28T08:31:06Z</time>
      </trkpt>
      <trkpt lat="48.76688" lon="2.15024">
        <ele>94.400001525879</ele>
        <time>2021-03-28T08:31:20Z</time>
      </trkpt>
      <trkpt lat="48.76696" lon="2.15027">
        <ele>94</ele>
        <time>2021-03-28T08:31:31Z</time>
      </trkpt>
      <trkpt lat="48.76698" lon="2.15028">
        <ele>93.800003051758</ele>
        <time>2021-03-28T08:31:34Z</time>
      </trkpt>
      <trkpt lat="48.76706" lon="2.1503">
        <ele>93</ele>
        <time>2021-03-28T08:31:42Z</time>
      </trkpt>
      <trkpt lat="48.76711" lon="2.15033">
        <ele>92.199996948242</ele>
        <time>2021-03-28T08:31:49Z</time>
      </trkpt>
      <trkpt lat="48.76718" lon="2.15036">
        <ele>91.800003051758</ele>
        <time>2021-03-28T08:31:55Z</time>
      </trkpt>
      <trkpt lat="48.76722" lon="2.15039">
        <ele>91</ele>
        <time>2021-03-28T08:32:00Z</time>
      </trkpt>
      <trkpt lat="48.76723" lon="2.15039">
        <ele>90.800003051758</ele>
        <time>2021-03-28T08:32:02Z</time>
      </trkpt>
      <trkpt lat="48.76724" lon="2.15041">
        <ele>90.800003051758</ele>
        <time>2021-03-28T08:32:04Z</time>
      </trkpt>
      <trkpt lat="48.76734" lon="2.1505">
        <ele>89.800003051758</ele>
        <time>2021-03-28T08:32:16Z</time>
      </trkpt>
      <trkpt lat="48.76737" lon="2.15054">
        <ele>89.400001525879</ele>
        <time>2021-03-28T08:32:20Z</time>
      </trkpt>
      <trkpt lat="48.76745" lon="2.15062">
        <ele>88.800003051758</ele>
        <time>2021-03-28T08:32:28Z</time>
      </trkpt>
      <trkpt lat="48.76746" lon="2.15066">
        <ele>88.599998474121</ele>
        <time>2021-03-28T08:32:31Z</time>
      </trkpt>
      <trkpt lat="48.76749" lon="2.15086">
        <ele>88.199996948242</ele>
        <time>2021-03-28T08:32:46Z</time>
      </trkpt>
      <trkpt lat="48.76753" lon="2.15105">
        <ele>88.400001525879</ele>
        <time>2021-03-28T08:33:00Z</time>
      </trkpt>
      <trkpt lat="48.76753" lon="2.15132">
        <ele>88.800003051758</ele>
        <time>2021-03-28T08:33:14Z</time>
      </trkpt>
      <trkpt lat="48.7675" lon="2.15155">
        <ele>88.800003051758</ele>
        <time>2021-03-28T08:33:27Z</time>
      </trkpt>
      <trkpt lat="48.76751" lon="2.15165">
        <ele>89</ele>
        <time>2021-03-28T08:33:34Z</time>
      </trkpt>
      <trkpt lat="48.76752" lon="2.15183">
        <ele>89</ele>
        <time>2021-03-28T08:33:43Z</time>
      </trkpt>
      <trkpt lat="48.76751" lon="2.15192">
        <ele>89</ele>
        <time>2021-03-28T08:33:47Z</time>
      </trkpt>
      <trkpt lat="48.76749" lon="2.152">
        <ele>89</ele>
        <time>2021-03-28T08:33:53Z</time>
      </trkpt>
      <trkpt lat="48.7674" lon="2.15216">
        <ele>88.800003051758</ele>
        <time>2021-03-28T08:34:04Z</time>
      </trkpt>
      <trkpt lat="48.76739" lon="2.15219">
        <ele>88.800003051758</ele>
        <time>2021-03-28T08:34:06Z</time>
      </trkpt>
      <trkpt lat="48.76726" lon="2.15244">
        <ele>89</ele>
        <time>2021-03-28T08:34:23Z</time>
      </trkpt>
      <trkpt lat="48.7672" lon="2.15266">
        <ele>89.199996948242</ele>
        <time>2021-03-28T08:34:35Z</time>
      </trkpt>
      <trkpt lat="48.76716" lon="2.15292">
        <ele>89</ele>
        <time>2021-03-28T08:34:50Z</time>
      </trkpt>
      <trkpt lat="48.76712" lon="2.15318">
        <ele>88.800003051758</ele>
        <time>2021-03-28T08:35:03Z</time>
      </trkpt>
      <trkpt lat="48.76708" lon="2.15333">
        <ele>88.800003051758</ele>
        <time>2021-03-28T08:35:12Z</time>
      </trkpt>
      <trkpt lat="48.76707" lon="2.15335">
        <ele>88.800003051758</ele>
        <time>2021-03-28T08:35:13Z</time>
      </trkpt>
      <trkpt lat="48.76704" lon="2.15344">
        <ele>88.800003051758</ele>
        <time>2021-03-28T08:35:19Z</time>
      </trkpt>
      <trkpt lat="48.76701" lon="2.15356">
        <ele>89</ele>
        <time>2021-03-28T08:35:27Z</time>
      </trkpt>
      <trkpt lat="48.76694" lon="2.15373">
        <ele>89</ele>
        <time>2021-03-28T08:35:37Z</time>
      </trkpt>
      <trkpt lat="48.76688" lon="2.15384">
        <ele>88.800003051758</ele>
        <time>2021-03-28T08:35:44Z</time>
      </trkpt>
      <trkpt lat="48.76681" lon="2.15394">
        <ele>88.599998474121</ele>
        <time>2021-03-28T08:35:53Z</time>
      </trkpt>
      <trkpt lat="48.76676" lon="2.15402">
        <ele>88.599998474121</ele>
        <time>2021-03-28T08:36:02Z</time>
      </trkpt>
      <trkpt lat="48.76667" lon="2.1541">
        <ele>89</ele>
        <time>2021-03-28T08:36:10Z</time>
      </trkpt>
      <trkpt lat="48.76656" lon="2.15428">
        <ele>89.400001525879</ele>
        <time>2021-03-28T08:36:20Z</time>
      </trkpt>
      <trkpt lat="48.76648" lon="2.15445">
        <ele>90</ele>
        <time>2021-03-28T08:36:30Z</time>
      </trkpt>
      <trkpt lat="48.76647" lon="2.1545">
        <ele>90</ele>
        <time>2021-03-28T08:36:33Z</time>
      </trkpt>
      <trkpt lat="48.76645" lon="2.15461">
        <ele>90</ele>
        <time>2021-03-28T08:36:39Z</time>
      </trkpt>
      <trkpt lat="48.76644" lon="2.15474">
        <ele>89.800003051758</ele>
        <time>2021-03-28T08:36:48Z</time>
      </trkpt>
      <trkpt lat="48.76645" lon="2.15486">
        <ele>90</ele>
        <time>2021-03-28T08:36:57Z</time>
      </trkpt>
      <trkpt lat="48.76646" lon="2.15488">
        <ele>90</ele>
        <time>2021-03-28T08:36:59Z</time>
      </trkpt>
      <trkpt lat="48.76647" lon="2.15492">
        <ele>90</ele>
        <time>2021-03-28T08:37:03Z</time>
      </trkpt>
      <trkpt lat="48.76648" lon="2.15494">
        <ele>90</ele>
        <time>2021-03-28T08:37:04Z</time>
      </trkpt>
      <trkpt lat="48.76648" lon="2.15505">
        <ele>90.199996948242</ele>
        <time>2021-03-28T08:37:12Z</time>
      </trkpt>
      <trkpt lat="48.76656" lon="2.15521">
        <ele>90</ele>
        <time>2021-03-28T08:37:25Z</time>
      </trkpt>
      <trkpt lat="48.76667" lon="2.15531">
        <ele>89.800003051758</ele>
        <time>2021-03-28T08:37:36Z</time>
      </trkpt>
      <trkpt lat="48.76671" lon="2.15534">
        <ele>89.400001525879</ele>
        <time>2021-03-28T08:37:39Z</time>
      </trkpt>
      <trkpt lat="48.76683" lon="2.15545">
        <ele>89.199996948242</ele>
        <time>2021-03-28T08:37:50Z</time>
      </trkpt>
      <trkpt lat="48.76684" lon="2.15546">
        <ele>89.199996948242</ele>
        <time>2021-03-28T08:37:51Z</time>
      </trkpt>
      <trkpt lat="48.76694" lon="2.15555">
        <ele>89</ele>
        <time>2021-03-28T08:38:04Z</time>
      </trkpt>
      <trkpt lat="48.76703" lon="2.1556">
        <ele>88.599998474121</ele>
        <time>2021-03-28T08:38:15Z</time>
      </trkpt>
      <trkpt lat="48.76708" lon="2.15568">
        <ele>88.599998474121</ele>
        <time>2021-03-28T08:38:24Z</time>
      </trkpt>
      <trkpt lat="48.76714" lon="2.15582">
        <ele>88.400001525879</ele>
        <time>2021-03-28T08:38:35Z</time>
      </trkpt>
      <trkpt lat="48.76714" lon="2.15584">
        <ele>88.199996948242</ele>
        <time>2021-03-28T08:38:36Z</time>
      </trkpt>
      <trkpt lat="48.76713" lon="2.15602">
        <ele>87.400001525879</ele>
        <time>2021-03-28T08:38:47Z</time>
      </trkpt>
      <trkpt lat="48.76712" lon="2.15604">
        <ele>87.400001525879</ele>
        <time>2021-03-28T08:38:48Z</time>
      </trkpt>
      <trkpt lat="48.76708" lon="2.15614">
        <ele>86.400001525879</ele>
        <time>2021-03-28T08:38:54Z</time>
      </trkpt>
      <trkpt lat="48.76704" lon="2.15619">
        <ele>86</ele>
        <time>2021-03-28T08:38:58Z</time>
      </trkpt>
      <trkpt lat="48.76702" lon="2.15623">
        <ele>85.599998474121</ele>
        <time>2021-03-28T08:39:02Z</time>
      </trkpt>
      <trkpt lat="48.76701" lon="2.15626">
        <ele>85.199996948242</ele>
        <time>2021-03-28T08:39:04Z</time>
      </trkpt>
      <trkpt lat="48.767" lon="2.15632">
        <ele>84.800003051758</ele>
        <time>2021-03-28T08:39:10Z</time>
      </trkpt>
      <trkpt lat="48.76699" lon="2.15635">
        <ele>84.199996948242</ele>
        <time>2021-03-28T08:39:16Z</time>
      </trkpt>
      <trkpt lat="48.76698" lon="2.15635">
        <ele>84</ele>
        <time>2021-03-28T08:39:20Z</time>
      </trkpt>
      <trkpt lat="48.76698" lon="2.15649">
        <ele>83.599998474121</ele>
        <time>2021-03-28T08:39:31Z</time>
      </trkpt>
      <trkpt lat="48.76699" lon="2.15675">
        <ele>83.199996948242</ele>
        <time>2021-03-28T08:39:47Z</time>
      </trkpt>
      <trkpt lat="48.76699" lon="2.15676">
        <ele>83.199996948242</ele>
        <time>2021-03-28T08:39:48Z</time>
      </trkpt>
      <trkpt lat="48.76698" lon="2.15704">
        <ele>82.599998474121</ele>
        <time>2021-03-28T08:40:05Z</time>
      </trkpt>
      <trkpt lat="48.76698" lon="2.15722">
        <ele>82</ele>
        <time>2021-03-28T08:40:15Z</time>
      </trkpt>
      <trkpt lat="48.76698" lon="2.1573">
        <ele>81.800003051758</ele>
        <time>2021-03-28T08:40:21Z</time>
      </trkpt>
      <trkpt lat="48.767" lon="2.15737">
        <ele>81</ele>
        <time>2021-03-28T08:40:25Z</time>
      </trkpt>
      <trkpt lat="48.76699" lon="2.1575">
        <ele>82</ele>
        <time>2021-03-28T08:40:35Z</time>
      </trkpt>
      <trkpt lat="48.76699" lon="2.15753">
        <ele>82.400001525879</ele>
        <time>2021-03-28T08:40:37Z</time>
      </trkpt>
      <trkpt lat="48.76699" lon="2.15754">
        <ele>82.400001525879</ele>
        <time>2021-03-28T08:40:38Z</time>
      </trkpt>
      <trkpt lat="48.76687" lon="2.15786">
        <ele>82.400001525879</ele>
        <time>2021-03-28T08:40:54Z</time>
      </trkpt>
      <trkpt lat="48.76679" lon="2.15806">
        <ele>81.800003051758</ele>
        <time>2021-03-28T08:41:12Z</time>
      </trkpt>
      <trkpt lat="48.76667" lon="2.15824">
        <ele>81.599998474121</ele>
        <time>2021-03-28T08:41:30Z</time>
      </trkpt>
      <trkpt lat="48.7666" lon="2.15846">
        <ele>81.800003051758</ele>
        <time>2021-03-28T08:41:44Z</time>
      </trkpt>
      <trkpt lat="48.76659" lon="2.15851">
        <ele>81.800003051758</ele>
        <time>2021-03-28T08:41:46Z</time>
      </trkpt>
      <trkpt lat="48.76645" lon="2.15872">
        <ele>81.400001525879</ele>
        <time>2021-03-28T08:41:59Z</time>
      </trkpt>
      <trkpt lat="48.76638" lon="2.15882">
        <ele>81.400001525879</ele>
        <time>2021-03-28T08:42:03Z</time>
      </trkpt>
      <trkpt lat="48.76618" lon="2.15897">
        <ele>82</ele>
        <time>2021-03-28T08:42:19Z</time>
      </trkpt>
      <trkpt lat="48.76619" lon="2.159">
        <ele>81.599998474121</ele>
        <time>2021-03-28T08:42:28Z</time>
      </trkpt>
      <trkpt lat="48.76618" lon="2.15904">
        <ele>81.199996948242</ele>
        <time>2021-03-28T08:42:46Z</time>
      </trkpt>
      <trkpt lat="48.76612" lon="2.15907">
        <ele>81.400001525879</ele>
        <time>2021-03-28T08:42:59Z</time>
      </trkpt>
      <trkpt lat="48.76609" lon="2.1591">
        <ele>81.400001525879</ele>
        <time>2021-03-28T08:43:02Z</time>
      </trkpt>
      <trkpt lat="48.76599" lon="2.15918">
        <ele>81.800003051758</ele>
        <time>2021-03-28T08:43:13Z</time>
      </trkpt>
      <trkpt lat="48.76587" lon="2.15924">
        <ele>81.400001525879</ele>
        <time>2021-03-28T08:43:25Z</time>
      </trkpt>
      <trkpt lat="48.76586" lon="2.15924">
        <ele>81.400001525879</ele>
        <time>2021-03-28T08:43:26Z</time>
      </trkpt>
      <trkpt lat="48.76579" lon="2.15911">
        <ele>81.400001525879</ele>
        <time>2021-03-28T08:43:35Z</time>
      </trkpt>
      <trkpt lat="48.76569" lon="2.159">
        <ele>81.599998474121</ele>
        <time>2021-03-28T08:43:47Z</time>
      </trkpt>
      <trkpt lat="48.76567" lon="2.15901">
        <ele>81.599998474121</ele>
        <time>2021-03-28T08:43:49Z</time>
      </trkpt>
      <trkpt lat="48.7656" lon="2.15907">
        <ele>81.800003051758</ele>
        <time>2021-03-28T08:43:55Z</time>
      </trkpt>
      <trkpt lat="48.76546" lon="2.15924">
        <ele>81.599998474121</ele>
        <time>2021-03-28T08:44:08Z</time>
      </trkpt>
      <trkpt lat="48.76536" lon="2.15938">
        <ele>81.800003051758</ele>
        <time>2021-03-28T08:44:19Z</time>
      </trkpt>
      <trkpt lat="48.7653" lon="2.15955">
        <ele>82</ele>
        <time>2021-03-28T08:44:30Z</time>
      </trkpt>
      <trkpt lat="48.7652" lon="2.15971">
        <ele>82</ele>
        <time>2021-03-28T08:44:41Z</time>
      </trkpt>
      <trkpt lat="48.76517" lon="2.15978">
        <ele>81.800003051758</ele>
        <time>2021-03-28T08:44:45Z</time>
      </trkpt>
      <trkpt lat="48.76515" lon="2.15987">
        <ele>81.599998474121</ele>
        <time>2021-03-28T08:44:50Z</time>
      </trkpt>
      <trkpt lat="48.76515" lon="2.15995">
        <ele>81.599998474121</ele>
        <time>2021-03-28T08:44:55Z</time>
      </trkpt>
      <trkpt lat="48.76516" lon="2.15999">
        <ele>81.599998474121</ele>
        <time>2021-03-28T08:44:57Z</time>
      </trkpt>
      <trkpt lat="48.7652" lon="2.16014">
        <ele>82</ele>
        <time>2021-03-28T08:45:05Z</time>
      </trkpt>
      <trkpt lat="48.76528" lon="2.16027">
        <ele>82</ele>
        <time>2021-03-28T08:45:14Z</time>
      </trkpt>
      <trkpt lat="48.76532" lon="2.16039">
        <ele>82.400001525879</ele>
        <time>2021-03-28T08:45:21Z</time>
      </trkpt>
      <trkpt lat="48.7654" lon="2.16045">
        <ele>82.599998474121</ele>
        <time>2021-03-28T08:45:29Z</time>
      </trkpt>
      <trkpt lat="48.76542" lon="2.16054">
        <ele>82.800003051758</ele>
        <time>2021-03-28T08:45:37Z</time>
      </trkpt>
      <trkpt lat="48.76537" lon="2.16061">
        <ele>82.800003051758</ele>
        <time>2021-03-28T08:45:42Z</time>
      </trkpt>
      <trkpt lat="48.76533" lon="2.16065">
        <ele>82.800003051758</ele>
        <time>2021-03-28T08:45:45Z</time>
      </trkpt>
      <trkpt lat="48.76532" lon="2.16066">
        <ele>82.800003051758</ele>
        <time>2021-03-28T08:45:46Z</time>
      </trkpt>
      <trkpt lat="48.76524" lon="2.16081">
        <ele>82.599998474121</ele>
        <time>2021-03-28T08:45:57Z</time>
      </trkpt>
      <trkpt lat="48.76524" lon="2.16105">
        <ele>82.599998474121</ele>
        <time>2021-03-28T08:46:10Z</time>
      </trkpt>
      <trkpt lat="48.76526" lon="2.16135">
        <ele>82.400001525879</ele>
        <time>2021-03-28T08:46:25Z</time>
      </trkpt>
      <trkpt lat="48.76525" lon="2.16158">
        <ele>82.400001525879</ele>
        <time>2021-03-28T08:46:38Z</time>
      </trkpt>
      <trkpt lat="48.76525" lon="2.16161">
        <ele>82.199996948242</ele>
        <time>2021-03-28T08:46:40Z</time>
      </trkpt>
      <trkpt lat="48.76526" lon="2.16182">
        <ele>82.199996948242</ele>
        <time>2021-03-28T08:46:51Z</time>
      </trkpt>
      <trkpt lat="48.76525" lon="2.16206">
        <ele>82.400001525879</ele>
        <time>2021-03-28T08:47:04Z</time>
      </trkpt>
      <trkpt lat="48.76526" lon="2.16229">
        <ele>82.199996948242</ele>
        <time>2021-03-28T08:47:16Z</time>
      </trkpt>
      <trkpt lat="48.76525" lon="2.16246">
        <ele>82.199996948242</ele>
        <time>2021-03-28T08:47:28Z</time>
      </trkpt>
      <trkpt lat="48.76526" lon="2.16248">
        <ele>82.199996948242</ele>
        <time>2021-03-28T08:47:29Z</time>
      </trkpt>
      <trkpt lat="48.76528" lon="2.16266">
        <ele>82.199996948242</ele>
        <time>2021-03-28T08:47:40Z</time>
      </trkpt>
      <trkpt lat="48.76527" lon="2.16293">
        <ele>81.800003051758</ele>
        <time>2021-03-28T08:47:54Z</time>
      </trkpt>
      <trkpt lat="48.76525" lon="2.16315">
        <ele>81.599998474121</ele>
        <time>2021-03-28T08:48:06Z</time>
      </trkpt>
      <trkpt lat="48.76524" lon="2.16342">
        <ele>81.400001525879</ele>
        <time>2021-03-28T08:48:20Z</time>
      </trkpt>
      <trkpt lat="48.76524" lon="2.16361">
        <ele>81.400001525879</ele>
        <time>2021-03-28T08:48:31Z</time>
      </trkpt>
      <trkpt lat="48.76524" lon="2.16386">
        <ele>81.599998474121</ele>
        <time>2021-03-28T08:48:44Z</time>
      </trkpt>
      <trkpt lat="48.76524" lon="2.16407">
        <ele>81.400001525879</ele>
        <time>2021-03-28T08:48:55Z</time>
      </trkpt>
      <trkpt lat="48.76522" lon="2.16424">
        <ele>81.199996948242</ele>
        <time>2021-03-28T08:49:03Z</time>
      </trkpt>
      <trkpt lat="48.76522" lon="2.16433">
        <ele>81.199996948242</ele>
        <time>2021-03-28T08:49:08Z</time>
      </trkpt>
      <trkpt lat="48.76521" lon="2.16461">
        <ele>81</ele>
        <time>2021-03-28T08:49:23Z</time>
      </trkpt>
      <trkpt lat="48.76515" lon="2.16479">
        <ele>80.599998474121</ele>
        <time>2021-03-28T08:49:35Z</time>
      </trkpt>
      <trkpt lat="48.76504" lon="2.16485">
        <ele>80.599998474121</ele>
        <time>2021-03-28T08:49:48Z</time>
      </trkpt>
      <trkpt lat="48.76491" lon="2.16479">
        <ele>81.400001525879</ele>
        <time>2021-03-28T08:50:09Z</time>
      </trkpt>
      <trkpt lat="48.76504" lon="2.16485">
        <ele>82</ele>
        <time>2021-03-28T08:55:52Z</time>
      </trkpt>
      <trkpt lat="48.76502" lon="2.16484">
        <ele>81.800003051758</ele>
        <time>2021-03-28T08:56:06Z</time>
      </trkpt>
      <trkpt lat="48.76503" lon="2.16484">
        <ele>81.800003051758</ele>
        <time>2021-03-28T08:56:18Z</time>
      </trkpt>
      <trkpt lat="48.76506" lon="2.16483">
        <ele>81.800003051758</ele>
        <time>2021-03-28T08:56:28Z</time>
      </trkpt>
      <trkpt lat="48.76518" lon="2.1648">
        <ele>81.599998474121</ele>
        <time>2021-03-28T08:56:40Z</time>
      </trkpt>
      <trkpt lat="48.7653" lon="2.16473">
        <ele>81</ele>
        <time>2021-03-28T08:56:57Z</time>
      </trkpt>
      <trkpt lat="48.76542" lon="2.1647">
        <ele>81.199996948242</ele>
        <time>2021-03-28T08:57:09Z</time>
      </trkpt>
      <trkpt lat="48.76557" lon="2.16468">
        <ele>82.400001525879</ele>
        <time>2021-03-28T08:57:22Z</time>
      </trkpt>
      <trkpt lat="48.7657" lon="2.16466">
        <ele>82.800003051758</ele>
        <time>2021-03-28T08:57:36Z</time>
      </trkpt>
      <trkpt lat="48.76574" lon="2.16467">
        <ele>83</ele>
        <time>2021-03-28T08:57:40Z</time>
      </trkpt>
      <trkpt lat="48.76583" lon="2.16464">
        <ele>83.800003051758</ele>
        <time>2021-03-28T08:57:50Z</time>
      </trkpt>
      <trkpt lat="48.76585" lon="2.16462">
        <ele>84</ele>
        <time>2021-03-28T08:57:53Z</time>
      </trkpt>
      <trkpt lat="48.76592" lon="2.16461">
        <ele>85</ele>
        <time>2021-03-28T08:58:03Z</time>
      </trkpt>
      <trkpt lat="48.76593" lon="2.16459">
        <ele>85.199996948242</ele>
        <time>2021-03-28T08:58:05Z</time>
      </trkpt>
      <trkpt lat="48.76602" lon="2.16457">
        <ele>86</ele>
        <time>2021-03-28T08:58:14Z</time>
      </trkpt>
      <trkpt lat="48.76606" lon="2.16456">
        <ele>86.199996948242</ele>
        <time>2021-03-28T08:58:17Z</time>
      </trkpt>
      <trkpt lat="48.76618" lon="2.16453">
        <ele>87.199996948242</ele>
        <time>2021-03-28T08:58:26Z</time>
      </trkpt>
      <trkpt lat="48.7662" lon="2.16453">
        <ele>87.599998474121</ele>
        <time>2021-03-28T08:58:28Z</time>
      </trkpt>
      <trkpt lat="48.7663" lon="2.16453">
        <ele>88.400001525879</ele>
        <time>2021-03-28T08:58:36Z</time>
      </trkpt>
      <trkpt lat="48.76631" lon="2.1645">
        <ele>88.599998474121</ele>
        <time>2021-03-28T08:58:38Z</time>
      </trkpt>
      <trkpt lat="48.76632" lon="2.16447">
        <ele>89.400001525879</ele>
        <time>2021-03-28T08:58:43Z</time>
      </trkpt>
      <trkpt lat="48.76635" lon="2.16446">
        <ele>89.599998474121</ele>
        <time>2021-03-28T08:58:48Z</time>
      </trkpt>
      <trkpt lat="48.76636" lon="2.16438">
        <ele>89.599998474121</ele>
        <time>2021-03-28T08:58:59Z</time>
      </trkpt>
      <trkpt lat="48.76639" lon="2.16435">
        <ele>89.599998474121</ele>
        <time>2021-03-28T08:59:13Z</time>
      </trkpt>
      <trkpt lat="48.76639" lon="2.16434">
        <ele>89.599998474121</ele>
        <time>2021-03-28T08:59:22Z</time>
      </trkpt>
      <trkpt lat="48.76636" lon="2.16423">
        <ele>89.599998474121</ele>
        <time>2021-03-28T08:59:32Z</time>
      </trkpt>
      <trkpt lat="48.76635" lon="2.1642">
        <ele>89.599998474121</ele>
        <time>2021-03-28T08:59:34Z</time>
      </trkpt>
      <trkpt lat="48.76628" lon="2.16399">
        <ele>89.599998474121</ele>
        <time>2021-03-28T08:59:45Z</time>
      </trkpt>
      <trkpt lat="48.76625" lon="2.16385">
        <ele>89.199996948242</ele>
        <time>2021-03-28T08:59:54Z</time>
      </trkpt>
      <trkpt lat="48.76622" lon="2.16375">
        <ele>88.400001525879</ele>
        <time>2021-03-28T09:00:02Z</time>
      </trkpt>
      <trkpt lat="48.7662" lon="2.16361">
        <ele>88.199996948242</ele>
        <time>2021-03-28T09:00:10Z</time>
      </trkpt>
      <trkpt lat="48.76618" lon="2.16349">
        <ele>88.400001525879</ele>
        <time>2021-03-28T09:00:17Z</time>
      </trkpt>
      <trkpt lat="48.76616" lon="2.16331">
        <ele>88.400001525879</ele>
        <time>2021-03-28T09:00:26Z</time>
      </trkpt>
      <trkpt lat="48.76613" lon="2.16315">
        <ele>88.800003051758</ele>
        <time>2021-03-28T09:00:32Z</time>
      </trkpt>
      <trkpt lat="48.76612" lon="2.16301">
        <ele>89</ele>
        <time>2021-03-28T09:00:40Z</time>
      </trkpt>
      <trkpt lat="48.76614" lon="2.16299">
        <ele>89</ele>
        <time>2021-03-28T09:00:42Z</time>
      </trkpt>
      <trkpt lat="48.76618" lon="2.16295">
        <ele>89</ele>
        <time>2021-03-28T09:00:47Z</time>
      </trkpt>
      <trkpt lat="48.76621" lon="2.16294">
        <ele>89.199996948242</ele>
        <time>2021-03-28T09:00:53Z</time>
      </trkpt>
      <trkpt lat="48.76625" lon="2.16295">
        <ele>90.199996948242</ele>
        <time>2021-03-28T09:01:01Z</time>
      </trkpt>
      <trkpt lat="48.76629" lon="2.16298">
        <ele>91</ele>
        <time>2021-03-28T09:01:06Z</time>
      </trkpt>
      <trkpt lat="48.76631" lon="2.16299">
        <ele>91.400001525879</ele>
        <time>2021-03-28T09:01:08Z</time>
      </trkpt>
      <trkpt lat="48.76632" lon="2.16299">
        <ele>91.400001525879</ele>
        <time>2021-03-28T09:01:09Z</time>
      </trkpt>
      <trkpt lat="48.76636" lon="2.16298">
        <ele>92.400001525879</ele>
        <time>2021-03-28T09:01:14Z</time>
      </trkpt>
      <trkpt lat="48.76638" lon="2.16297">
        <ele>92.599998474121</ele>
        <time>2021-03-28T09:01:17Z</time>
      </trkpt>
      <trkpt lat="48.76644" lon="2.16296">
        <ele>94</ele>
        <time>2021-03-28T09:01:22Z</time>
      </trkpt>
      <trkpt lat="48.76648" lon="2.16297">
        <ele>94.800003051758</ele>
        <time>2021-03-28T09:01:25Z</time>
      </trkpt>
      <trkpt lat="48.7665" lon="2.16297">
        <ele>95</ele>
        <time>2021-03-28T09:01:26Z</time>
      </trkpt>
      <trkpt lat="48.76655" lon="2.16304">
        <ele>96</ele>
        <time>2021-03-28T09:01:32Z</time>
      </trkpt>
      <trkpt lat="48.76657" lon="2.16308">
        <ele>96.599998474121</ele>
        <time>2021-03-28T09:01:34Z</time>
      </trkpt>
      <trkpt lat="48.7666" lon="2.16308">
        <ele>97</ele>
        <time>2021-03-28T09:01:37Z</time>
      </trkpt>
      <trkpt lat="48.76662" lon="2.16303">
        <ele>98.199996948242</ele>
        <time>2021-03-28T09:01:41Z</time>
      </trkpt>
      <trkpt lat="48.76664" lon="2.16303">
        <ele>98.400001525879</ele>
        <time>2021-03-28T09:01:43Z</time>
      </trkpt>
      <trkpt lat="48.76667" lon="2.16303">
        <ele>99.199996948242</ele>
        <time>2021-03-28T09:01:46Z</time>
      </trkpt>
      <trkpt lat="48.76673" lon="2.16305">
        <ele>100.19999694824</ele>
        <time>2021-03-28T09:01:51Z</time>
      </trkpt>
      <trkpt lat="48.76674" lon="2.16305">
        <ele>100.59999847412</ele>
        <time>2021-03-28T09:01:52Z</time>
      </trkpt>
      <trkpt lat="48.76679" lon="2.16304">
        <ele>101.40000152588</ele>
        <time>2021-03-28T09:01:56Z</time>
      </trkpt>
      <trkpt lat="48.76684" lon="2.16301">
        <ele>102.59999847412</ele>
        <time>2021-03-28T09:02:00Z</time>
      </trkpt>
      <trkpt lat="48.76684" lon="2.16301">
        <ele>102.59999847412</ele>
        <time>2021-03-28T09:02:02Z</time>
      </trkpt>
      <trkpt lat="48.76688" lon="2.16303">
        <ele>103.80000305176</ele>
        <time>2021-03-28T09:02:07Z</time>
      </trkpt>
      <trkpt lat="48.76689" lon="2.16302">
        <ele>104.19999694824</ele>
        <time>2021-03-28T09:02:08Z</time>
      </trkpt>
      <trkpt lat="48.76694" lon="2.16299">
        <ele>105.19999694824</ele>
        <time>2021-03-28T09:02:13Z</time>
      </trkpt>
      <trkpt lat="48.76698" lon="2.16296">
        <ele>105.59999847412</ele>
        <time>2021-03-28T09:02:16Z</time>
      </trkpt>
      <trkpt lat="48.767" lon="2.16296">
        <ele>106</ele>
        <time>2021-03-28T09:02:18Z</time>
      </trkpt>
      <trkpt lat="48.76704" lon="2.16297">
        <ele>106.19999694824</ele>
        <time>2021-03-28T09:02:21Z</time>
      </trkpt>
      <trkpt lat="48.76705" lon="2.16297">
        <ele>106.40000152588</ele>
        <time>2021-03-28T09:02:22Z</time>
      </trkpt>
      <trkpt lat="48.7671" lon="2.16299">
        <ele>107.59999847412</ele>
        <time>2021-03-28T09:02:25Z</time>
      </trkpt>
      <trkpt lat="48.76715" lon="2.16302">
        <ele>108.59999847412</ele>
        <time>2021-03-28T09:02:29Z</time>
      </trkpt>
      <trkpt lat="48.76717" lon="2.16303">
        <ele>108.80000305176</ele>
        <time>2021-03-28T09:02:30Z</time>
      </trkpt>
      <trkpt lat="48.76718" lon="2.16303">
        <ele>109</ele>
        <time>2021-03-28T09:02:31Z</time>
      </trkpt>
      <trkpt lat="48.76721" lon="2.16308">
        <ele>110.19999694824</ele>
        <time>2021-03-28T09:02:37Z</time>
      </trkpt>
      <trkpt lat="48.76725" lon="2.16313">
        <ele>111.40000152588</ele>
        <time>2021-03-28T09:02:42Z</time>
      </trkpt>
      <trkpt lat="48.76728" lon="2.16313">
        <ele>112.19999694824</ele>
        <time>2021-03-28T09:02:45Z</time>
      </trkpt>
      <trkpt lat="48.76729" lon="2.16313">
        <ele>112.59999847412</ele>
        <time>2021-03-28T09:02:46Z</time>
      </trkpt>
      <trkpt lat="48.76731" lon="2.1632">
        <ele>113.59999847412</ele>
        <time>2021-03-28T09:02:52Z</time>
      </trkpt>
      <trkpt lat="48.76733" lon="2.16321">
        <ele>114.80000305176</ele>
        <time>2021-03-28T09:02:55Z</time>
      </trkpt>
      <trkpt lat="48.76738" lon="2.16317">
        <ele>116</ele>
        <time>2021-03-28T09:03:02Z</time>
      </trkpt>
      <trkpt lat="48.76744" lon="2.16314">
        <ele>117</ele>
        <time>2021-03-28T09:03:08Z</time>
      </trkpt>
      <trkpt lat="48.76748" lon="2.16312">
        <ele>117.80000305176</ele>
        <time>2021-03-28T09:03:12Z</time>
      </trkpt>
      <trkpt lat="48.7675" lon="2.16311">
        <ele>118.19999694824</ele>
        <time>2021-03-28T09:03:13Z</time>
      </trkpt>
      <trkpt lat="48.76753" lon="2.16311">
        <ele>119</ele>
        <time>2021-03-28T09:03:17Z</time>
      </trkpt>
      <trkpt lat="48.76755" lon="2.16312">
        <ele>119.40000152588</ele>
        <time>2021-03-28T09:03:19Z</time>
      </trkpt>
      <trkpt lat="48.76756" lon="2.16313">
        <ele>119.80000305176</ele>
        <time>2021-03-28T09:03:21Z</time>
      </trkpt>
      <trkpt lat="48.76758" lon="2.16316">
        <ele>120.19999694824</ele>
        <time>2021-03-28T09:03:24Z</time>
      </trkpt>
      <trkpt lat="48.76759" lon="2.16317">
        <ele>120.59999847412</ele>
        <time>2021-03-28T09:03:25Z</time>
      </trkpt>
      <trkpt lat="48.76761" lon="2.16321">
        <ele>121.40000152588</ele>
        <time>2021-03-28T09:03:29Z</time>
      </trkpt>
      <trkpt lat="48.76762" lon="2.16322">
        <ele>122</ele>
        <time>2021-03-28T09:03:30Z</time>
      </trkpt>
      <trkpt lat="48.76765" lon="2.16329">
        <ele>123.19999694824</ele>
        <time>2021-03-28T09:03:36Z</time>
      </trkpt>
      <trkpt lat="48.76766" lon="2.16333">
        <ele>123.80000305176</ele>
        <time>2021-03-28T09:03:39Z</time>
      </trkpt>
      <trkpt lat="48.76766" lon="2.16334">
        <ele>124.40000152588</ele>
        <time>2021-03-28T09:03:40Z</time>
      </trkpt>
      <trkpt lat="48.76765" lon="2.16342">
        <ele>125.59999847412</ele>
        <time>2021-03-28T09:03:45Z</time>
      </trkpt>
      <trkpt lat="48.76766" lon="2.16347">
        <ele>125.80000305176</ele>
        <time>2021-03-28T09:03:48Z</time>
      </trkpt>
      <trkpt lat="48.76767" lon="2.16353">
        <ele>126.80000305176</ele>
        <time>2021-03-28T09:03:52Z</time>
      </trkpt>
      <trkpt lat="48.76769" lon="2.16359">
        <ele>127.80000305176</ele>
        <time>2021-03-28T09:03:56Z</time>
      </trkpt>
      <trkpt lat="48.7677" lon="2.1636">
        <ele>128.19999694824</ele>
        <time>2021-03-28T09:03:57Z</time>
      </trkpt>
      <trkpt lat="48.76772" lon="2.16365">
        <ele>128.80000305176</ele>
        <time>2021-03-28T09:04:00Z</time>
      </trkpt>
      <trkpt lat="48.76773" lon="2.16376">
        <ele>130</ele>
        <time>2021-03-28T09:04:07Z</time>
      </trkpt>
      <trkpt lat="48.76774" lon="2.1638">
        <ele>131</ele>
        <time>2021-03-28T09:04:10Z</time>
      </trkpt>
      <trkpt lat="48.76777" lon="2.16385">
        <ele>131.60000610352</ele>
        <time>2021-03-28T09:04:14Z</time>
      </trkpt>
      <trkpt lat="48.76779" lon="2.16387">
        <ele>132.19999694824</ele>
        <time>2021-03-28T09:04:16Z</time>
      </trkpt>
      <trkpt lat="48.76781" lon="2.16388">
        <ele>132.80000305176</ele>
        <time>2021-03-28T09:04:18Z</time>
      </trkpt>
      <trkpt lat="48.76784" lon="2.16389">
        <ele>133.39999389648</ele>
        <time>2021-03-28T09:04:21Z</time>
      </trkpt>
      <trkpt lat="48.76785" lon="2.16389">
        <ele>133.60000610352</ele>
        <time>2021-03-28T09:04:22Z</time>
      </trkpt>
      <trkpt lat="48.76787" lon="2.16393">
        <ele>134.39999389648</ele>
        <time>2021-03-28T09:04:27Z</time>
      </trkpt>
      <trkpt lat="48.76788" lon="2.16393">
        <ele>134.39999389648</ele>
        <time>2021-03-28T09:04:28Z</time>
      </trkpt>
      <trkpt lat="48.76792" lon="2.16398">
        <ele>135.60000610352</ele>
        <time>2021-03-28T09:04:34Z</time>
      </trkpt>
      <trkpt lat="48.76793" lon="2.16398">
        <ele>135.60000610352</ele>
        <time>2021-03-28T09:04:35Z</time>
      </trkpt>
      <trkpt lat="48.76796" lon="2.164">
        <ele>136.80000305176</ele>
        <time>2021-03-28T09:04:40Z</time>
      </trkpt>
      <trkpt lat="48.768" lon="2.16401">
        <ele>137.60000610352</ele>
        <time>2021-03-28T09:04:47Z</time>
      </trkpt>
      <trkpt lat="48.76803" lon="2.16402">
        <ele>138</ele>
        <time>2021-03-28T09:04:50Z</time>
      </trkpt>
      <trkpt lat="48.76813" lon="2.16407">
        <ele>139</ele>
        <time>2021-03-28T09:04:58Z</time>
      </trkpt>
      <trkpt lat="48.76825" lon="2.16409">
        <ele>140.19999694824</ele>
        <time>2021-03-28T09:05:08Z</time>
      </trkpt>
      <trkpt lat="48.76826" lon="2.16409">
        <ele>140.39999389648</ele>
        <time>2021-03-28T09:05:09Z</time>
      </trkpt>
      <trkpt lat="48.76829" lon="2.16411">
        <ele>141</ele>
        <time>2021-03-28T09:05:15Z</time>
      </trkpt>
      <trkpt lat="48.7683" lon="2.1641">
        <ele>141.39999389648</ele>
        <time>2021-03-28T09:05:17Z</time>
      </trkpt>
      <trkpt lat="48.76831" lon="2.16408">
        <ele>142</ele>
        <time>2021-03-28T09:05:26Z</time>
      </trkpt>
      <trkpt lat="48.76832" lon="2.16401">
        <ele>142</ele>
        <time>2021-03-28T09:05:37Z</time>
      </trkpt>
      <trkpt lat="48.76834" lon="2.16392">
        <ele>142</ele>
        <time>2021-03-28T09:05:44Z</time>
      </trkpt>
      <trkpt lat="48.76836" lon="2.1638">
        <ele>141.80000305176</ele>
        <time>2021-03-28T09:05:51Z</time>
      </trkpt>
      <trkpt lat="48.7684" lon="2.16364">
        <ele>140.80000305176</ele>
        <time>2021-03-28T09:06:05Z</time>
      </trkpt>
      <trkpt lat="48.76851" lon="2.1635">
        <ele>140.60000610352</ele>
        <time>2021-03-28T09:06:19Z</time>
      </trkpt>
      <trkpt lat="48.7686" lon="2.16331">
        <ele>140.19999694824</ele>
        <time>2021-03-28T09:06:33Z</time>
      </trkpt>
      <trkpt lat="48.76866" lon="2.16305">
        <ele>139.80000305176</ele>
        <time>2021-03-28T09:06:49Z</time>
      </trkpt>
      <trkpt lat="48.76863" lon="2.16276">
        <ele>139.80000305176</ele>
        <time>2021-03-28T09:07:02Z</time>
      </trkpt>
      <trkpt lat="48.76859" lon="2.16254">
        <ele>139.60000610352</ele>
        <time>2021-03-28T09:07:17Z</time>
      </trkpt>
      <trkpt lat="48.76856" lon="2.16245">
        <ele>139.60000610352</ele>
        <time>2021-03-28T09:07:23Z</time>
      </trkpt>
      <trkpt lat="48.76852" lon="2.16231">
        <ele>139.19999694824</ele>
        <time>2021-03-28T09:07:31Z</time>
      </trkpt>
      <trkpt lat="48.76843" lon="2.16204">
        <ele>139.19999694824</ele>
        <time>2021-03-28T09:07:47Z</time>
      </trkpt>
      <trkpt lat="48.76838" lon="2.1618">
        <ele>138.60000610352</ele>
        <time>2021-03-28T09:08:00Z</time>
      </trkpt>
      <trkpt lat="48.76835" lon="2.16172">
        <ele>138.39999389648</ele>
        <time>2021-03-28T09:08:06Z</time>
      </trkpt>
      <trkpt lat="48.76828" lon="2.16158">
        <ele>138</ele>
        <time>2021-03-28T09:08:17Z</time>
      </trkpt>
      <trkpt lat="48.76826" lon="2.16149">
        <ele>137.39999389648</ele>
        <time>2021-03-28T09:08:24Z</time>
      </trkpt>
      <trkpt lat="48.76823" lon="2.16138">
        <ele>137</ele>
        <time>2021-03-28T09:08:32Z</time>
      </trkpt>
      <trkpt lat="48.76821" lon="2.16114">
        <ele>137</ele>
        <time>2021-03-28T09:08:45Z</time>
      </trkpt>
      <trkpt lat="48.76823" lon="2.16084">
        <ele>136.60000610352</ele>
        <time>2021-03-28T09:09:01Z</time>
      </trkpt>
      <trkpt lat="48.76823" lon="2.1608">
        <ele>136.39999389648</ele>
        <time>2021-03-28T09:09:03Z</time>
      </trkpt>
      <trkpt lat="48.76824" lon="2.1606">
        <ele>135.60000610352</ele>
        <time>2021-03-28T09:09:14Z</time>
      </trkpt>
      <trkpt lat="48.76827" lon="2.16051">
        <ele>135.39999389648</ele>
        <time>2021-03-28T09:09:20Z</time>
      </trkpt>
      <trkpt lat="48.7683" lon="2.16034">
        <ele>135</ele>
        <time>2021-03-28T09:09:29Z</time>
      </trkpt>
      <trkpt lat="48.76833" lon="2.16014">
        <ele>134.60000610352</ele>
        <time>2021-03-28T09:09:42Z</time>
      </trkpt>
      <trkpt lat="48.76842" lon="2.16002">
        <ele>135</ele>
        <time>2021-03-28T09:09:57Z</time>
      </trkpt>
      <trkpt lat="48.76853" lon="2.16002">
        <ele>135.39999389648</ele>
        <time>2021-03-28T09:10:06Z</time>
      </trkpt>
      <trkpt lat="48.76856" lon="2.16002">
        <ele>135.60000610352</ele>
        <time>2021-03-28T09:10:08Z</time>
      </trkpt>
      <trkpt lat="48.76862" lon="2.16002">
        <ele>136.60000610352</ele>
        <time>2021-03-28T09:10:14Z</time>
      </trkpt>
      <trkpt lat="48.76868" lon="2.16004">
        <ele>137.80000305176</ele>
        <time>2021-03-28T09:10:20Z</time>
      </trkpt>
      <trkpt lat="48.7687" lon="2.16006">
        <ele>138.19999694824</ele>
        <time>2021-03-28T09:10:23Z</time>
      </trkpt>
      <trkpt lat="48.76883" lon="2.16006">
        <ele>138.80000305176</ele>
        <time>2021-03-28T09:10:35Z</time>
      </trkpt>
      <trkpt lat="48.769" lon="2.16008">
        <ele>139.80000305176</ele>
        <time>2021-03-28T09:10:49Z</time>
      </trkpt>
      <trkpt lat="48.76908" lon="2.16008">
        <ele>140.19999694824</ele>
        <time>2021-03-28T09:10:56Z</time>
      </trkpt>
      <trkpt lat="48.76913" lon="2.16007">
        <ele>140.80000305176</ele>
        <time>2021-03-28T09:11:01Z</time>
      </trkpt>
      <trkpt lat="48.76925" lon="2.16011">
        <ele>141.19999694824</ele>
        <time>2021-03-28T09:11:13Z</time>
      </trkpt>
      <trkpt lat="48.76934" lon="2.16011">
        <ele>141.80000305176</ele>
        <time>2021-03-28T09:11:26Z</time>
      </trkpt>
      <trkpt lat="48.76934" lon="2.16011">
        <ele>141.80000305176</ele>
        <time>2021-03-28T09:11:27Z</time>
      </trkpt>
      <trkpt lat="48.7695" lon="2.16011">
        <ele>142.60000610352</ele>
        <time>2021-03-28T09:11:40Z</time>
      </trkpt>
      <trkpt lat="48.76956" lon="2.16011">
        <ele>142.80000305176</ele>
        <time>2021-03-28T09:11:46Z</time>
      </trkpt>
      <trkpt lat="48.76969" lon="2.16013">
        <ele>143.39999389648</ele>
        <time>2021-03-28T09:11:57Z</time>
      </trkpt>
      <trkpt lat="48.76988" lon="2.16015">
        <ele>144</ele>
        <time>2021-03-28T09:12:12Z</time>
      </trkpt>
      <trkpt lat="48.77012" lon="2.1601">
        <ele>145</ele>
        <time>2021-03-28T09:12:31Z</time>
      </trkpt>
      <trkpt lat="48.77013" lon="2.1601">
        <ele>145</ele>
        <time>2021-03-28T09:12:32Z</time>
      </trkpt>
      <trkpt lat="48.77022" lon="2.16017">
        <ele>145.60000610352</ele>
        <time>2021-03-28T09:12:41Z</time>
      </trkpt>
      <trkpt lat="48.77026" lon="2.16019">
        <ele>146</ele>
        <time>2021-03-28T09:12:45Z</time>
      </trkpt>
      <trkpt lat="48.77033" lon="2.1602">
        <ele>146.60000610352</ele>
        <time>2021-03-28T09:12:51Z</time>
      </trkpt>
      <trkpt lat="48.77037" lon="2.16021">
        <ele>147</ele>
        <time>2021-03-28T09:12:55Z</time>
      </trkpt>
      <trkpt lat="48.7704" lon="2.16022">
        <ele>147.19999694824</ele>
        <time>2021-03-28T09:12:58Z</time>
      </trkpt>
      <trkpt lat="48.77049" lon="2.16025">
        <ele>147.80000305176</ele>
        <time>2021-03-28T09:13:07Z</time>
      </trkpt>
      <trkpt lat="48.77051" lon="2.16025">
        <ele>148</ele>
        <time>2021-03-28T09:13:09Z</time>
      </trkpt>
      <trkpt lat="48.77056" lon="2.16025">
        <ele>148.39999389648</ele>
        <time>2021-03-28T09:13:14Z</time>
      </trkpt>
      <trkpt lat="48.77066" lon="2.16028">
        <ele>149</ele>
        <time>2021-03-28T09:13:23Z</time>
      </trkpt>
      <trkpt lat="48.77078" lon="2.16029">
        <ele>149.60000610352</ele>
        <time>2021-03-28T09:13:32Z</time>
      </trkpt>
      <trkpt lat="48.7708" lon="2.16027">
        <ele>149.80000305176</ele>
        <time>2021-03-28T09:13:36Z</time>
      </trkpt>
      <trkpt lat="48.77081" lon="2.16025">
        <ele>150</ele>
        <time>2021-03-28T09:13:38Z</time>
      </trkpt>
      <trkpt lat="48.77081" lon="2.16024">
        <ele>150.19999694824</ele>
        <time>2021-03-28T09:13:39Z</time>
      </trkpt>
      <trkpt lat="48.77082" lon="2.16023">
        <ele>150.19999694824</ele>
        <time>2021-03-28T09:13:40Z</time>
      </trkpt>
      <trkpt lat="48.77083" lon="2.16017">
        <ele>150.19999694824</ele>
        <time>2021-03-28T09:13:45Z</time>
      </trkpt>
      <trkpt lat="48.77087" lon="2.16003">
        <ele>150</ele>
        <time>2021-03-28T09:13:54Z</time>
      </trkpt>
      <trkpt lat="48.77088" lon="2.15988">
        <ele>149.39999389648</ele>
        <time>2021-03-28T09:14:03Z</time>
      </trkpt>
      <trkpt lat="48.77089" lon="2.15982">
        <ele>149</ele>
        <time>2021-03-28T09:14:07Z</time>
      </trkpt>
      <trkpt lat="48.77091" lon="2.15978">
        <ele>148.60000610352</ele>
        <time>2021-03-28T09:14:10Z</time>
      </trkpt>
      <trkpt lat="48.77091" lon="2.15976">
        <ele>148.39999389648</ele>
        <time>2021-03-28T09:14:11Z</time>
      </trkpt>
      <trkpt lat="48.77093" lon="2.15971">
        <ele>148</ele>
        <time>2021-03-28T09:14:15Z</time>
      </trkpt>
      <trkpt lat="48.77094" lon="2.15966">
        <ele>147.39999389648</ele>
        <time>2021-03-28T09:14:19Z</time>
      </trkpt>
      <trkpt lat="48.77095" lon="2.15954">
        <ele>147.19999694824</ele>
        <time>2021-03-28T09:14:27Z</time>
      </trkpt>
      <trkpt lat="48.77095" lon="2.15943">
        <ele>147.80000305176</ele>
        <time>2021-03-28T09:14:36Z</time>
      </trkpt>
      <trkpt lat="48.77093" lon="2.15929">
        <ele>149</ele>
        <time>2021-03-28T09:14:44Z</time>
      </trkpt>
      <trkpt lat="48.77091" lon="2.15923">
        <ele>149.39999389648</ele>
        <time>2021-03-28T09:14:50Z</time>
      </trkpt>
      <trkpt lat="48.77084" lon="2.15917">
        <ele>149.60000610352</ele>
        <time>2021-03-28T09:14:58Z</time>
      </trkpt>
      <trkpt lat="48.7707" lon="2.15898">
        <ele>149</ele>
        <time>2021-03-28T09:15:13Z</time>
      </trkpt>
      <trkpt lat="48.77054" lon="2.15883">
        <ele>148.39999389648</ele>
        <time>2021-03-28T09:15:28Z</time>
      </trkpt>
      <trkpt lat="48.77047" lon="2.15877">
        <ele>148</ele>
        <time>2021-03-28T09:15:36Z</time>
      </trkpt>
      <trkpt lat="48.77041" lon="2.15871">
        <ele>147.60000610352</ele>
        <time>2021-03-28T09:15:43Z</time>
      </trkpt>
      <trkpt lat="48.77031" lon="2.15862">
        <ele>146.80000305176</ele>
        <time>2021-03-28T09:15:53Z</time>
      </trkpt>
      <trkpt lat="48.77023" lon="2.15856">
        <ele>146.60000610352</ele>
        <time>2021-03-28T09:16:01Z</time>
      </trkpt>
      <trkpt lat="48.77017" lon="2.15852">
        <ele>145.80000305176</ele>
        <time>2021-03-28T09:16:07Z</time>
      </trkpt>
      <trkpt lat="48.77011" lon="2.15845">
        <ele>145</ele>
        <time>2021-03-28T09:16:15Z</time>
      </trkpt>
      <trkpt lat="48.7701" lon="2.15842">
        <ele>144.80000305176</ele>
        <time>2021-03-28T09:16:20Z</time>
      </trkpt>
      <trkpt lat="48.77007" lon="2.15841">
        <ele>144.60000610352</ele>
        <time>2021-03-28T09:16:29Z</time>
      </trkpt>
      <trkpt lat="48.77008" lon="2.15841">
        <ele>144.80000305176</ele>
        <time>2021-03-28T09:16:40Z</time>
      </trkpt>
      <trkpt lat="48.7701" lon="2.15837">
        <ele>144.60000610352</ele>
        <time>2021-03-28T09:16:57Z</time>
      </trkpt>
      <trkpt lat="48.77011" lon="2.15838">
        <ele>144.60000610352</ele>
        <time>2021-03-28T09:17:10Z</time>
      </trkpt>
      <trkpt lat="48.7701" lon="2.15836">
        <ele>144.80000305176</ele>
        <time>2021-03-28T09:17:24Z</time>
      </trkpt>
      <trkpt lat="48.77009" lon="2.15834">
        <ele>144.60000610352</ele>
        <time>2021-03-28T09:17:40Z</time>
      </trkpt>
      <trkpt lat="48.77005" lon="2.15821">
        <ele>145</ele>
        <time>2021-03-28T09:17:53Z</time>
      </trkpt>
      <trkpt lat="48.77002" lon="2.15811">
        <ele>145.80000305176</ele>
        <time>2021-03-28T09:18:01Z</time>
      </trkpt>
      <trkpt lat="48.77" lon="2.15799">
        <ele>146</ele>
        <time>2021-03-28T09:18:11Z</time>
      </trkpt>
      <trkpt lat="48.76996" lon="2.15778">
        <ele>145.80000305176</ele>
        <time>2021-03-28T09:18:25Z</time>
      </trkpt>
      <trkpt lat="48.76997" lon="2.15754">
        <ele>145.80000305176</ele>
        <time>2021-03-28T09:18:40Z</time>
      </trkpt>
      <trkpt lat="48.76999" lon="2.15724">
        <ele>145.60000610352</ele>
        <time>2021-03-28T09:18:55Z</time>
      </trkpt>
      <trkpt lat="48.76999" lon="2.157">
        <ele>144.80000305176</ele>
        <time>2021-03-28T09:19:10Z</time>
      </trkpt>
      <trkpt lat="48.76999" lon="2.15696">
        <ele>144.60000610352</ele>
        <time>2021-03-28T09:19:12Z</time>
      </trkpt>
      <trkpt lat="48.76996" lon="2.15676">
        <ele>143.60000610352</ele>
        <time>2021-03-28T09:19:24Z</time>
      </trkpt>
      <trkpt lat="48.76996" lon="2.15672">
        <ele>143.60000610352</ele>
        <time>2021-03-28T09:19:26Z</time>
      </trkpt>
      <trkpt lat="48.76993" lon="2.1565">
        <ele>143</ele>
        <time>2021-03-28T09:19:41Z</time>
      </trkpt>
      <trkpt lat="48.76992" lon="2.15643">
        <ele>142.80000305176</ele>
        <time>2021-03-28T09:19:45Z</time>
      </trkpt>
      <trkpt lat="48.76995" lon="2.15626">
        <ele>141.80000305176</ele>
        <time>2021-03-28T09:19:57Z</time>
      </trkpt>
      <trkpt lat="48.77002" lon="2.1561">
        <ele>141.19999694824</ele>
        <time>2021-03-28T09:20:11Z</time>
      </trkpt>
      <trkpt lat="48.77004" lon="2.15603">
        <ele>140.80000305176</ele>
        <time>2021-03-28T09:20:17Z</time>
      </trkpt>
      <trkpt lat="48.77011" lon="2.15585">
        <ele>140.60000610352</ele>
        <time>2021-03-28T09:20:27Z</time>
      </trkpt>
      <trkpt lat="48.77017" lon="2.15558">
        <ele>140.80000305176</ele>
        <time>2021-03-28T09:20:42Z</time>
      </trkpt>
      <trkpt lat="48.77017" lon="2.15552">
        <ele>140.80000305176</ele>
        <time>2021-03-28T09:20:45Z</time>
      </trkpt>
      <trkpt lat="48.77023" lon="2.15534">
        <ele>140.39999389648</ele>
        <time>2021-03-28T09:20:56Z</time>
      </trkpt>
      <trkpt lat="48.77026" lon="2.15507">
        <ele>140.39999389648</ele>
        <time>2021-03-28T09:21:10Z</time>
      </trkpt>
      <trkpt lat="48.7703" lon="2.15484">
        <ele>140.80000305176</ele>
        <time>2021-03-28T09:21:25Z</time>
      </trkpt>
      <trkpt lat="48.77032" lon="2.15453">
        <ele>140.80000305176</ele>
        <time>2021-03-28T09:21:43Z</time>
      </trkpt>
      <trkpt lat="48.77034" lon="2.15427">
        <ele>140.19999694824</ele>
        <time>2021-03-28T09:21:59Z</time>
      </trkpt>
      <trkpt lat="48.77037" lon="2.15398">
        <ele>139.80000305176</ele>
        <time>2021-03-28T09:22:13Z</time>
      </trkpt>
      <trkpt lat="48.77036" lon="2.15397">
        <ele>139.80000305176</ele>
        <time>2021-03-28T09:22:14Z</time>
      </trkpt>
      <trkpt lat="48.77035" lon="2.15375">
        <ele>138.80000305176</ele>
        <time>2021-03-28T09:22:27Z</time>
      </trkpt>
      <trkpt lat="48.77034" lon="2.15367">
        <ele>138.19999694824</ele>
        <time>2021-03-28T09:22:32Z</time>
      </trkpt>
      <trkpt lat="48.77034" lon="2.15351">
        <ele>137.80000305176</ele>
        <time>2021-03-28T09:22:40Z</time>
      </trkpt>
      <trkpt lat="48.77033" lon="2.15341">
        <ele>137.39999389648</ele>
        <time>2021-03-28T09:22:46Z</time>
      </trkpt>
      <trkpt lat="48.77027" lon="2.15318">
        <ele>136.60000610352</ele>
        <time>2021-03-28T09:23:00Z</time>
      </trkpt>
      <trkpt lat="48.77021" lon="2.15305">
        <ele>135.39999389648</ele>
        <time>2021-03-28T09:23:10Z</time>
      </trkpt>
      <trkpt lat="48.7702" lon="2.15292">
        <ele>135</ele>
        <time>2021-03-28T09:23:18Z</time>
      </trkpt>
      <trkpt lat="48.77018" lon="2.15277">
        <ele>134.60000610352</ele>
        <time>2021-03-28T09:23:26Z</time>
      </trkpt>
      <trkpt lat="48.77017" lon="2.15259">
        <ele>134.19999694824</ele>
        <time>2021-03-28T09:23:36Z</time>
      </trkpt>
      <trkpt lat="48.77015" lon="2.15232">
        <ele>134</ele>
        <time>2021-03-28T09:23:53Z</time>
      </trkpt>
      <trkpt lat="48.77014" lon="2.15204">
        <ele>134.19999694824</ele>
        <time>2021-03-28T09:24:10Z</time>
      </trkpt>
      <trkpt lat="48.77015" lon="2.15191">
        <ele>134.19999694824</ele>
        <time>2021-03-28T09:24:24Z</time>
      </trkpt>
      <trkpt lat="48.77016" lon="2.15187">
        <ele>134.60000610352</ele>
        <time>2021-03-28T09:24:38Z</time>
      </trkpt>
      <trkpt lat="48.7701" lon="2.15172">
        <ele>134</ele>
        <time>2021-03-28T09:24:49Z</time>
      </trkpt>
      <trkpt lat="48.77007" lon="2.15163">
        <ele>133.60000610352</ele>
        <time>2021-03-28T09:24:56Z</time>
      </trkpt>
      <trkpt lat="48.77005" lon="2.1515">
        <ele>133.60000610352</ele>
        <time>2021-03-28T09:25:05Z</time>
      </trkpt>
      <trkpt lat="48.77003" lon="2.15131">
        <ele>133.39999389648</ele>
        <time>2021-03-28T09:25:19Z</time>
      </trkpt>
      <trkpt lat="48.76999" lon="2.1511">
        <ele>133</ele>
        <time>2021-03-28T09:25:32Z</time>
      </trkpt>
      <trkpt lat="48.76999" lon="2.15083">
        <ele>132.80000305176</ele>
        <time>2021-03-28T09:25:47Z</time>
      </trkpt>
      <trkpt lat="48.77" lon="2.15081">
        <ele>132.80000305176</ele>
        <time>2021-03-28T09:25:48Z</time>
      </trkpt>
      <trkpt lat="48.77002" lon="2.15059">
        <ele>132.19999694824</ele>
        <time>2021-03-28T09:26:02Z</time>
      </trkpt>
      <trkpt lat="48.77004" lon="2.15049">
        <ele>131.80000305176</ele>
        <time>2021-03-28T09:26:09Z</time>
      </trkpt>
      <trkpt lat="48.77006" lon="2.15038">
        <ele>131.60000610352</ele>
        <time>2021-03-28T09:26:16Z</time>
      </trkpt>
      <trkpt lat="48.77008" lon="2.15029">
        <ele>131.19999694824</ele>
        <time>2021-03-28T09:26:21Z</time>
      </trkpt>
      <trkpt lat="48.77008" lon="2.15026">
        <ele>130.80000305176</ele>
        <time>2021-03-28T09:26:23Z</time>
      </trkpt>
      <trkpt lat="48.77008" lon="2.15021">
        <ele>130.39999389648</ele>
        <time>2021-03-28T09:26:30Z</time>
      </trkpt>
      <trkpt lat="48.77008" lon="2.15017">
        <ele>130</ele>
        <time>2021-03-28T09:26:46Z</time>
      </trkpt>
      <trkpt lat="48.77009" lon="2.15014">
        <ele>129.80000305176</ele>
        <time>2021-03-28T09:26:49Z</time>
      </trkpt>
      <trkpt lat="48.7701" lon="2.15005">
        <ele>129.39999389648</ele>
        <time>2021-03-28T09:26:56Z</time>
      </trkpt>
      <trkpt lat="48.7701" lon="2.15004">
        <ele>129</ele>
        <time>2021-03-28T09:27:08Z</time>
      </trkpt>
      <trkpt lat="48.7701" lon="2.15004">
        <ele>129</ele>
        <time>2021-03-28T09:27:10Z</time>
      </trkpt>
      <trkpt lat="48.7701" lon="2.15006">
        <ele>128.80000305176</ele>
        <time>2021-03-28T09:27:25Z</time>
      </trkpt>
      <trkpt lat="48.7701" lon="2.15001">
        <ele>128.60000610352</ele>
        <time>2021-03-28T09:27:39Z</time>
      </trkpt>
      <trkpt lat="48.7701" lon="2.14996">
        <ele>128</ele>
        <time>2021-03-28T09:27:43Z</time>
      </trkpt>
      <trkpt lat="48.77009" lon="2.14984">
        <ele>127.40000152588</ele>
        <time>2021-03-28T09:27:55Z</time>
      </trkpt>
      <trkpt lat="48.77015" lon="2.14975">
        <ele>128</ele>
        <time>2021-03-28T09:28:11Z</time>
      </trkpt>
      <trkpt lat="48.77012" lon="2.14975">
        <ele>127.80000305176</ele>
        <time>2021-03-28T09:28:26Z</time>
      </trkpt>
      <trkpt lat="48.77017" lon="2.14965">
        <ele>127.40000152588</ele>
        <time>2021-03-28T09:28:37Z</time>
      </trkpt>
      <trkpt lat="48.77019" lon="2.1496">
        <ele>127.40000152588</ele>
        <time>2021-03-28T09:28:41Z</time>
      </trkpt>
      <trkpt lat="48.77025" lon="2.14949">
        <ele>126.80000305176</ele>
        <time>2021-03-28T09:28:51Z</time>
      </trkpt>
      <trkpt lat="48.77026" lon="2.14943">
        <ele>126</ele>
        <time>2021-03-28T09:28:56Z</time>
      </trkpt>
      <trkpt lat="48.7703" lon="2.14936">
        <ele>125</ele>
        <time>2021-03-28T09:29:03Z</time>
      </trkpt>
      <trkpt lat="48.77032" lon="2.14928">
        <ele>124.40000152588</ele>
        <time>2021-03-28T09:29:08Z</time>
      </trkpt>
      <trkpt lat="48.77033" lon="2.14925">
        <ele>124</ele>
        <time>2021-03-28T09:29:10Z</time>
      </trkpt>
      <trkpt lat="48.77036" lon="2.14919">
        <ele>122.80000305176</ele>
        <time>2021-03-28T09:29:17Z</time>
      </trkpt>
      <trkpt lat="48.77039" lon="2.14911">
        <ele>121.59999847412</ele>
        <time>2021-03-28T09:29:23Z</time>
      </trkpt>
      <trkpt lat="48.77039" lon="2.14907">
        <ele>121.19999694824</ele>
        <time>2021-03-28T09:29:26Z</time>
      </trkpt>
      <trkpt lat="48.77042" lon="2.14901">
        <ele>120.59999847412</ele>
        <time>2021-03-28T09:29:31Z</time>
      </trkpt>
      <trkpt lat="48.77046" lon="2.14891">
        <ele>119.59999847412</ele>
        <time>2021-03-28T09:29:39Z</time>
      </trkpt>
      <trkpt lat="48.77047" lon="2.14888">
        <ele>119.40000152588</ele>
        <time>2021-03-28T09:29:41Z</time>
      </trkpt>
      <trkpt lat="48.77049" lon="2.14883">
        <ele>118.59999847412</ele>
        <time>2021-03-28T09:29:46Z</time>
      </trkpt>
      <trkpt lat="48.77051" lon="2.14876">
        <ele>117.40000152588</ele>
        <time>2021-03-28T09:29:52Z</time>
      </trkpt>
      <trkpt lat="48.77054" lon="2.1487">
        <ele>116.80000305176</ele>
        <time>2021-03-28T09:29:56Z</time>
      </trkpt>
      <trkpt lat="48.77056" lon="2.14867">
        <ele>116.40000152588</ele>
        <time>2021-03-28T09:29:59Z</time>
      </trkpt>
      <trkpt lat="48.7706" lon="2.14859">
        <ele>115.19999694824</ele>
        <time>2021-03-28T09:30:04Z</time>
      </trkpt>
      <trkpt lat="48.77067" lon="2.14852">
        <ele>114.19999694824</ele>
        <time>2021-03-28T09:30:10Z</time>
      </trkpt>
      <trkpt lat="48.7707" lon="2.14848">
        <ele>113.80000305176</ele>
        <time>2021-03-28T09:30:12Z</time>
      </trkpt>
      <trkpt lat="48.77072" lon="2.14845">
        <ele>113.19999694824</ele>
        <time>2021-03-28T09:30:14Z</time>
      </trkpt>
      <trkpt lat="48.77074" lon="2.14842">
        <ele>113</ele>
        <time>2021-03-28T09:30:16Z</time>
      </trkpt>
      <trkpt lat="48.7708" lon="2.14832">
        <ele>112</ele>
        <time>2021-03-28T09:30:23Z</time>
      </trkpt>
      <trkpt lat="48.77082" lon="2.14827">
        <ele>111</ele>
        <time>2021-03-28T09:30:27Z</time>
      </trkpt>
      <trkpt lat="48.77082" lon="2.14826">
        <ele>111</ele>
        <time>2021-03-28T09:30:28Z</time>
      </trkpt>
      <trkpt lat="48.77087" lon="2.14817">
        <ele>109.80000305176</ele>
        <time>2021-03-28T09:30:35Z</time>
      </trkpt>
      <trkpt lat="48.77093" lon="2.14806">
        <ele>109</ele>
        <time>2021-03-28T09:30:43Z</time>
      </trkpt>
      <trkpt lat="48.77094" lon="2.14805">
        <ele>108.80000305176</ele>
        <time>2021-03-28T09:30:44Z</time>
      </trkpt>
      <trkpt lat="48.771" lon="2.14797">
        <ele>107.59999847412</ele>
        <time>2021-03-28T09:30:50Z</time>
      </trkpt>
      <trkpt lat="48.77109" lon="2.14788">
        <ele>107</ele>
        <time>2021-03-28T09:30:58Z</time>
      </trkpt>
      <trkpt lat="48.77113" lon="2.14785">
        <ele>106.59999847412</ele>
        <time>2021-03-28T09:31:02Z</time>
      </trkpt>
      <trkpt lat="48.77118" lon="2.14785">
        <ele>105.40000152588</ele>
        <time>2021-03-28T09:31:07Z</time>
      </trkpt>
      <trkpt lat="48.77123" lon="2.14785">
        <ele>104.40000152588</ele>
        <time>2021-03-28T09:31:12Z</time>
      </trkpt>
      <trkpt lat="48.77123" lon="2.14786">
        <ele>104</ele>
        <time>2021-03-28T09:31:13Z</time>
      </trkpt>
      <trkpt lat="48.77127" lon="2.14788">
        <ele>103</ele>
        <time>2021-03-28T09:31:23Z</time>
      </trkpt>
      <trkpt lat="48.77128" lon="2.14789">
        <ele>102.59999847412</ele>
        <time>2021-03-28T09:31:26Z</time>
      </trkpt>
      <trkpt lat="48.77134" lon="2.14792">
        <ele>102</ele>
        <time>2021-03-28T09:31:33Z</time>
      </trkpt>
      <trkpt lat="48.77138" lon="2.14794">
        <ele>101.40000152588</ele>
        <time>2021-03-28T09:31:36Z</time>
      </trkpt>
      <trkpt lat="48.77139" lon="2.14794">
        <ele>101</ele>
        <time>2021-03-28T09:31:38Z</time>
      </trkpt>
      <trkpt lat="48.7714" lon="2.14795">
        <ele>100.80000305176</ele>
        <time>2021-03-28T09:31:39Z</time>
      </trkpt>
      <trkpt lat="48.77146" lon="2.14797">
        <ele>99.800003051758</ele>
        <time>2021-03-28T09:31:48Z</time>
      </trkpt>
      <trkpt lat="48.77149" lon="2.14793">
        <ele>99.400001525879</ele>
        <time>2021-03-28T09:31:51Z</time>
      </trkpt>
      <trkpt lat="48.77152" lon="2.14786">
        <ele>99</ele>
        <time>2021-03-28T09:31:55Z</time>
      </trkpt>
      <trkpt lat="48.77153" lon="2.14784">
        <ele>98.599998474121</ele>
        <time>2021-03-28T09:31:57Z</time>
      </trkpt>
      <trkpt lat="48.77156" lon="2.1478">
        <ele>97.599998474121</ele>
        <time>2021-03-28T09:32:02Z</time>
      </trkpt>
      <trkpt lat="48.77157" lon="2.14779">
        <ele>97.199996948242</ele>
        <time>2021-03-28T09:32:03Z</time>
      </trkpt>
      <trkpt lat="48.77159" lon="2.14775">
        <ele>97</ele>
        <time>2021-03-28T09:32:15Z</time>
      </trkpt>
      <trkpt lat="48.77159" lon="2.14775">
        <ele>96.800003051758</ele>
        <time>2021-03-28T09:32:30Z</time>
      </trkpt>
      <trkpt lat="48.77159" lon="2.1478">
        <ele>97</ele>
        <time>2021-03-28T09:32:48Z</time>
      </trkpt>
      <trkpt lat="48.77163" lon="2.14775">
        <ele>97</ele>
        <time>2021-03-28T09:33:03Z</time>
      </trkpt>
      <trkpt lat="48.77163" lon="2.14777">
        <ele>97.199996948242</ele>
        <time>2021-03-28T09:33:23Z</time>
      </trkpt>
      <trkpt lat="48.77162" lon="2.14773">
        <ele>97.199996948242</ele>
        <time>2021-03-28T09:33:40Z</time>
      </trkpt>
      <trkpt lat="48.77163" lon="2.14757">
        <ele>97.199996948242</ele>
        <time>2021-03-28T09:33:53Z</time>
      </trkpt>
      <trkpt lat="48.77173" lon="2.14753">
        <ele>96.800003051758</ele>
        <time>2021-03-28T09:34:05Z</time>
      </trkpt>
      <trkpt lat="48.77173" lon="2.14758">
        <ele>97.400001525879</ele>
        <time>2021-03-28T09:34:22Z</time>
      </trkpt>
      <trkpt lat="48.77172" lon="2.14763">
        <ele>97</ele>
        <time>2021-03-28T09:34:37Z</time>
      </trkpt>
      <trkpt lat="48.77173" lon="2.14762">
        <ele>97</ele>
        <time>2021-03-28T09:34:48Z</time>
      </trkpt>
      <trkpt lat="48.77168" lon="2.14764">
        <ele>97</ele>
        <time>2021-03-28T09:35:05Z</time>
      </trkpt>
      <trkpt lat="48.77163" lon="2.14759">
        <ele>97</ele>
        <time>2021-03-28T09:35:22Z</time>
      </trkpt>
      <trkpt lat="48.77163" lon="2.14759">
        <ele>96.800003051758</ele>
        <time>2021-03-28T09:35:33Z</time>
      </trkpt>
      <trkpt lat="48.77165" lon="2.14751">
        <ele>96.800003051758</ele>
        <time>2021-03-28T09:35:43Z</time>
      </trkpt>
      <trkpt lat="48.77165" lon="2.14746">
        <ele>97</ele>
        <time>2021-03-28T09:35:53Z</time>
      </trkpt>
      <trkpt lat="48.77158" lon="2.14745">
        <ele>97</ele>
        <time>2021-03-28T09:36:03Z</time>
      </trkpt>
      <trkpt lat="48.7715" lon="2.14744">
        <ele>96.800003051758</ele>
        <time>2021-03-28T09:36:15Z</time>
      </trkpt>
      <trkpt lat="48.77136" lon="2.1474">
        <ele>96.800003051758</ele>
        <time>2021-03-28T09:36:28Z</time>
      </trkpt>
      <trkpt lat="48.77132" lon="2.14738">
        <ele>96.800003051758</ele>
        <time>2021-03-28T09:36:31Z</time>
      </trkpt>
      <trkpt lat="48.77121" lon="2.14735">
        <ele>95.800003051758</ele>
        <time>2021-03-28T09:36:43Z</time>
      </trkpt>
      <trkpt lat="48.77111" lon="2.14729">
        <ele>95.400001525879</ele>
        <time>2021-03-28T09:36:57Z</time>
      </trkpt>
      <trkpt lat="48.77104" lon="2.14722">
        <ele>95</ele>
        <time>2021-03-28T09:37:02Z</time>
      </trkpt>
      <trkpt lat="48.77099" lon="2.14714">
        <ele>94.199996948242</ele>
        <time>2021-03-28T09:37:09Z</time>
      </trkpt>
      <trkpt lat="48.77097" lon="2.14711">
        <ele>94</ele>
        <time>2021-03-28T09:37:12Z</time>
      </trkpt>
      <trkpt lat="48.77094" lon="2.14706">
        <ele>94</ele>
        <time>2021-03-28T09:37:15Z</time>
      </trkpt>
      <trkpt lat="48.77086" lon="2.14693">
        <ele>93.199996948242</ele>
        <time>2021-03-28T09:37:24Z</time>
      </trkpt>
      <trkpt lat="48.77082" lon="2.1469">
        <ele>92.800003051758</ele>
        <time>2021-03-28T09:37:28Z</time>
      </trkpt>
      <trkpt lat="48.77074" lon="2.14671">
        <ele>92.199996948242</ele>
        <time>2021-03-28T09:37:41Z</time>
      </trkpt>
      <trkpt lat="48.77073" lon="2.14651">
        <ele>91.800003051758</ele>
        <time>2021-03-28T09:37:47Z</time>
      </trkpt>
      <trkpt lat="48.77071" lon="2.1464">
        <ele>91.599998474121</ele>
        <time>2021-03-28T09:37:53Z</time>
      </trkpt>
      <trkpt lat="48.77072" lon="2.1462">
        <ele>91.400001525879</ele>
        <time>2021-03-28T09:38:09Z</time>
      </trkpt>
      <trkpt lat="48.77072" lon="2.14615">
        <ele>92.800003051758</ele>
        <time>2021-03-28T09:38:17Z</time>
      </trkpt>
      <trkpt lat="48.77071" lon="2.14603">
        <ele>93.599998474121</ele>
        <time>2021-03-28T09:38:24Z</time>
      </trkpt>
      <trkpt lat="48.77071" lon="2.14603">
        <ele>93.800003051758</ele>
        <time>2021-03-28T09:38:25Z</time>
      </trkpt>
      <trkpt lat="48.77069" lon="2.14595">
        <ele>94.800003051758</ele>
        <time>2021-03-28T09:38:31Z</time>
      </trkpt>
      <trkpt lat="48.7707" lon="2.14581">
        <ele>96</ele>
        <time>2021-03-28T09:38:40Z</time>
      </trkpt>
      <trkpt lat="48.7707" lon="2.1458">
        <ele>96.199996948242</ele>
        <time>2021-03-28T09:38:41Z</time>
      </trkpt>
      <trkpt lat="48.77077" lon="2.14559">
        <ele>97.199996948242</ele>
        <time>2021-03-28T09:38:56Z</time>
      </trkpt>
      <trkpt lat="48.77079" lon="2.14555">
        <ele>97.400001525879</ele>
        <time>2021-03-28T09:38:59Z</time>
      </trkpt>
      <trkpt lat="48.77083" lon="2.14541">
        <ele>98</ele>
        <time>2021-03-28T09:39:10Z</time>
      </trkpt>
      <trkpt lat="48.77084" lon="2.14526">
        <ele>99</ele>
        <time>2021-03-28T09:39:19Z</time>
      </trkpt>
      <trkpt lat="48.77084" lon="2.14518">
        <ele>100.19999694824</ele>
        <time>2021-03-28T09:39:25Z</time>
      </trkpt>
      <trkpt lat="48.77084" lon="2.14512">
        <ele>101.19999694824</ele>
        <time>2021-03-28T09:39:29Z</time>
      </trkpt>
      <trkpt lat="48.77084" lon="2.14501">
        <ele>102</ele>
        <time>2021-03-28T09:39:36Z</time>
      </trkpt>
      <trkpt lat="48.77085" lon="2.14497">
        <ele>102.19999694824</ele>
        <time>2021-03-28T09:39:39Z</time>
      </trkpt>
      <trkpt lat="48.77088" lon="2.14473">
        <ele>102.19999694824</ele>
        <time>2021-03-28T09:39:55Z</time>
      </trkpt>
      <trkpt lat="48.77088" lon="2.14448">
        <ele>101.40000152588</ele>
        <time>2021-03-28T09:40:12Z</time>
      </trkpt>
      <trkpt lat="48.77088" lon="2.1444">
        <ele>101</ele>
        <time>2021-03-28T09:40:17Z</time>
      </trkpt>
      <trkpt lat="48.77091" lon="2.14427">
        <ele>100</ele>
        <time>2021-03-28T09:40:28Z</time>
      </trkpt>
      <trkpt lat="48.77091" lon="2.14425">
        <ele>100</ele>
        <time>2021-03-28T09:40:30Z</time>
      </trkpt>
      <trkpt lat="48.77095" lon="2.14404">
        <ele>99.199996948242</ele>
        <time>2021-03-28T09:40:45Z</time>
      </trkpt>
      <trkpt lat="48.77096" lon="2.14393">
        <ele>98.800003051758</ele>
        <time>2021-03-28T09:40:53Z</time>
      </trkpt>
      <trkpt lat="48.77098" lon="2.1438">
        <ele>98.199996948242</ele>
        <time>2021-03-28T09:41:02Z</time>
      </trkpt>
      <trkpt lat="48.77099" lon="2.14375">
        <ele>97.599998474121</ele>
        <time>2021-03-28T09:41:05Z</time>
      </trkpt>
      <trkpt lat="48.77106" lon="2.14353">
        <ele>96.400001525879</ele>
        <time>2021-03-28T09:41:17Z</time>
      </trkpt>
      <trkpt lat="48.77107" lon="2.14352">
        <ele>96.400001525879</ele>
        <time>2021-03-28T09:41:18Z</time>
      </trkpt>
      <trkpt lat="48.77115" lon="2.14329">
        <ele>96</ele>
        <time>2021-03-28T09:41:33Z</time>
      </trkpt>
      <trkpt lat="48.77117" lon="2.14313">
        <ele>96.400001525879</ele>
        <time>2021-03-28T09:41:48Z</time>
      </trkpt>
      <trkpt lat="48.77121" lon="2.143">
        <ele>97.199996948242</ele>
        <time>2021-03-28T09:42:01Z</time>
      </trkpt>
      <trkpt lat="48.77121" lon="2.14296">
        <ele>97.800003051758</ele>
        <time>2021-03-28T09:42:04Z</time>
      </trkpt>
      <trkpt lat="48.77122" lon="2.14291">
        <ele>98.400001525879</ele>
        <time>2021-03-28T09:42:09Z</time>
      </trkpt>
      <trkpt lat="48.77127" lon="2.14278">
        <ele>99.400001525879</ele>
        <time>2021-03-28T09:42:18Z</time>
      </trkpt>
      <trkpt lat="48.77127" lon="2.14272">
        <ele>99.800003051758</ele>
        <time>2021-03-28T09:42:21Z</time>
      </trkpt>
      <trkpt lat="48.77134" lon="2.14247">
        <ele>99.599998474121</ele>
        <time>2021-03-28T09:42:36Z</time>
      </trkpt>
      <trkpt lat="48.77144" lon="2.14224">
        <ele>99.199996948242</ele>
        <time>2021-03-28T09:42:52Z</time>
      </trkpt>
      <trkpt lat="48.77152" lon="2.14201">
        <ele>98.599998474121</ele>
        <time>2021-03-28T09:43:09Z</time>
      </trkpt>
      <trkpt lat="48.77154" lon="2.14184">
        <ele>98.199996948242</ele>
        <time>2021-03-28T09:43:19Z</time>
      </trkpt>
      <trkpt lat="48.77156" lon="2.14176">
        <ele>97.400001525879</ele>
        <time>2021-03-28T09:43:24Z</time>
      </trkpt>
      <trkpt lat="48.77156" lon="2.14172">
        <ele>97.199996948242</ele>
        <time>2021-03-28T09:43:26Z</time>
      </trkpt>
      <trkpt lat="48.77161" lon="2.14158">
        <ele>96</ele>
        <time>2021-03-28T09:43:36Z</time>
      </trkpt>
      <trkpt lat="48.77163" lon="2.14155">
        <ele>95.800003051758</ele>
        <time>2021-03-28T09:43:38Z</time>
      </trkpt>
      <trkpt lat="48.77165" lon="2.1415">
        <ele>95</ele>
        <time>2021-03-28T09:43:42Z</time>
      </trkpt>
      <trkpt lat="48.77167" lon="2.14144">
        <ele>93.800003051758</ele>
        <time>2021-03-28T09:43:46Z</time>
      </trkpt>
      <trkpt lat="48.7717" lon="2.14137">
        <ele>93.199996948242</ele>
        <time>2021-03-28T09:43:53Z</time>
      </trkpt>
      <trkpt lat="48.77173" lon="2.14132">
        <ele>92.800003051758</ele>
        <time>2021-03-28T09:43:57Z</time>
      </trkpt>
      <trkpt lat="48.77182" lon="2.1412">
        <ele>92.400001525879</ele>
        <time>2021-03-28T09:44:08Z</time>
      </trkpt>
      <trkpt lat="48.77195" lon="2.14105">
        <ele>93.199996948242</ele>
        <time>2021-03-28T09:44:25Z</time>
      </trkpt>
      <trkpt lat="48.77197" lon="2.14104">
        <ele>93.599998474121</ele>
        <time>2021-03-28T09:44:27Z</time>
      </trkpt>
      <trkpt lat="48.77205" lon="2.14101">
        <ele>94.800003051758</ele>
        <time>2021-03-28T09:44:35Z</time>
      </trkpt>
      <trkpt lat="48.77212" lon="2.141">
        <ele>95.599998474121</ele>
        <time>2021-03-28T09:44:41Z</time>
      </trkpt>
      <trkpt lat="48.77214" lon="2.141">
        <ele>95.800003051758</ele>
        <time>2021-03-28T09:44:42Z</time>
      </trkpt>
      <trkpt lat="48.77218" lon="2.14098">
        <ele>96.800003051758</ele>
        <time>2021-03-28T09:44:46Z</time>
      </trkpt>
      <trkpt lat="48.77221" lon="2.14098">
        <ele>98</ele>
        <time>2021-03-28T09:44:50Z</time>
      </trkpt>
      <trkpt lat="48.77226" lon="2.14098">
        <ele>99</ele>
        <time>2021-03-28T09:44:57Z</time>
      </trkpt>
      <trkpt lat="48.77227" lon="2.14098">
        <ele>99.199996948242</ele>
        <time>2021-03-28T09:44:58Z</time>
      </trkpt>
      <trkpt lat="48.77235" lon="2.14098">
        <ele>100.19999694824</ele>
        <time>2021-03-28T09:45:06Z</time>
      </trkpt>
      <trkpt lat="48.7724" lon="2.14098">
        <ele>101.40000152588</ele>
        <time>2021-03-28T09:45:11Z</time>
      </trkpt>
      <trkpt lat="48.77245" lon="2.14097">
        <ele>102.59999847412</ele>
        <time>2021-03-28T09:45:15Z</time>
      </trkpt>
      <trkpt lat="48.77251" lon="2.14097">
        <ele>103.59999847412</ele>
        <time>2021-03-28T09:45:23Z</time>
      </trkpt>
      <trkpt lat="48.77254" lon="2.14097">
        <ele>104</ele>
        <time>2021-03-28T09:45:26Z</time>
      </trkpt>
      <trkpt lat="48.77257" lon="2.14096">
        <ele>104.19999694824</ele>
        <time>2021-03-28T09:45:28Z</time>
      </trkpt>
      <trkpt lat="48.77259" lon="2.14096">
        <ele>104.59999847412</ele>
        <time>2021-03-28T09:45:30Z</time>
      </trkpt>
      <trkpt lat="48.77264" lon="2.14095">
        <ele>105.80000305176</ele>
        <time>2021-03-28T09:45:37Z</time>
      </trkpt>
      <trkpt lat="48.77264" lon="2.14095">
        <ele>105.80000305176</ele>
        <time>2021-03-28T09:45:38Z</time>
      </trkpt>
      <trkpt lat="48.77268" lon="2.14097">
        <ele>106.80000305176</ele>
        <time>2021-03-28T09:45:44Z</time>
      </trkpt>
      <trkpt lat="48.77274" lon="2.141">
        <ele>107.80000305176</ele>
        <time>2021-03-28T09:45:51Z</time>
      </trkpt>
      <trkpt lat="48.77276" lon="2.14099">
        <ele>108.19999694824</ele>
        <time>2021-03-28T09:45:53Z</time>
      </trkpt>
      <trkpt lat="48.77282" lon="2.141">
        <ele>108.80000305176</ele>
        <time>2021-03-28T09:46:00Z</time>
      </trkpt>
      <trkpt lat="48.77283" lon="2.14099">
        <ele>109.19999694824</ele>
        <time>2021-03-28T09:46:04Z</time>
      </trkpt>
      <trkpt lat="48.7729" lon="2.14103">
        <ele>109.40000152588</ele>
        <time>2021-03-28T09:46:19Z</time>
      </trkpt>
      <trkpt lat="48.77297" lon="2.14104">
        <ele>109.80000305176</ele>
        <time>2021-03-28T09:46:26Z</time>
      </trkpt>
      <trkpt lat="48.77302" lon="2.14106">
        <ele>110.59999847412</ele>
        <time>2021-03-28T09:46:33Z</time>
      </trkpt>
      <trkpt lat="48.77304" lon="2.14106">
        <ele>111</ele>
        <time>2021-03-28T09:46:35Z</time>
      </trkpt>
      <trkpt lat="48.7731" lon="2.14104">
        <ele>112.19999694824</ele>
        <time>2021-03-28T09:46:41Z</time>
      </trkpt>
      <trkpt lat="48.77315" lon="2.14103">
        <ele>113.19999694824</ele>
        <time>2021-03-28T09:46:47Z</time>
      </trkpt>
      <trkpt lat="48.77315" lon="2.14103">
        <ele>113.40000152588</ele>
        <time>2021-03-28T09:46:48Z</time>
      </trkpt>
      <trkpt lat="48.77317" lon="2.14103">
        <ele>114.40000152588</ele>
        <time>2021-03-28T09:46:51Z</time>
      </trkpt>
      <trkpt lat="48.7732" lon="2.14099">
        <ele>115.40000152588</ele>
        <time>2021-03-28T09:46:56Z</time>
      </trkpt>
      <trkpt lat="48.77323" lon="2.141">
        <ele>116.59999847412</ele>
        <time>2021-03-28T09:47:01Z</time>
      </trkpt>
      <trkpt lat="48.77325" lon="2.14097">
        <ele>117</ele>
        <time>2021-03-28T09:47:05Z</time>
      </trkpt>
      <trkpt lat="48.77328" lon="2.1409">
        <ele>117.59999847412</ele>
        <time>2021-03-28T09:47:09Z</time>
      </trkpt>
      <trkpt lat="48.77336" lon="2.14079">
        <ele>118.80000305176</ele>
        <time>2021-03-28T09:47:15Z</time>
      </trkpt>
      <trkpt lat="48.7734" lon="2.14074">
        <ele>119.80000305176</ele>
        <time>2021-03-28T09:47:18Z</time>
      </trkpt>
      <trkpt lat="48.77342" lon="2.1407">
        <ele>120.19999694824</ele>
        <time>2021-03-28T09:47:20Z</time>
      </trkpt>
      <trkpt lat="48.77348" lon="2.14058">
        <ele>121.19999694824</ele>
        <time>2021-03-28T09:47:27Z</time>
      </trkpt>
      <trkpt lat="48.77351" lon="2.14054">
        <ele>121.59999847412</ele>
        <time>2021-03-28T09:47:30Z</time>
      </trkpt>
      <trkpt lat="48.77352" lon="2.1405">
        <ele>122.40000152588</ele>
        <time>2021-03-28T09:47:32Z</time>
      </trkpt>
      <trkpt lat="48.77356" lon="2.14041">
        <ele>123.19999694824</ele>
        <time>2021-03-28T09:47:38Z</time>
      </trkpt>
      <trkpt lat="48.77357" lon="2.1404">
        <ele>123.40000152588</ele>
        <time>2021-03-28T09:47:39Z</time>
      </trkpt>
      <trkpt lat="48.77358" lon="2.14031">
        <ele>124.59999847412</ele>
        <time>2021-03-28T09:47:45Z</time>
      </trkpt>
      <trkpt lat="48.7736" lon="2.14019">
        <ele>125.80000305176</ele>
        <time>2021-03-28T09:47:53Z</time>
      </trkpt>
      <trkpt lat="48.77362" lon="2.1401">
        <ele>127</ele>
        <time>2021-03-28T09:48:00Z</time>
      </trkpt>
      <trkpt lat="48.77365" lon="2.14002">
        <ele>128</ele>
        <time>2021-03-28T09:48:07Z</time>
      </trkpt>
      <trkpt lat="48.77367" lon="2.14">
        <ele>128.19999694824</ele>
        <time>2021-03-28T09:48:09Z</time>
      </trkpt>
      <trkpt lat="48.7737" lon="2.13994">
        <ele>129.39999389648</ele>
        <time>2021-03-28T09:48:13Z</time>
      </trkpt>
      <trkpt lat="48.77376" lon="2.13989">
        <ele>130.60000610352</ele>
        <time>2021-03-28T09:48:21Z</time>
      </trkpt>
      <trkpt lat="48.77377" lon="2.13988">
        <ele>130.80000305176</ele>
        <time>2021-03-28T09:48:22Z</time>
      </trkpt>
      <trkpt lat="48.77379" lon="2.13986">
        <ele>131.60000610352</ele>
        <time>2021-03-28T09:48:26Z</time>
      </trkpt>
      <trkpt lat="48.77383" lon="2.13981">
        <ele>132.80000305176</ele>
        <time>2021-03-28T09:48:34Z</time>
      </trkpt>
      <trkpt lat="48.77386" lon="2.1398">
        <ele>133.19999694824</ele>
        <time>2021-03-28T09:48:37Z</time>
      </trkpt>
      <trkpt lat="48.77389" lon="2.13981">
        <ele>134</ele>
        <time>2021-03-28T09:48:40Z</time>
      </trkpt>
      <trkpt lat="48.77394" lon="2.13982">
        <ele>135</ele>
        <time>2021-03-28T09:48:46Z</time>
      </trkpt>
      <trkpt lat="48.77398" lon="2.13981">
        <ele>135.60000610352</ele>
        <time>2021-03-28T09:48:50Z</time>
      </trkpt>
      <trkpt lat="48.77401" lon="2.13982">
        <ele>136.39999389648</ele>
        <time>2021-03-28T09:48:54Z</time>
      </trkpt>
      <trkpt lat="48.77408" lon="2.13983">
        <ele>137</ele>
        <time>2021-03-28T09:49:04Z</time>
      </trkpt>
      <trkpt lat="48.77413" lon="2.13983">
        <ele>137.39999389648</ele>
        <time>2021-03-28T09:49:10Z</time>
      </trkpt>
      <trkpt lat="48.77421" lon="2.13983">
        <ele>138.19999694824</ele>
        <time>2021-03-28T09:49:19Z</time>
      </trkpt>
      <trkpt lat="48.77424" lon="2.13982">
        <ele>138.39999389648</ele>
        <time>2021-03-28T09:49:22Z</time>
      </trkpt>
      <trkpt lat="48.77433" lon="2.13977">
        <ele>138.80000305176</ele>
        <time>2021-03-28T09:49:34Z</time>
      </trkpt>
      <trkpt lat="48.77443" lon="2.13971">
        <ele>139.39999389648</ele>
        <time>2021-03-28T09:49:44Z</time>
      </trkpt>
      <trkpt lat="48.77447" lon="2.1397">
        <ele>139.80000305176</ele>
        <time>2021-03-28T09:49:48Z</time>
      </trkpt>
      <trkpt lat="48.77455" lon="2.13963">
        <ele>140.60000610352</ele>
        <time>2021-03-28T09:49:58Z</time>
      </trkpt>
      <trkpt lat="48.7746" lon="2.1396">
        <ele>141</ele>
        <time>2021-03-28T09:50:04Z</time>
      </trkpt>
      <trkpt lat="48.77471" lon="2.1395">
        <ele>141.60000610352</ele>
        <time>2021-03-28T09:50:17Z</time>
      </trkpt>
      <trkpt lat="48.77474" lon="2.13947">
        <ele>141.80000305176</ele>
        <time>2021-03-28T09:50:20Z</time>
      </trkpt>
      <trkpt lat="48.77482" lon="2.1394">
        <ele>142</ele>
        <time>2021-03-28T09:50:26Z</time>
      </trkpt>
      <trkpt lat="48.77488" lon="2.13932">
        <ele>142.19999694824</ele>
        <time>2021-03-28T09:50:33Z</time>
      </trkpt>
      <trkpt lat="48.77496" lon="2.1392">
        <ele>142.19999694824</ele>
        <time>2021-03-28T09:50:45Z</time>
      </trkpt>
      <trkpt lat="48.77507" lon="2.13901">
        <ele>141.39999389648</ele>
        <time>2021-03-28T09:50:59Z</time>
      </trkpt>
      <trkpt lat="48.77512" lon="2.13887">
        <ele>141.60000610352</ele>
        <time>2021-03-28T09:51:08Z</time>
      </trkpt>
      <trkpt lat="48.77513" lon="2.13881">
        <ele>141.60000610352</ele>
        <time>2021-03-28T09:51:11Z</time>
      </trkpt>
      <trkpt lat="48.77518" lon="2.13851">
        <ele>141.19999694824</ele>
        <time>2021-03-28T09:51:29Z</time>
      </trkpt>
      <trkpt lat="48.77514" lon="2.13825">
        <ele>141</ele>
        <time>2021-03-28T09:51:44Z</time>
      </trkpt>
      <trkpt lat="48.7751" lon="2.13798">
        <ele>141.19999694824</ele>
        <time>2021-03-28T09:51:59Z</time>
      </trkpt>
      <trkpt lat="48.77502" lon="2.13782">
        <ele>140.60000610352</ele>
        <time>2021-03-28T09:52:11Z</time>
      </trkpt>
      <trkpt lat="48.77501" lon="2.13781">
        <ele>140.39999389648</ele>
        <time>2021-03-28T09:52:12Z</time>
      </trkpt>
      <trkpt lat="48.77498" lon="2.13763">
        <ele>139.39999389648</ele>
        <time>2021-03-28T09:52:22Z</time>
      </trkpt>
      <trkpt lat="48.77498" lon="2.1376">
        <ele>139.39999389648</ele>
        <time>2021-03-28T09:52:24Z</time>
      </trkpt>
      <trkpt lat="48.77497" lon="2.13738">
        <ele>139.19999694824</ele>
        <time>2021-03-28T09:52:38Z</time>
      </trkpt>
      <trkpt lat="48.77501" lon="2.1372">
        <ele>139.39999389648</ele>
        <time>2021-03-28T09:52:53Z</time>
      </trkpt>
      <trkpt lat="48.77506" lon="2.13698">
        <ele>139.39999389648</ele>
        <time>2021-03-28T09:53:08Z</time>
      </trkpt>
      <trkpt lat="48.77516" lon="2.13683">
        <ele>139.80000305176</ele>
        <time>2021-03-28T09:53:23Z</time>
      </trkpt>
      <trkpt lat="48.77529" lon="2.13665">
        <ele>140.19999694824</ele>
        <time>2021-03-28T09:53:39Z</time>
      </trkpt>
      <trkpt lat="48.77532" lon="2.13661">
        <ele>140.39999389648</ele>
        <time>2021-03-28T09:53:43Z</time>
      </trkpt>
      <trkpt lat="48.77541" lon="2.13657">
        <ele>141</ele>
        <time>2021-03-28T09:53:51Z</time>
      </trkpt>
      <trkpt lat="48.77545" lon="2.13654">
        <ele>141.39999389648</ele>
        <time>2021-03-28T09:53:56Z</time>
      </trkpt>
      <trkpt lat="48.77549" lon="2.13644">
        <ele>141.80000305176</ele>
        <time>2021-03-28T09:54:03Z</time>
      </trkpt>
      <trkpt lat="48.77553" lon="2.13617">
        <ele>140.80000305176</ele>
        <time>2021-03-28T09:54:18Z</time>
      </trkpt>
      <trkpt lat="48.77557" lon="2.13606">
        <ele>140.39999389648</ele>
        <time>2021-03-28T09:54:28Z</time>
      </trkpt>
      <trkpt lat="48.77559" lon="2.13602">
        <ele>140.39999389648</ele>
        <time>2021-03-28T09:54:32Z</time>
      </trkpt>
      <trkpt lat="48.77566" lon="2.13586">
        <ele>141</ele>
        <time>2021-03-28T09:54:48Z</time>
      </trkpt>
      <trkpt lat="48.77567" lon="2.13581">
        <ele>141.39999389648</ele>
        <time>2021-03-28T09:54:51Z</time>
      </trkpt>
      <trkpt lat="48.77574" lon="2.13561">
        <ele>142</ele>
        <time>2021-03-28T09:55:04Z</time>
      </trkpt>
      <trkpt lat="48.77579" lon="2.13555">
        <ele>141.60000610352</ele>
        <time>2021-03-28T09:55:17Z</time>
      </trkpt>
      <trkpt lat="48.77578" lon="2.13551">
        <ele>141.60000610352</ele>
        <time>2021-03-28T09:55:33Z</time>
      </trkpt>
      <trkpt lat="48.77579" lon="2.13542">
        <ele>141.80000305176</ele>
        <time>2021-03-28T09:55:44Z</time>
      </trkpt>
      <trkpt lat="48.77578" lon="2.13528">
        <ele>141.19999694824</ele>
        <time>2021-03-28T09:55:52Z</time>
      </trkpt>
      <trkpt lat="48.77578" lon="2.13518">
        <ele>140.39999389648</ele>
        <time>2021-03-28T09:55:59Z</time>
      </trkpt>
      <trkpt lat="48.77573" lon="2.13504">
        <ele>140</ele>
        <time>2021-03-28T09:56:11Z</time>
      </trkpt>
      <trkpt lat="48.7757" lon="2.13488">
        <ele>140.60000610352</ele>
        <time>2021-03-28T09:56:22Z</time>
      </trkpt>
      <trkpt lat="48.77567" lon="2.13466">
        <ele>141.19999694824</ele>
        <time>2021-03-28T09:56:34Z</time>
      </trkpt>
      <trkpt lat="48.77562" lon="2.1345">
        <ele>142.19999694824</ele>
        <time>2021-03-28T09:56:46Z</time>
      </trkpt>
      <trkpt lat="48.77561" lon="2.13448">
        <ele>142.19999694824</ele>
        <time>2021-03-28T09:56:48Z</time>
      </trkpt>
      <trkpt lat="48.7756" lon="2.13437">
        <ele>142</ele>
        <time>2021-03-28T09:57:00Z</time>
      </trkpt>
      <trkpt lat="48.77562" lon="2.13431">
        <ele>142.39999389648</ele>
        <time>2021-03-28T09:57:14Z</time>
      </trkpt>
      <trkpt lat="48.77563" lon="2.1343">
        <ele>142.39999389648</ele>
        <time>2021-03-28T09:57:30Z</time>
      </trkpt>
      <trkpt lat="48.77563" lon="2.13421">
        <ele>142.60000610352</ele>
        <time>2021-03-28T09:57:44Z</time>
      </trkpt>
      <trkpt lat="48.77568" lon="2.13411">
        <ele>143</ele>
        <time>2021-03-28T09:57:55Z</time>
      </trkpt>
      <trkpt lat="48.77578" lon="2.13401">
        <ele>143.19999694824</ele>
        <time>2021-03-28T09:58:11Z</time>
      </trkpt>
      <trkpt lat="48.77581" lon="2.13398">
        <ele>143.39999389648</ele>
        <time>2021-03-28T09:58:14Z</time>
      </trkpt>
      <trkpt lat="48.77589" lon="2.13393">
        <ele>144.80000305176</ele>
        <time>2021-03-28T09:58:27Z</time>
      </trkpt>
      <trkpt lat="48.7759" lon="2.13392">
        <ele>145</ele>
        <time>2021-03-28T09:58:28Z</time>
      </trkpt>
      <trkpt lat="48.77594" lon="2.13388">
        <ele>146</ele>
        <time>2021-03-28T09:58:33Z</time>
      </trkpt>
      <trkpt lat="48.77605" lon="2.13382">
        <ele>146.60000610352</ele>
        <time>2021-03-28T09:58:42Z</time>
      </trkpt>
      <trkpt lat="48.77609" lon="2.1338">
        <ele>147</ele>
        <time>2021-03-28T09:58:45Z</time>
      </trkpt>
      <trkpt lat="48.77615" lon="2.13377">
        <ele>147.39999389648</ele>
        <time>2021-03-28T09:58:50Z</time>
      </trkpt>
      <trkpt lat="48.77627" lon="2.1337">
        <ele>148</ele>
        <time>2021-03-28T09:59:01Z</time>
      </trkpt>
      <trkpt lat="48.77635" lon="2.13366">
        <ele>149</ele>
        <time>2021-03-28T09:59:12Z</time>
      </trkpt>
      <trkpt lat="48.77638" lon="2.13362">
        <ele>149.19999694824</ele>
        <time>2021-03-28T09:59:16Z</time>
      </trkpt>
      <trkpt lat="48.77644" lon="2.13351">
        <ele>149.60000610352</ele>
        <time>2021-03-28T09:59:23Z</time>
      </trkpt>
      <trkpt lat="48.77648" lon="2.13344">
        <ele>149.80000305176</ele>
        <time>2021-03-28T09:59:28Z</time>
      </trkpt>
      <trkpt lat="48.77657" lon="2.13329">
        <ele>150</ele>
        <time>2021-03-28T09:59:40Z</time>
      </trkpt>
      <trkpt lat="48.77661" lon="2.13324">
        <ele>150.19999694824</ele>
        <time>2021-03-28T09:59:44Z</time>
      </trkpt>
      <trkpt lat="48.77669" lon="2.13308">
        <ele>150.19999694824</ele>
        <time>2021-03-28T09:59:56Z</time>
      </trkpt>
      <trkpt lat="48.77679" lon="2.13288">
        <ele>150.60000610352</ele>
        <time>2021-03-28T10:00:14Z</time>
      </trkpt>
      <trkpt lat="48.77691" lon="2.13269">
        <ele>150.80000305176</ele>
        <time>2021-03-28T10:00:31Z</time>
      </trkpt>
      <trkpt lat="48.77699" lon="2.13241">
        <ele>150.39999389648</ele>
        <time>2021-03-28T10:00:48Z</time>
      </trkpt>
      <trkpt lat="48.77712" lon="2.13224">
        <ele>150.39999389648</ele>
        <time>2021-03-28T10:01:07Z</time>
      </trkpt>
      <trkpt lat="48.77726" lon="2.13222">
        <ele>150.80000305176</ele>
        <time>2021-03-28T10:01:20Z</time>
      </trkpt>
      <trkpt lat="48.77736" lon="2.13223">
        <ele>150.80000305176</ele>
        <time>2021-03-28T10:01:29Z</time>
      </trkpt>
      <trkpt lat="48.77741" lon="2.13225">
        <ele>151</ele>
        <time>2021-03-28T10:01:34Z</time>
      </trkpt>
      <trkpt lat="48.77742" lon="2.13225">
        <ele>151</ele>
        <time>2021-03-28T10:01:35Z</time>
      </trkpt>
      <trkpt lat="48.77754" lon="2.13235">
        <ele>152</ele>
        <time>2021-03-28T10:01:48Z</time>
      </trkpt>
      <trkpt lat="48.77754" lon="2.13235">
        <ele>152.19999694824</ele>
        <time>2021-03-28T10:01:49Z</time>
      </trkpt>
      <trkpt lat="48.77766" lon="2.13249">
        <ele>152.60000610352</ele>
        <time>2021-03-28T10:02:05Z</time>
      </trkpt>
      <trkpt lat="48.77774" lon="2.13261">
        <ele>153</ele>
        <time>2021-03-28T10:02:19Z</time>
      </trkpt>
      <trkpt lat="48.77776" lon="2.13262">
        <ele>153.39999389648</ele>
        <time>2021-03-28T10:02:22Z</time>
      </trkpt>
      <trkpt lat="48.7779" lon="2.13267">
        <ele>154</ele>
        <time>2021-03-28T10:02:35Z</time>
      </trkpt>
      <trkpt lat="48.77799" lon="2.13281">
        <ele>154.19999694824</ele>
        <time>2021-03-28T10:02:45Z</time>
      </trkpt>
      <trkpt lat="48.77805" lon="2.13289">
        <ele>154.39999389648</ele>
        <time>2021-03-28T10:02:53Z</time>
      </trkpt>
      <trkpt lat="48.77813" lon="2.13292">
        <ele>155</ele>
        <time>2021-03-28T10:03:02Z</time>
      </trkpt>
      <trkpt lat="48.77817" lon="2.13294">
        <ele>155.19999694824</ele>
        <time>2021-03-28T10:03:07Z</time>
      </trkpt>
      <trkpt lat="48.77827" lon="2.13306">
        <ele>156</ele>
        <time>2021-03-28T10:03:21Z</time>
      </trkpt>
      <trkpt lat="48.77828" lon="2.13308">
        <ele>156.19999694824</ele>
        <time>2021-03-28T10:03:23Z</time>
      </trkpt>
      <trkpt lat="48.77836" lon="2.13307">
        <ele>156.60000610352</ele>
        <time>2021-03-28T10:03:37Z</time>
      </trkpt>
      <trkpt lat="48.77838" lon="2.13306">
        <ele>156.39999389648</ele>
        <time>2021-03-28T10:03:51Z</time>
      </trkpt>
      <trkpt lat="48.77836" lon="2.13312">
        <ele>156.60000610352</ele>
        <time>2021-03-28T10:04:06Z</time>
      </trkpt>
      <trkpt lat="48.77839" lon="2.13315">
        <ele>156.60000610352</ele>
        <time>2021-03-28T10:04:10Z</time>
      </trkpt>
      <trkpt lat="48.77845" lon="2.13319">
        <ele>156.60000610352</ele>
        <time>2021-03-28T10:04:16Z</time>
      </trkpt>
      <trkpt lat="48.77857" lon="2.13328">
        <ele>157.39999389648</ele>
        <time>2021-03-28T10:04:27Z</time>
      </trkpt>
      <trkpt lat="48.7786" lon="2.13329">
        <ele>157.60000610352</ele>
        <time>2021-03-28T10:04:30Z</time>
      </trkpt>
      <trkpt lat="48.7787" lon="2.13341">
        <ele>158.39999389648</ele>
        <time>2021-03-28T10:04:41Z</time>
      </trkpt>
      <trkpt lat="48.77876" lon="2.13346">
        <ele>158.39999389648</ele>
        <time>2021-03-28T10:04:46Z</time>
      </trkpt>
      <trkpt lat="48.77893" lon="2.13358">
        <ele>159</ele>
        <time>2021-03-28T10:05:00Z</time>
      </trkpt>
      <trkpt lat="48.77909" lon="2.1337">
        <ele>159.39999389648</ele>
        <time>2021-03-28T10:05:15Z</time>
      </trkpt>
      <trkpt lat="48.77925" lon="2.13384">
        <ele>160.19999694824</ele>
        <time>2021-03-28T10:05:30Z</time>
      </trkpt>
      <trkpt lat="48.7793" lon="2.13392">
        <ele>160.39999389648</ele>
        <time>2021-03-28T10:05:37Z</time>
      </trkpt>
      <trkpt lat="48.77936" lon="2.13404">
        <ele>160.80000305176</ele>
        <time>2021-03-28T10:05:46Z</time>
      </trkpt>
      <trkpt lat="48.77952" lon="2.13419">
        <ele>161.19999694824</ele>
        <time>2021-03-28T10:06:02Z</time>
      </trkpt>
      <trkpt lat="48.77971" lon="2.13435">
        <ele>161.60000610352</ele>
        <time>2021-03-28T10:06:19Z</time>
      </trkpt>
      <trkpt lat="48.77972" lon="2.13437">
        <ele>161.60000610352</ele>
        <time>2021-03-28T10:06:20Z</time>
      </trkpt>
      <trkpt lat="48.77979" lon="2.13454">
        <ele>162.19999694824</ele>
        <time>2021-03-28T10:06:33Z</time>
      </trkpt>
      <trkpt lat="48.77986" lon="2.13446">
        <ele>162.60000610352</ele>
        <time>2021-03-28T10:06:42Z</time>
      </trkpt>
      <trkpt lat="48.77987" lon="2.13445">
        <ele>162.60000610352</ele>
        <time>2021-03-28T10:06:43Z</time>
      </trkpt>
      <trkpt lat="48.78001" lon="2.13428">
        <ele>161.80000305176</ele>
        <time>2021-03-28T10:06:59Z</time>
      </trkpt>
      <trkpt lat="48.78009" lon="2.13408">
        <ele>160.39999389648</ele>
        <time>2021-03-28T10:07:13Z</time>
      </trkpt>
      <trkpt lat="48.7801" lon="2.13405">
        <ele>160</ele>
        <time>2021-03-28T10:07:16Z</time>
      </trkpt>
      <trkpt lat="48.78022" lon="2.13381">
        <ele>159.60000610352</ele>
        <time>2021-03-28T10:07:30Z</time>
      </trkpt>
      <trkpt lat="48.7803" lon="2.13359">
        <ele>159.39999389648</ele>
        <time>2021-03-28T10:07:45Z</time>
      </trkpt>
      <trkpt lat="48.78031" lon="2.13358">
        <ele>159.39999389648</ele>
        <time>2021-03-28T10:07:46Z</time>
      </trkpt>
      <trkpt lat="48.78041" lon="2.13341">
        <ele>158.19999694824</ele>
        <time>2021-03-28T10:07:59Z</time>
      </trkpt>
      <trkpt lat="48.78044" lon="2.13336">
        <ele>157.19999694824</ele>
        <time>2021-03-28T10:08:09Z</time>
      </trkpt>
      <trkpt lat="48.78044" lon="2.13336">
        <ele>157</ele>
        <time>2021-03-28T10:08:11Z</time>
      </trkpt>
      <trkpt lat="48.78044" lon="2.13336">
        <ele>156.39999389648</ele>
        <time>2021-03-28T10:08:24Z</time>
      </trkpt>
      <trkpt lat="48.78045" lon="2.13335">
        <ele>156.39999389648</ele>
        <time>2021-03-28T10:08:27Z</time>
      </trkpt>
      <trkpt lat="48.78051" lon="2.13333">
        <ele>156</ele>
        <time>2021-03-28T10:08:35Z</time>
      </trkpt>
      <trkpt lat="48.78058" lon="2.1333">
        <ele>155.39999389648</ele>
        <time>2021-03-28T10:08:43Z</time>
      </trkpt>
      <trkpt lat="48.78063" lon="2.13333">
        <ele>154.39999389648</ele>
        <time>2021-03-28T10:08:49Z</time>
      </trkpt>
      <trkpt lat="48.78066" lon="2.13334">
        <ele>153.19999694824</ele>
        <time>2021-03-28T10:08:55Z</time>
      </trkpt>
      <trkpt lat="48.7807" lon="2.13335">
        <ele>152</ele>
        <time>2021-03-28T10:09:02Z</time>
      </trkpt>
      <trkpt lat="48.78071" lon="2.13336">
        <ele>151.60000610352</ele>
        <time>2021-03-28T10:09:03Z</time>
      </trkpt>
      <trkpt lat="48.78072" lon="2.13336">
        <ele>151</ele>
        <time>2021-03-28T10:09:06Z</time>
      </trkpt>
      <trkpt lat="48.78078" lon="2.13336">
        <ele>150</ele>
        <time>2021-03-28T10:09:13Z</time>
      </trkpt>
      <trkpt lat="48.78082" lon="2.13337">
        <ele>149</ele>
        <time>2021-03-28T10:09:17Z</time>
      </trkpt>
      <trkpt lat="48.78083" lon="2.13337">
        <ele>148.80000305176</ele>
        <time>2021-03-28T10:09:18Z</time>
      </trkpt>
      <trkpt lat="48.78085" lon="2.13337">
        <ele>147.60000610352</ele>
        <time>2021-03-28T10:09:21Z</time>
      </trkpt>
      <trkpt lat="48.78089" lon="2.13336">
        <ele>146.19999694824</ele>
        <time>2021-03-28T10:09:25Z</time>
      </trkpt>
      <trkpt lat="48.78093" lon="2.13334">
        <ele>145</ele>
        <time>2021-03-28T10:09:30Z</time>
      </trkpt>
      <trkpt lat="48.78095" lon="2.13333">
        <ele>144.39999389648</ele>
        <time>2021-03-28T10:09:32Z</time>
      </trkpt>
      <trkpt lat="48.78097" lon="2.13332">
        <ele>143.60000610352</ele>
        <time>2021-03-28T10:09:34Z</time>
      </trkpt>
      <trkpt lat="48.78099" lon="2.13327">
        <ele>142.60000610352</ele>
        <time>2021-03-28T10:09:38Z</time>
      </trkpt>
      <trkpt lat="48.78104" lon="2.1332">
        <ele>141.60000610352</ele>
        <time>2021-03-28T10:09:43Z</time>
      </trkpt>
      <trkpt lat="48.78104" lon="2.1332">
        <ele>141.19999694824</ele>
        <time>2021-03-28T10:09:44Z</time>
      </trkpt>
      <trkpt lat="48.78108" lon="2.13316">
        <ele>140.19999694824</ele>
        <time>2021-03-28T10:09:50Z</time>
      </trkpt>
      <trkpt lat="48.78112" lon="2.1331">
        <ele>139.19999694824</ele>
        <time>2021-03-28T10:09:57Z</time>
      </trkpt>
      <trkpt lat="48.78112" lon="2.13309">
        <ele>139</ele>
        <time>2021-03-28T10:09:58Z</time>
      </trkpt>
      <trkpt lat="48.78117" lon="2.13303">
        <ele>138.19999694824</ele>
        <time>2021-03-28T10:10:06Z</time>
      </trkpt>
      <trkpt lat="48.7812" lon="2.13302">
        <ele>137.60000610352</ele>
        <time>2021-03-28T10:10:12Z</time>
      </trkpt>
      <trkpt lat="48.78129" lon="2.13302">
        <ele>137</ele>
        <time>2021-03-28T10:10:22Z</time>
      </trkpt>
      <trkpt lat="48.78135" lon="2.13302">
        <ele>136.80000305176</ele>
        <time>2021-03-28T10:10:28Z</time>
      </trkpt>
      <trkpt lat="48.78149" lon="2.13305">
        <ele>136.60000610352</ele>
        <time>2021-03-28T10:10:42Z</time>
      </trkpt>
      <trkpt lat="48.78163" lon="2.13314">
        <ele>136.39999389648</ele>
        <time>2021-03-28T10:10:57Z</time>
      </trkpt>
      <trkpt lat="48.78181" lon="2.13312">
        <ele>136.60000610352</ele>
        <time>2021-03-28T10:11:10Z</time>
      </trkpt>
      <trkpt lat="48.78194" lon="2.13311">
        <ele>137</ele>
        <time>2021-03-28T10:11:24Z</time>
      </trkpt>
      <trkpt lat="48.78204" lon="2.13312">
        <ele>137.80000305176</ele>
        <time>2021-03-28T10:11:36Z</time>
      </trkpt>
      <trkpt lat="48.78217" lon="2.13312">
        <ele>138.39999389648</ele>
        <time>2021-03-28T10:11:52Z</time>
      </trkpt>
      <trkpt lat="48.78231" lon="2.13311">
        <ele>138.60000610352</ele>
        <time>2021-03-28T10:12:07Z</time>
      </trkpt>
      <trkpt lat="48.78249" lon="2.13314">
        <ele>138.60000610352</ele>
        <time>2021-03-28T10:12:23Z</time>
      </trkpt>
      <trkpt lat="48.78266" lon="2.13317">
        <ele>138.80000305176</ele>
        <time>2021-03-28T10:12:37Z</time>
      </trkpt>
      <trkpt lat="48.78267" lon="2.13317">
        <ele>139</ele>
        <time>2021-03-28T10:12:38Z</time>
      </trkpt>
      <trkpt lat="48.78277" lon="2.13319">
        <ele>139</ele>
        <time>2021-03-28T10:12:50Z</time>
      </trkpt>
      <trkpt lat="48.78292" lon="2.13321">
        <ele>139</ele>
        <time>2021-03-28T10:13:06Z</time>
      </trkpt>
      <trkpt lat="48.78309" lon="2.13322">
        <ele>139.19999694824</ele>
        <time>2021-03-28T10:13:21Z</time>
      </trkpt>
      <trkpt lat="48.78325" lon="2.13324">
        <ele>138</ele>
        <time>2021-03-28T10:13:36Z</time>
      </trkpt>
      <trkpt lat="48.78327" lon="2.13324">
        <ele>137.80000305176</ele>
        <time>2021-03-28T10:13:38Z</time>
      </trkpt>
      <trkpt lat="48.78342" lon="2.13327">
        <ele>137.39999389648</ele>
        <time>2021-03-28T10:13:53Z</time>
      </trkpt>
      <trkpt lat="48.78364" lon="2.1333">
        <ele>137.80000305176</ele>
        <time>2021-03-28T10:14:10Z</time>
      </trkpt>
      <trkpt lat="48.78367" lon="2.1333">
        <ele>137.80000305176</ele>
        <time>2021-03-28T10:14:12Z</time>
      </trkpt>
      <trkpt lat="48.78381" lon="2.13333">
        <ele>137.80000305176</ele>
        <time>2021-03-28T10:14:24Z</time>
      </trkpt>
      <trkpt lat="48.78401" lon="2.13338">
        <ele>137.60000610352</ele>
        <time>2021-03-28T10:14:41Z</time>
      </trkpt>
      <trkpt lat="48.78415" lon="2.1334">
        <ele>137.19999694824</ele>
        <time>2021-03-28T10:14:56Z</time>
      </trkpt>
      <trkpt lat="48.78427" lon="2.13321">
        <ele>137</ele>
        <time>2021-03-28T10:15:08Z</time>
      </trkpt>
      <trkpt lat="48.78431" lon="2.1331">
        <ele>136.80000305176</ele>
        <time>2021-03-28T10:15:16Z</time>
      </trkpt>
      <trkpt lat="48.78434" lon="2.13294">
        <ele>136.80000305176</ele>
        <time>2021-03-28T10:15:26Z</time>
      </trkpt>
      <trkpt lat="48.78436" lon="2.13289">
        <ele>137</ele>
        <time>2021-03-28T10:15:29Z</time>
      </trkpt>
      <trkpt lat="48.78435" lon="2.13279">
        <ele>137.80000305176</ele>
        <time>2021-03-28T10:15:39Z</time>
      </trkpt>
      <trkpt lat="48.78432" lon="2.13276">
        <ele>137.60000610352</ele>
        <time>2021-03-28T10:15:43Z</time>
      </trkpt>
      <trkpt lat="48.78423" lon="2.1327">
        <ele>137.80000305176</ele>
        <time>2021-03-28T10:15:50Z</time>
      </trkpt>
      <trkpt lat="48.78407" lon="2.13258">
        <ele>137.19999694824</ele>
        <time>2021-03-28T10:16:03Z</time>
      </trkpt>
      <trkpt lat="48.78404" lon="2.13258">
        <ele>137.19999694824</ele>
        <time>2021-03-28T10:16:06Z</time>
      </trkpt>
      <trkpt lat="48.78393" lon="2.13258">
        <ele>137</ele>
        <time>2021-03-28T10:16:18Z</time>
      </trkpt>
      <trkpt lat="48.78382" lon="2.13256">
        <ele>136.80000305176</ele>
        <time>2021-03-28T10:16:29Z</time>
      </trkpt>
      <trkpt lat="48.7838" lon="2.13254">
        <ele>136.60000610352</ele>
        <time>2021-03-28T10:16:32Z</time>
      </trkpt>
      <trkpt lat="48.78379" lon="2.13246">
        <ele>136.19999694824</ele>
        <time>2021-03-28T10:16:38Z</time>
      </trkpt>
      <trkpt lat="48.78372" lon="2.1324">
        <ele>135.80000305176</ele>
        <time>2021-03-28T10:16:48Z</time>
      </trkpt>
      <trkpt lat="48.78363" lon="2.13229">
        <ele>135.60000610352</ele>
        <time>2021-03-28T10:17:01Z</time>
      </trkpt>
      <trkpt lat="48.78364" lon="2.1322">
        <ele>136.19999694824</ele>
        <time>2021-03-28T10:17:13Z</time>
      </trkpt>
      <trkpt lat="48.78364" lon="2.13214">
        <ele>137.60000610352</ele>
        <time>2021-03-28T10:17:19Z</time>
      </trkpt>
      <trkpt lat="48.78365" lon="2.13202">
        <ele>138.80000305176</ele>
        <time>2021-03-28T10:17:26Z</time>
      </trkpt>
      <trkpt lat="48.78365" lon="2.13199">
        <ele>139.39999389648</ele>
        <time>2021-03-28T10:17:28Z</time>
      </trkpt>
      <trkpt lat="48.78365" lon="2.13198">
        <ele>139.80000305176</ele>
        <time>2021-03-28T10:17:29Z</time>
      </trkpt>
      <trkpt lat="48.78367" lon="2.13185">
        <ele>141</ele>
        <time>2021-03-28T10:17:37Z</time>
      </trkpt>
      <trkpt lat="48.78368" lon="2.13178">
        <ele>142</ele>
        <time>2021-03-28T10:17:41Z</time>
      </trkpt>
      <trkpt lat="48.78367" lon="2.13171">
        <ele>143.19999694824</ele>
        <time>2021-03-28T10:17:45Z</time>
      </trkpt>
      <trkpt lat="48.78367" lon="2.1317">
        <ele>143.39999389648</ele>
        <time>2021-03-28T10:17:46Z</time>
      </trkpt>
      <trkpt lat="48.78366" lon="2.13163">
        <ele>144.80000305176</ele>
        <time>2021-03-28T10:17:50Z</time>
      </trkpt>
      <trkpt lat="48.78368" lon="2.13158">
        <ele>145.80000305176</ele>
        <time>2021-03-28T10:17:54Z</time>
      </trkpt>
      <trkpt lat="48.78368" lon="2.13156">
        <ele>146.19999694824</ele>
        <time>2021-03-28T10:17:57Z</time>
      </trkpt>
      <trkpt lat="48.78367" lon="2.13151">
        <ele>146.80000305176</ele>
        <time>2021-03-28T10:18:03Z</time>
      </trkpt>
      <trkpt lat="48.78366" lon="2.13145">
        <ele>147.80000305176</ele>
        <time>2021-03-28T10:18:10Z</time>
      </trkpt>
      <trkpt lat="48.78366" lon="2.13144">
        <ele>148</ele>
        <time>2021-03-28T10:18:11Z</time>
      </trkpt>
      <trkpt lat="48.7837" lon="2.13128">
        <ele>149</ele>
        <time>2021-03-28T10:18:21Z</time>
      </trkpt>
      <trkpt lat="48.7837" lon="2.13121">
        <ele>150</ele>
        <time>2021-03-28T10:18:25Z</time>
      </trkpt>
      <trkpt lat="48.78371" lon="2.1312">
        <ele>150.19999694824</ele>
        <time>2021-03-28T10:18:26Z</time>
      </trkpt>
      <trkpt lat="48.78371" lon="2.13113">
        <ele>151.19999694824</ele>
        <time>2021-03-28T10:18:31Z</time>
      </trkpt>
      <trkpt lat="48.78372" lon="2.13106">
        <ele>152.39999389648</ele>
        <time>2021-03-28T10:18:35Z</time>
      </trkpt>
      <trkpt lat="48.78374" lon="2.13097">
        <ele>153.39999389648</ele>
        <time>2021-03-28T10:18:41Z</time>
      </trkpt>
      <trkpt lat="48.78375" lon="2.13093">
        <ele>153.60000610352</ele>
        <time>2021-03-28T10:18:43Z</time>
      </trkpt>
      <trkpt lat="48.78376" lon="2.13084">
        <ele>154.60000610352</ele>
        <time>2021-03-28T10:18:49Z</time>
      </trkpt>
      <trkpt lat="48.78377" lon="2.1308">
        <ele>155.60000610352</ele>
        <time>2021-03-28T10:18:53Z</time>
      </trkpt>
      <trkpt lat="48.78378" lon="2.13075">
        <ele>156.19999694824</ele>
        <time>2021-03-28T10:18:58Z</time>
      </trkpt>
      <trkpt lat="48.78377" lon="2.13063">
        <ele>156.80000305176</ele>
        <time>2021-03-28T10:19:08Z</time>
      </trkpt>
      <trkpt lat="48.78377" lon="2.13062">
        <ele>157</ele>
        <time>2021-03-28T10:19:09Z</time>
      </trkpt>
      <trkpt lat="48.78377" lon="2.13057">
        <ele>158</ele>
        <time>2021-03-28T10:19:16Z</time>
      </trkpt>
      <trkpt lat="48.78377" lon="2.13057">
        <ele>158.39999389648</ele>
        <time>2021-03-28T10:19:17Z</time>
      </trkpt>
      <trkpt lat="48.78375" lon="2.13055">
        <ele>159</ele>
        <time>2021-03-28T10:19:22Z</time>
      </trkpt>
      <trkpt lat="48.7837" lon="2.1305">
        <ele>159</ele>
        <time>2021-03-28T10:19:28Z</time>
      </trkpt>
      <trkpt lat="48.78368" lon="2.13048">
        <ele>159</ele>
        <time>2021-03-28T10:19:30Z</time>
      </trkpt>
      <trkpt lat="48.78357" lon="2.13035">
        <ele>159</ele>
        <time>2021-03-28T10:19:43Z</time>
      </trkpt>
      <trkpt lat="48.78345" lon="2.13024">
        <ele>158.39999389648</ele>
        <time>2021-03-28T10:19:56Z</time>
      </trkpt>
      <trkpt lat="48.78338" lon="2.13014">
        <ele>158.19999694824</ele>
        <time>2021-03-28T10:20:05Z</time>
      </trkpt>
      <trkpt lat="48.78331" lon="2.13007">
        <ele>157.80000305176</ele>
        <time>2021-03-28T10:20:13Z</time>
      </trkpt>
      <trkpt lat="48.78322" lon="2.12998">
        <ele>157</ele>
        <time>2021-03-28T10:20:21Z</time>
      </trkpt>
      <trkpt lat="48.78318" lon="2.12996">
        <ele>156.60000610352</ele>
        <time>2021-03-28T10:20:26Z</time>
      </trkpt>
      <trkpt lat="48.7831" lon="2.12997">
        <ele>156.19999694824</ele>
        <time>2021-03-28T10:20:33Z</time>
      </trkpt>
      <trkpt lat="48.78309" lon="2.12997">
        <ele>156</ele>
        <time>2021-03-28T10:20:34Z</time>
      </trkpt>
      <trkpt lat="48.78304" lon="2.12997">
        <ele>155.60000610352</ele>
        <time>2021-03-28T10:20:39Z</time>
      </trkpt>
      <trkpt lat="48.78301" lon="2.12996">
        <ele>155</ele>
        <time>2021-03-28T10:20:43Z</time>
      </trkpt>
      <trkpt lat="48.7829" lon="2.12994">
        <ele>154</ele>
        <time>2021-03-28T10:20:53Z</time>
      </trkpt>
      <trkpt lat="48.78281" lon="2.1299">
        <ele>152.80000305176</ele>
        <time>2021-03-28T10:21:02Z</time>
      </trkpt>
      <trkpt lat="48.78275" lon="2.12987">
        <ele>152.39999389648</ele>
        <time>2021-03-28T10:21:09Z</time>
      </trkpt>
      <trkpt lat="48.78263" lon="2.12979">
        <ele>154.19999694824</ele>
        <time>2021-03-28T10:21:20Z</time>
      </trkpt>
      <trkpt lat="48.78263" lon="2.12976">
        <ele>154.39999389648</ele>
        <time>2021-03-28T10:21:22Z</time>
      </trkpt>
      <trkpt lat="48.78261" lon="2.12969">
        <ele>155</ele>
        <time>2021-03-28T10:21:29Z</time>
      </trkpt>
      <trkpt lat="48.78259" lon="2.12963">
        <ele>155.60000610352</ele>
        <time>2021-03-28T10:21:36Z</time>
      </trkpt>
      <trkpt lat="48.78256" lon="2.12964">
        <ele>155.60000610352</ele>
        <time>2021-03-28T10:21:48Z</time>
      </trkpt>
      <trkpt lat="48.78248" lon="2.12956">
        <ele>155.60000610352</ele>
        <time>2021-03-28T10:22:00Z</time>
      </trkpt>
      <trkpt lat="48.7824" lon="2.12947">
        <ele>156.19999694824</ele>
        <time>2021-03-28T10:22:09Z</time>
      </trkpt>
      <trkpt lat="48.78236" lon="2.12941">
        <ele>156.19999694824</ele>
        <time>2021-03-28T10:22:15Z</time>
      </trkpt>
      <trkpt lat="48.78235" lon="2.12938">
        <ele>156.19999694824</ele>
        <time>2021-03-28T10:22:17Z</time>
      </trkpt>
      <trkpt lat="48.78225" lon="2.12922">
        <ele>156.39999389648</ele>
        <time>2021-03-28T10:22:29Z</time>
      </trkpt>
      <trkpt lat="48.78223" lon="2.12908">
        <ele>157.19999694824</ele>
        <time>2021-03-28T10:22:37Z</time>
      </trkpt>
      <trkpt lat="48.78224" lon="2.12898">
        <ele>158</ele>
        <time>2021-03-28T10:22:43Z</time>
      </trkpt>
      <trkpt lat="48.78224" lon="2.12897">
        <ele>158.19999694824</ele>
        <time>2021-03-28T10:22:44Z</time>
      </trkpt>
      <trkpt lat="48.78224" lon="2.1289">
        <ele>159.39999389648</ele>
        <time>2021-03-28T10:22:49Z</time>
      </trkpt>
      <trkpt lat="48.78223" lon="2.12879">
        <ele>160.39999389648</ele>
        <time>2021-03-28T10:22:57Z</time>
      </trkpt>
      <trkpt lat="48.78222" lon="2.12875">
        <ele>160.60000610352</ele>
        <time>2021-03-28T10:23:00Z</time>
      </trkpt>
      <trkpt lat="48.78221" lon="2.12863">
        <ele>161.39999389648</ele>
        <time>2021-03-28T10:23:08Z</time>
      </trkpt>
      <trkpt lat="48.78218" lon="2.12854">
        <ele>161.80000305176</ele>
        <time>2021-03-28T10:23:14Z</time>
      </trkpt>
      <trkpt lat="48.78214" lon="2.12831">
        <ele>162.19999694824</ele>
        <time>2021-03-28T10:23:29Z</time>
      </trkpt>
      <trkpt lat="48.78216" lon="2.12807">
        <ele>162</ele>
        <time>2021-03-28T10:23:44Z</time>
      </trkpt>
      <trkpt lat="48.78225" lon="2.128">
        <ele>162.39999389648</ele>
        <time>2021-03-28T10:23:53Z</time>
      </trkpt>
      <trkpt lat="48.78224" lon="2.128">
        <ele>162.60000610352</ele>
        <time>2021-03-28T10:23:55Z</time>
      </trkpt>
      <trkpt lat="48.78227" lon="2.12808">
        <ele>162.60000610352</ele>
        <time>2021-03-28T10:24:06Z</time>
      </trkpt>
      <trkpt lat="48.78232" lon="2.12818">
        <ele>163.60000610352</ele>
        <time>2021-03-28T10:24:43Z</time>
      </trkpt>
      <trkpt lat="48.78232" lon="2.12818">
        <ele>163.60000610352</ele>
        <time>2021-03-28T10:24:45Z</time>
      </trkpt>
      <trkpt lat="48.78234" lon="2.12816">
        <ele>163.80000305176</ele>
        <time>2021-03-28T10:50:48Z</time>
      </trkpt>
      <trkpt lat="48.78234" lon="2.12814">
        <ele>164.60000610352</ele>
        <time>2021-03-28T10:51:10Z</time>
      </trkpt>
      <trkpt lat="48.78234" lon="2.12807">
        <ele>164.39999389648</ele>
        <time>2021-03-28T10:51:20Z</time>
      </trkpt>
      <trkpt lat="48.78234" lon="2.12797">
        <ele>164.39999389648</ele>
        <time>2021-03-28T10:51:31Z</time>
      </trkpt>
      <trkpt lat="48.78234" lon="2.12792">
        <ele>164.60000610352</ele>
        <time>2021-03-28T10:51:42Z</time>
      </trkpt>
      <trkpt lat="48.78234" lon="2.1279">
        <ele>164.39999389648</ele>
        <time>2021-03-28T10:51:50Z</time>
      </trkpt>
      <trkpt lat="48.78232" lon="2.12783">
        <ele>164.39999389648</ele>
        <time>2021-03-28T10:52:02Z</time>
      </trkpt>
      <trkpt lat="48.7823" lon="2.12768">
        <ele>164</ele>
        <time>2021-03-28T10:52:15Z</time>
      </trkpt>
      <trkpt lat="48.78224" lon="2.12755">
        <ele>164.19999694824</ele>
        <time>2021-03-28T10:52:33Z</time>
      </trkpt>
      <trkpt lat="48.78222" lon="2.12757">
        <ele>164.60000610352</ele>
        <time>2021-03-28T10:52:47Z</time>
      </trkpt>
      <trkpt lat="48.78219" lon="2.12752">
        <ele>164.39999389648</ele>
        <time>2021-03-28T10:52:58Z</time>
      </trkpt>
      <trkpt lat="48.78217" lon="2.12744">
        <ele>164.19999694824</ele>
        <time>2021-03-28T10:53:07Z</time>
      </trkpt>
      <trkpt lat="48.78216" lon="2.12742">
        <ele>164.60000610352</ele>
        <time>2021-03-28T10:53:14Z</time>
      </trkpt>
      <trkpt lat="48.7821" lon="2.12737">
        <ele>164.80000305176</ele>
        <time>2021-03-28T10:53:52Z</time>
      </trkpt>
      <trkpt lat="48.782" lon="2.12726">
        <ele>164.39999389648</ele>
        <time>2021-03-28T10:54:06Z</time>
      </trkpt>
      <trkpt lat="48.7819" lon="2.12713">
        <ele>164</ele>
        <time>2021-03-28T10:54:22Z</time>
      </trkpt>
      <trkpt lat="48.78182" lon="2.12691">
        <ele>163.39999389648</ele>
        <time>2021-03-28T10:54:39Z</time>
      </trkpt>
      <trkpt lat="48.78174" lon="2.1268">
        <ele>163.19999694824</ele>
        <time>2021-03-28T10:54:49Z</time>
      </trkpt>
      <trkpt lat="48.78171" lon="2.12674">
        <ele>162.80000305176</ele>
        <time>2021-03-28T10:54:54Z</time>
      </trkpt>
      <trkpt lat="48.78159" lon="2.12656">
        <ele>162.19999694824</ele>
        <time>2021-03-28T10:55:11Z</time>
      </trkpt>
      <trkpt lat="48.78157" lon="2.12654">
        <ele>162.19999694824</ele>
        <time>2021-03-28T10:55:13Z</time>
      </trkpt>
      <trkpt lat="48.78147" lon="2.12645">
        <ele>161.80000305176</ele>
        <time>2021-03-28T10:55:26Z</time>
      </trkpt>
      <trkpt lat="48.7813" lon="2.12627">
        <ele>161.39999389648</ele>
        <time>2021-03-28T10:55:43Z</time>
      </trkpt>
      <trkpt lat="48.7812" lon="2.12609">
        <ele>161.19999694824</ele>
        <time>2021-03-28T10:55:57Z</time>
      </trkpt>
      <trkpt lat="48.78119" lon="2.12608">
        <ele>161</ele>
        <time>2021-03-28T10:55:58Z</time>
      </trkpt>
      <trkpt lat="48.78106" lon="2.12599">
        <ele>160.39999389648</ele>
        <time>2021-03-28T10:56:13Z</time>
      </trkpt>
      <trkpt lat="48.78101" lon="2.12596">
        <ele>159.80000305176</ele>
        <time>2021-03-28T10:56:20Z</time>
      </trkpt>
      <trkpt lat="48.78094" lon="2.12588">
        <ele>159.39999389648</ele>
        <time>2021-03-28T10:56:31Z</time>
      </trkpt>
      <trkpt lat="48.78084" lon="2.1258">
        <ele>158.80000305176</ele>
        <time>2021-03-28T10:56:43Z</time>
      </trkpt>
      <trkpt lat="48.78083" lon="2.12576">
        <ele>158.60000610352</ele>
        <time>2021-03-28T10:56:46Z</time>
      </trkpt>
      <trkpt lat="48.7807" lon="2.12555">
        <ele>158</ele>
        <time>2021-03-28T10:56:59Z</time>
      </trkpt>
      <trkpt lat="48.78068" lon="2.12552">
        <ele>157.80000305176</ele>
        <time>2021-03-28T10:57:01Z</time>
      </trkpt>
      <trkpt lat="48.78062" lon="2.12534">
        <ele>157.19999694824</ele>
        <time>2021-03-28T10:57:14Z</time>
      </trkpt>
      <trkpt lat="48.78049" lon="2.1252">
        <ele>156.80000305176</ele>
        <time>2021-03-28T10:57:29Z</time>
      </trkpt>
      <trkpt lat="48.78047" lon="2.12519">
        <ele>156.60000610352</ele>
        <time>2021-03-28T10:57:31Z</time>
      </trkpt>
      <trkpt lat="48.78034" lon="2.12504">
        <ele>156.39999389648</ele>
        <time>2021-03-28T10:57:46Z</time>
      </trkpt>
      <trkpt lat="48.78023" lon="2.12497">
        <ele>155.80000305176</ele>
        <time>2021-03-28T10:57:58Z</time>
      </trkpt>
      <trkpt lat="48.78018" lon="2.12492">
        <ele>155.39999389648</ele>
        <time>2021-03-28T10:58:04Z</time>
      </trkpt>
      <trkpt lat="48.7801" lon="2.12484">
        <ele>154.60000610352</ele>
        <time>2021-03-28T10:58:12Z</time>
      </trkpt>
      <trkpt lat="48.78006" lon="2.12473">
        <ele>154.60000610352</ele>
        <time>2021-03-28T10:58:17Z</time>
      </trkpt>
      <trkpt lat="48.77996" lon="2.12459">
        <ele>154</ele>
        <time>2021-03-28T10:58:30Z</time>
      </trkpt>
      <trkpt lat="48.77994" lon="2.12452">
        <ele>153.60000610352</ele>
        <time>2021-03-28T10:58:34Z</time>
      </trkpt>
      <trkpt lat="48.77992" lon="2.12445">
        <ele>152.19999694824</ele>
        <time>2021-03-28T10:58:42Z</time>
      </trkpt>
      <trkpt lat="48.7799" lon="2.12442">
        <ele>151.39999389648</ele>
        <time>2021-03-28T10:58:45Z</time>
      </trkpt>
      <trkpt lat="48.77989" lon="2.12441">
        <ele>151.19999694824</ele>
        <time>2021-03-28T10:58:47Z</time>
      </trkpt>
      <trkpt lat="48.77984" lon="2.12437">
        <ele>150.19999694824</ele>
        <time>2021-03-28T10:58:56Z</time>
      </trkpt>
      <trkpt lat="48.77981" lon="2.12435">
        <ele>148.60000610352</ele>
        <time>2021-03-28T10:59:01Z</time>
      </trkpt>
      <trkpt lat="48.77979" lon="2.12433">
        <ele>148.19999694824</ele>
        <time>2021-03-28T10:59:03Z</time>
      </trkpt>
      <trkpt lat="48.77977" lon="2.1243">
        <ele>147.60000610352</ele>
        <time>2021-03-28T10:59:06Z</time>
      </trkpt>
      <trkpt lat="48.77972" lon="2.12425">
        <ele>146.19999694824</ele>
        <time>2021-03-28T10:59:11Z</time>
      </trkpt>
      <trkpt lat="48.7797" lon="2.12421">
        <ele>144.80000305176</ele>
        <time>2021-03-28T10:59:14Z</time>
      </trkpt>
      <trkpt lat="48.77968" lon="2.12418">
        <ele>143.80000305176</ele>
        <time>2021-03-28T10:59:17Z</time>
      </trkpt>
      <trkpt lat="48.77966" lon="2.12415">
        <ele>143.19999694824</ele>
        <time>2021-03-28T10:59:19Z</time>
      </trkpt>
      <trkpt lat="48.77963" lon="2.12413">
        <ele>142.60000610352</ele>
        <time>2021-03-28T10:59:22Z</time>
      </trkpt>
      <trkpt lat="48.7796" lon="2.12409">
        <ele>141.60000610352</ele>
        <time>2021-03-28T10:59:27Z</time>
      </trkpt>
      <trkpt lat="48.77958" lon="2.12405">
        <ele>140.39999389648</ele>
        <time>2021-03-28T10:59:30Z</time>
      </trkpt>
      <trkpt lat="48.77955" lon="2.12402">
        <ele>139.39999389648</ele>
        <time>2021-03-28T10:59:33Z</time>
      </trkpt>
      <trkpt lat="48.77955" lon="2.12401">
        <ele>139</ele>
        <time>2021-03-28T10:59:34Z</time>
      </trkpt>
      <trkpt lat="48.77951" lon="2.12396">
        <ele>137.60000610352</ele>
        <time>2021-03-28T10:59:39Z</time>
      </trkpt>
      <trkpt lat="48.77948" lon="2.12392">
        <ele>136.60000610352</ele>
        <time>2021-03-28T10:59:46Z</time>
      </trkpt>
      <trkpt lat="48.77948" lon="2.12393">
        <ele>136.60000610352</ele>
        <time>2021-03-28T10:59:48Z</time>
      </trkpt>
      <trkpt lat="48.7795" lon="2.12394">
        <ele>136.19999694824</ele>
        <time>2021-03-28T11:00:04Z</time>
      </trkpt>
      <trkpt lat="48.77949" lon="2.12395">
        <ele>135.60000610352</ele>
        <time>2021-03-28T11:00:20Z</time>
      </trkpt>
      <trkpt lat="48.77952" lon="2.12397">
        <ele>135.60000610352</ele>
        <time>2021-03-28T11:00:37Z</time>
      </trkpt>
      <trkpt lat="48.77953" lon="2.12397">
        <ele>135.60000610352</ele>
        <time>2021-03-28T11:00:39Z</time>
      </trkpt>
      <trkpt lat="48.77956" lon="2.124">
        <ele>135.39999389648</ele>
        <time>2021-03-28T11:00:47Z</time>
      </trkpt>
      <trkpt lat="48.77961" lon="2.12396">
        <ele>134.80000305176</ele>
        <time>2021-03-28T11:00:55Z</time>
      </trkpt>
      <trkpt lat="48.77962" lon="2.12394">
        <ele>134.19999694824</ele>
        <time>2021-03-28T11:00:58Z</time>
      </trkpt>
      <trkpt lat="48.77964" lon="2.12393">
        <ele>133.19999694824</ele>
        <time>2021-03-28T11:01:03Z</time>
      </trkpt>
      <trkpt lat="48.77969" lon="2.12388">
        <ele>132.80000305176</ele>
        <time>2021-03-28T11:01:12Z</time>
      </trkpt>
      <trkpt lat="48.77975" lon="2.12367">
        <ele>132.80000305176</ele>
        <time>2021-03-28T11:01:29Z</time>
      </trkpt>
      <trkpt lat="48.77971" lon="2.12332">
        <ele>133.19999694824</ele>
        <time>2021-03-28T11:01:42Z</time>
      </trkpt>
      <trkpt lat="48.77964" lon="2.12311">
        <ele>133.60000610352</ele>
        <time>2021-03-28T11:01:58Z</time>
      </trkpt>
      <trkpt lat="48.77959" lon="2.12285">
        <ele>133</ele>
        <time>2021-03-28T11:02:14Z</time>
      </trkpt>
      <trkpt lat="48.77943" lon="2.12264">
        <ele>133</ele>
        <time>2021-03-28T11:02:31Z</time>
      </trkpt>
      <trkpt lat="48.77938" lon="2.12259">
        <ele>134</ele>
        <time>2021-03-28T11:02:37Z</time>
      </trkpt>
      <trkpt lat="48.77935" lon="2.12253">
        <ele>135</ele>
        <time>2021-03-28T11:02:42Z</time>
      </trkpt>
      <trkpt lat="48.77931" lon="2.12246">
        <ele>135</ele>
        <time>2021-03-28T11:02:49Z</time>
      </trkpt>
      <trkpt lat="48.77912" lon="2.12223">
        <ele>134.39999389648</ele>
        <time>2021-03-28T11:03:08Z</time>
      </trkpt>
      <trkpt lat="48.779" lon="2.12214">
        <ele>135.80000305176</ele>
        <time>2021-03-28T11:03:18Z</time>
      </trkpt>
      <trkpt lat="48.77894" lon="2.12207">
        <ele>136.60000610352</ele>
        <time>2021-03-28T11:03:25Z</time>
      </trkpt>
      <trkpt lat="48.77892" lon="2.12206">
        <ele>137.19999694824</ele>
        <time>2021-03-28T11:03:27Z</time>
      </trkpt>
      <trkpt lat="48.77883" lon="2.12196">
        <ele>138.19999694824</ele>
        <time>2021-03-28T11:03:35Z</time>
      </trkpt>
      <trkpt lat="48.7788" lon="2.12189">
        <ele>139.39999389648</ele>
        <time>2021-03-28T11:03:42Z</time>
      </trkpt>
      <trkpt lat="48.77879" lon="2.12187">
        <ele>139.80000305176</ele>
        <time>2021-03-28T11:03:44Z</time>
      </trkpt>
      <trkpt lat="48.77879" lon="2.1218">
        <ele>140.60000610352</ele>
        <time>2021-03-28T11:03:49Z</time>
      </trkpt>
      <trkpt lat="48.77881" lon="2.1217">
        <ele>141</ele>
        <time>2021-03-28T11:03:58Z</time>
      </trkpt>
      <trkpt lat="48.77886" lon="2.12158">
        <ele>141.60000610352</ele>
        <time>2021-03-28T11:04:08Z</time>
      </trkpt>
      <trkpt lat="48.77888" lon="2.12151">
        <ele>142.39999389648</ele>
        <time>2021-03-28T11:04:13Z</time>
      </trkpt>
      <trkpt lat="48.7789" lon="2.12144">
        <ele>142.80000305176</ele>
        <time>2021-03-28T11:04:18Z</time>
      </trkpt>
      <trkpt lat="48.77894" lon="2.12133">
        <ele>143.19999694824</ele>
        <time>2021-03-28T11:04:26Z</time>
      </trkpt>
      <trkpt lat="48.77895" lon="2.12129">
        <ele>143.39999389648</ele>
        <time>2021-03-28T11:04:35Z</time>
      </trkpt>
      <trkpt lat="48.77897" lon="2.12114">
        <ele>143.39999389648</ele>
        <time>2021-03-28T11:04:47Z</time>
      </trkpt>
      <trkpt lat="48.77898" lon="2.12105">
        <ele>144</ele>
        <time>2021-03-28T11:04:55Z</time>
      </trkpt>
      <trkpt lat="48.77897" lon="2.12095">
        <ele>144.19999694824</ele>
        <time>2021-03-28T11:05:01Z</time>
      </trkpt>
      <trkpt lat="48.779" lon="2.12072">
        <ele>144.19999694824</ele>
        <time>2021-03-28T11:05:16Z</time>
      </trkpt>
      <trkpt lat="48.77904" lon="2.12052">
        <ele>144</ele>
        <time>2021-03-28T11:05:29Z</time>
      </trkpt>
      <trkpt lat="48.77907" lon="2.12037">
        <ele>143.19999694824</ele>
        <time>2021-03-28T11:05:40Z</time>
      </trkpt>
      <trkpt lat="48.77909" lon="2.12031">
        <ele>142.80000305176</ele>
        <time>2021-03-28T11:05:46Z</time>
      </trkpt>
      <trkpt lat="48.77911" lon="2.12017">
        <ele>142.39999389648</ele>
        <time>2021-03-28T11:05:55Z</time>
      </trkpt>
      <trkpt lat="48.77914" lon="2.1201">
        <ele>142.19999694824</ele>
        <time>2021-03-28T11:05:59Z</time>
      </trkpt>
      <trkpt lat="48.77915" lon="2.12007">
        <ele>142</ele>
        <time>2021-03-28T11:06:01Z</time>
      </trkpt>
      <trkpt lat="48.77919" lon="2.12">
        <ele>141.80000305176</ele>
        <time>2021-03-28T11:06:06Z</time>
      </trkpt>
      <trkpt lat="48.7793" lon="2.11986">
        <ele>141.80000305176</ele>
        <time>2021-03-28T11:06:20Z</time>
      </trkpt>
      <trkpt lat="48.7794" lon="2.11972">
        <ele>141.60000610352</ele>
        <time>2021-03-28T11:06:32Z</time>
      </trkpt>
      <trkpt lat="48.77946" lon="2.11967">
        <ele>141</ele>
        <time>2021-03-28T11:06:38Z</time>
      </trkpt>
      <trkpt lat="48.77952" lon="2.11962">
        <ele>140.39999389648</ele>
        <time>2021-03-28T11:06:44Z</time>
      </trkpt>
      <trkpt lat="48.77952" lon="2.11959">
        <ele>140</ele>
        <time>2021-03-28T11:06:46Z</time>
      </trkpt>
      <trkpt lat="48.77954" lon="2.11954">
        <ele>138.80000305176</ele>
        <time>2021-03-28T11:06:50Z</time>
      </trkpt>
      <trkpt lat="48.77954" lon="2.11948">
        <ele>137.80000305176</ele>
        <time>2021-03-28T11:06:54Z</time>
      </trkpt>
      <trkpt lat="48.77953" lon="2.11939">
        <ele>136.39999389648</ele>
        <time>2021-03-28T11:07:01Z</time>
      </trkpt>
      <trkpt lat="48.77954" lon="2.11933">
        <ele>135.60000610352</ele>
        <time>2021-03-28T11:07:08Z</time>
      </trkpt>
      <trkpt lat="48.77958" lon="2.1192">
        <ele>135.19999694824</ele>
        <time>2021-03-28T11:07:15Z</time>
      </trkpt>
      <trkpt lat="48.77963" lon="2.11912">
        <ele>134.39999389648</ele>
        <time>2021-03-28T11:07:21Z</time>
      </trkpt>
      <trkpt lat="48.77969" lon="2.11903">
        <ele>134.19999694824</ele>
        <time>2021-03-28T11:07:28Z</time>
      </trkpt>
      <trkpt lat="48.77978" lon="2.11894">
        <ele>133.60000610352</ele>
        <time>2021-03-28T11:07:37Z</time>
      </trkpt>
      <trkpt lat="48.77984" lon="2.11889">
        <ele>132.80000305176</ele>
        <time>2021-03-28T11:07:43Z</time>
      </trkpt>
      <trkpt lat="48.77989" lon="2.11878">
        <ele>131.80000305176</ele>
        <time>2021-03-28T11:07:51Z</time>
      </trkpt>
      <trkpt lat="48.77995" lon="2.11867">
        <ele>132</ele>
        <time>2021-03-28T11:08:03Z</time>
      </trkpt>
      <trkpt lat="48.77996" lon="2.1186">
        <ele>131.39999389648</ele>
        <time>2021-03-28T11:08:15Z</time>
      </trkpt>
      <trkpt lat="48.77984" lon="2.11841">
        <ele>130.80000305176</ele>
        <time>2021-03-28T11:08:25Z</time>
      </trkpt>
      <trkpt lat="48.7798" lon="2.1183">
        <ele>130.80000305176</ele>
        <time>2021-03-28T11:08:37Z</time>
      </trkpt>
      <trkpt lat="48.77977" lon="2.11817">
        <ele>131.60000610352</ele>
        <time>2021-03-28T11:08:55Z</time>
      </trkpt>
      <trkpt lat="48.77974" lon="2.11809">
        <ele>132.60000610352</ele>
        <time>2021-03-28T11:09:02Z</time>
      </trkpt>
      <trkpt lat="48.77971" lon="2.11801">
        <ele>133.19999694824</ele>
        <time>2021-03-28T11:09:10Z</time>
      </trkpt>
      <trkpt lat="48.77962" lon="2.11785">
        <ele>133.60000610352</ele>
        <time>2021-03-28T11:09:21Z</time>
      </trkpt>
      <trkpt lat="48.77959" lon="2.11781">
        <ele>133.60000610352</ele>
        <time>2021-03-28T11:09:24Z</time>
      </trkpt>
      <trkpt lat="48.77951" lon="2.11775">
        <ele>134.19999694824</ele>
        <time>2021-03-28T11:09:30Z</time>
      </trkpt>
      <trkpt lat="48.77947" lon="2.11773">
        <ele>134.39999389648</ele>
        <time>2021-03-28T11:09:32Z</time>
      </trkpt>
      <trkpt lat="48.77943" lon="2.11774">
        <ele>135.60000610352</ele>
        <time>2021-03-28T11:09:39Z</time>
      </trkpt>
      <trkpt lat="48.77937" lon="2.11772">
        <ele>136.60000610352</ele>
        <time>2021-03-28T11:09:47Z</time>
      </trkpt>
      <trkpt lat="48.77937" lon="2.11773">
        <ele>137</ele>
        <time>2021-03-28T11:09:48Z</time>
      </trkpt>
      <trkpt lat="48.77934" lon="2.11773">
        <ele>137.80000305176</ele>
        <time>2021-03-28T11:09:54Z</time>
      </trkpt>
      <trkpt lat="48.77927" lon="2.11772">
        <ele>138.80000305176</ele>
        <time>2021-03-28T11:10:00Z</time>
      </trkpt>
      <trkpt lat="48.77924" lon="2.11774">
        <ele>139.19999694824</ele>
        <time>2021-03-28T11:10:03Z</time>
      </trkpt>
      <trkpt lat="48.77918" lon="2.11774">
        <ele>139.80000305176</ele>
        <time>2021-03-28T11:10:08Z</time>
      </trkpt>
      <trkpt lat="48.77904" lon="2.11772">
        <ele>141</ele>
        <time>2021-03-28T11:10:17Z</time>
      </trkpt>
      <trkpt lat="48.77901" lon="2.11771">
        <ele>141.19999694824</ele>
        <time>2021-03-28T11:10:19Z</time>
      </trkpt>
      <trkpt lat="48.77895" lon="2.11765">
        <ele>142</ele>
        <time>2021-03-28T11:10:26Z</time>
      </trkpt>
      <trkpt lat="48.77886" lon="2.11755">
        <ele>142.19999694824</ele>
        <time>2021-03-28T11:10:34Z</time>
      </trkpt>
      <trkpt lat="48.77878" lon="2.11736">
        <ele>142</ele>
        <time>2021-03-28T11:10:52Z</time>
      </trkpt>
      <trkpt lat="48.77869" lon="2.11719">
        <ele>141</ele>
        <time>2021-03-28T11:11:03Z</time>
      </trkpt>
      <trkpt lat="48.77866" lon="2.11715">
        <ele>139.80000305176</ele>
        <time>2021-03-28T11:11:08Z</time>
      </trkpt>
      <trkpt lat="48.77864" lon="2.11707">
        <ele>138.80000305176</ele>
        <time>2021-03-28T11:11:14Z</time>
      </trkpt>
      <trkpt lat="48.77862" lon="2.11704">
        <ele>137.60000610352</ele>
        <time>2021-03-28T11:11:20Z</time>
      </trkpt>
      <trkpt lat="48.77862" lon="2.11701">
        <ele>137.39999389648</ele>
        <time>2021-03-28T11:11:23Z</time>
      </trkpt>
      <trkpt lat="48.7786" lon="2.11698">
        <ele>136.80000305176</ele>
        <time>2021-03-28T11:11:27Z</time>
      </trkpt>
      <trkpt lat="48.77858" lon="2.1169">
        <ele>135.60000610352</ele>
        <time>2021-03-28T11:11:33Z</time>
      </trkpt>
      <trkpt lat="48.77857" lon="2.11681">
        <ele>135.19999694824</ele>
        <time>2021-03-28T11:11:39Z</time>
      </trkpt>
      <trkpt lat="48.77856" lon="2.11675">
        <ele>134.60000610352</ele>
        <time>2021-03-28T11:11:44Z</time>
      </trkpt>
      <trkpt lat="48.77854" lon="2.11665">
        <ele>133.60000610352</ele>
        <time>2021-03-28T11:11:52Z</time>
      </trkpt>
      <trkpt lat="48.77852" lon="2.11659">
        <ele>133.19999694824</ele>
        <time>2021-03-28T11:11:55Z</time>
      </trkpt>
      <trkpt lat="48.77847" lon="2.11639">
        <ele>132.39999389648</ele>
        <time>2021-03-28T11:12:08Z</time>
      </trkpt>
      <trkpt lat="48.77846" lon="2.11636">
        <ele>132.39999389648</ele>
        <time>2021-03-28T11:12:10Z</time>
      </trkpt>
      <trkpt lat="48.77842" lon="2.11619">
        <ele>131.39999389648</ele>
        <time>2021-03-28T11:12:21Z</time>
      </trkpt>
      <trkpt lat="48.7784" lon="2.1161">
        <ele>130.80000305176</ele>
        <time>2021-03-28T11:12:26Z</time>
      </trkpt>
      <trkpt lat="48.77839" lon="2.11605">
        <ele>130.39999389648</ele>
        <time>2021-03-28T11:12:30Z</time>
      </trkpt>
      <trkpt lat="48.77841" lon="2.11595">
        <ele>129.39999389648</ele>
        <time>2021-03-28T11:12:37Z</time>
      </trkpt>
      <trkpt lat="48.77842" lon="2.11589">
        <ele>128.39999389648</ele>
        <time>2021-03-28T11:12:42Z</time>
      </trkpt>
      <trkpt lat="48.77842" lon="2.11587">
        <ele>128.39999389648</ele>
        <time>2021-03-28T11:12:43Z</time>
      </trkpt>
      <trkpt lat="48.77842" lon="2.11563">
        <ele>128.60000610352</ele>
        <time>2021-03-28T11:12:57Z</time>
      </trkpt>
      <trkpt lat="48.77841" lon="2.11556">
        <ele>129.39999389648</ele>
        <time>2021-03-28T11:13:01Z</time>
      </trkpt>
      <trkpt lat="48.7784" lon="2.11542">
        <ele>130.39999389648</ele>
        <time>2021-03-28T11:13:12Z</time>
      </trkpt>
      <trkpt lat="48.77841" lon="2.1154">
        <ele>130.60000610352</ele>
        <time>2021-03-28T11:13:13Z</time>
      </trkpt>
      <trkpt lat="48.77838" lon="2.11522">
        <ele>131.39999389648</ele>
        <time>2021-03-28T11:13:22Z</time>
      </trkpt>
      <trkpt lat="48.77839" lon="2.11516">
        <ele>132.60000610352</ele>
        <time>2021-03-28T11:13:26Z</time>
      </trkpt>
      <trkpt lat="48.7784" lon="2.11508">
        <ele>133.60000610352</ele>
        <time>2021-03-28T11:13:32Z</time>
      </trkpt>
      <trkpt lat="48.77841" lon="2.11497">
        <ele>134.39999389648</ele>
        <time>2021-03-28T11:13:40Z</time>
      </trkpt>
      <trkpt lat="48.77842" lon="2.1149">
        <ele>134.60000610352</ele>
        <time>2021-03-28T11:13:44Z</time>
      </trkpt>
      <trkpt lat="48.77842" lon="2.11481">
        <ele>135.60000610352</ele>
        <time>2021-03-28T11:13:50Z</time>
      </trkpt>
      <trkpt lat="48.77843" lon="2.11474">
        <ele>136.39999389648</ele>
        <time>2021-03-28T11:13:56Z</time>
      </trkpt>
      <trkpt lat="48.77844" lon="2.11471">
        <ele>136.60000610352</ele>
        <time>2021-03-28T11:13:59Z</time>
      </trkpt>
      <trkpt lat="48.77851" lon="2.11454">
        <ele>136.60000610352</ele>
        <time>2021-03-28T11:14:12Z</time>
      </trkpt>
      <trkpt lat="48.77857" lon="2.11441">
        <ele>135.80000305176</ele>
        <time>2021-03-28T11:14:23Z</time>
      </trkpt>
      <trkpt lat="48.77859" lon="2.11435">
        <ele>135.19999694824</ele>
        <time>2021-03-28T11:14:28Z</time>
      </trkpt>
      <trkpt lat="48.77858" lon="2.11425">
        <ele>134.80000305176</ele>
        <time>2021-03-28T11:14:34Z</time>
      </trkpt>
      <trkpt lat="48.77861" lon="2.11417">
        <ele>133.80000305176</ele>
        <time>2021-03-28T11:14:41Z</time>
      </trkpt>
      <trkpt lat="48.77861" lon="2.11415">
        <ele>133.39999389648</ele>
        <time>2021-03-28T11:14:43Z</time>
      </trkpt>
      <trkpt lat="48.77863" lon="2.11411">
        <ele>132.60000610352</ele>
        <time>2021-03-28T11:14:46Z</time>
      </trkpt>
      <trkpt lat="48.77865" lon="2.11403">
        <ele>131.39999389648</ele>
        <time>2021-03-28T11:14:51Z</time>
      </trkpt>
      <trkpt lat="48.77868" lon="2.11394">
        <ele>130.39999389648</ele>
        <time>2021-03-28T11:14:58Z</time>
      </trkpt>
      <trkpt lat="48.77863" lon="2.11373">
        <ele>129.60000610352</ele>
        <time>2021-03-28T11:15:05Z</time>
      </trkpt>
      <trkpt lat="48.77863" lon="2.11358">
        <ele>129.60000610352</ele>
        <time>2021-03-28T11:15:12Z</time>
      </trkpt>
      <trkpt lat="48.7787" lon="2.11329">
        <ele>130.60000610352</ele>
        <time>2021-03-28T11:15:26Z</time>
      </trkpt>
      <trkpt lat="48.77871" lon="2.11327">
        <ele>131.19999694824</ele>
        <time>2021-03-28T11:15:28Z</time>
      </trkpt>
      <trkpt lat="48.77874" lon="2.11308">
        <ele>132</ele>
        <time>2021-03-28T11:15:43Z</time>
      </trkpt>
      <trkpt lat="48.77879" lon="2.11297">
        <ele>130</ele>
        <time>2021-03-28T11:15:57Z</time>
      </trkpt>
      <trkpt lat="48.7788" lon="2.11296">
        <ele>129.60000610352</ele>
        <time>2021-03-28T11:16:00Z</time>
      </trkpt>
      <trkpt lat="48.77881" lon="2.11292">
        <ele>129</ele>
        <time>2021-03-28T11:16:06Z</time>
      </trkpt>
      <trkpt lat="48.77886" lon="2.11289">
        <ele>128</ele>
        <time>2021-03-28T11:16:12Z</time>
      </trkpt>
      <trkpt lat="48.77891" lon="2.11282">
        <ele>126.80000305176</ele>
        <time>2021-03-28T11:16:17Z</time>
      </trkpt>
      <trkpt lat="48.77893" lon="2.1128">
        <ele>126.80000305176</ele>
        <time>2021-03-28T11:16:18Z</time>
      </trkpt>
      <trkpt lat="48.77904" lon="2.11255">
        <ele>125.59999847412</ele>
        <time>2021-03-28T11:16:31Z</time>
      </trkpt>
      <trkpt lat="48.77904" lon="2.11254">
        <ele>125.59999847412</ele>
        <time>2021-03-28T11:16:32Z</time>
      </trkpt>
      <trkpt lat="48.77898" lon="2.11241">
        <ele>125.80000305176</ele>
        <time>2021-03-28T11:16:43Z</time>
      </trkpt>
      <trkpt lat="48.7789" lon="2.1122">
        <ele>125.40000152588</ele>
        <time>2021-03-28T11:17:01Z</time>
      </trkpt>
      <trkpt lat="48.77883" lon="2.11209">
        <ele>126.59999847412</ele>
        <time>2021-03-28T11:17:09Z</time>
      </trkpt>
      <trkpt lat="48.7788" lon="2.11204">
        <ele>127.80000305176</ele>
        <time>2021-03-28T11:17:16Z</time>
      </trkpt>
      <trkpt lat="48.77879" lon="2.11201">
        <ele>128.39999389648</ele>
        <time>2021-03-28T11:17:20Z</time>
      </trkpt>
      <trkpt lat="48.77878" lon="2.11201">
        <ele>128.80000305176</ele>
        <time>2021-03-28T11:17:21Z</time>
      </trkpt>
      <trkpt lat="48.77878" lon="2.112">
        <ele>129.80000305176</ele>
        <time>2021-03-28T11:17:25Z</time>
      </trkpt>
      <trkpt lat="48.77875" lon="2.11197">
        <ele>131</ele>
        <time>2021-03-28T11:17:30Z</time>
      </trkpt>
      <trkpt lat="48.77875" lon="2.11192">
        <ele>131.39999389648</ele>
        <time>2021-03-28T11:17:35Z</time>
      </trkpt>
      <trkpt lat="48.77873" lon="2.11188">
        <ele>132</ele>
        <time>2021-03-28T11:17:39Z</time>
      </trkpt>
      <trkpt lat="48.7787" lon="2.11182">
        <ele>133.19999694824</ele>
        <time>2021-03-28T11:17:45Z</time>
      </trkpt>
      <trkpt lat="48.7787" lon="2.11176">
        <ele>134.39999389648</ele>
        <time>2021-03-28T11:17:49Z</time>
      </trkpt>
      <trkpt lat="48.77864" lon="2.1117">
        <ele>135.39999389648</ele>
        <time>2021-03-28T11:17:53Z</time>
      </trkpt>
      <trkpt lat="48.77862" lon="2.11168">
        <ele>135.60000610352</ele>
        <time>2021-03-28T11:17:54Z</time>
      </trkpt>
      <trkpt lat="48.77857" lon="2.11163">
        <ele>136.60000610352</ele>
        <time>2021-03-28T11:18:00Z</time>
      </trkpt>
      <trkpt lat="48.77852" lon="2.11162">
        <ele>137</ele>
        <time>2021-03-28T11:18:06Z</time>
      </trkpt>
      <trkpt lat="48.77844" lon="2.11157">
        <ele>137.60000610352</ele>
        <time>2021-03-28T11:18:13Z</time>
      </trkpt>
      <trkpt lat="48.77843" lon="2.11153">
        <ele>138.60000610352</ele>
        <time>2021-03-28T11:18:20Z</time>
      </trkpt>
      <trkpt lat="48.77842" lon="2.11151">
        <ele>138.80000305176</ele>
        <time>2021-03-28T11:18:21Z</time>
      </trkpt>
      <trkpt lat="48.77839" lon="2.11145">
        <ele>139.80000305176</ele>
        <time>2021-03-28T11:18:25Z</time>
      </trkpt>
      <trkpt lat="48.77833" lon="2.11137">
        <ele>140.80000305176</ele>
        <time>2021-03-28T11:18:31Z</time>
      </trkpt>
      <trkpt lat="48.7783" lon="2.11131">
        <ele>141.39999389648</ele>
        <time>2021-03-28T11:18:35Z</time>
      </trkpt>
      <trkpt lat="48.77829" lon="2.11124">
        <ele>141.80000305176</ele>
        <time>2021-03-28T11:18:40Z</time>
      </trkpt>
      <trkpt lat="48.7782" lon="2.11118">
        <ele>143</ele>
        <time>2021-03-28T11:18:46Z</time>
      </trkpt>
      <trkpt lat="48.77817" lon="2.11112">
        <ele>143.39999389648</ele>
        <time>2021-03-28T11:18:51Z</time>
      </trkpt>
      <trkpt lat="48.77817" lon="2.11106">
        <ele>143.39999389648</ele>
        <time>2021-03-28T11:19:05Z</time>
      </trkpt>
      <trkpt lat="48.77814" lon="2.11091">
        <ele>143.60000610352</ele>
        <time>2021-03-28T11:19:18Z</time>
      </trkpt>
      <trkpt lat="48.77807" lon="2.11077">
        <ele>143.19999694824</ele>
        <time>2021-03-28T11:19:32Z</time>
      </trkpt>
      <trkpt lat="48.77798" lon="2.11063">
        <ele>142.60000610352</ele>
        <time>2021-03-28T11:19:46Z</time>
      </trkpt>
      <trkpt lat="48.7779" lon="2.11039">
        <ele>142.39999389648</ele>
        <time>2021-03-28T11:20:05Z</time>
      </trkpt>
      <trkpt lat="48.77791" lon="2.11019">
        <ele>142.80000305176</ele>
        <time>2021-03-28T11:20:18Z</time>
      </trkpt>
      <trkpt lat="48.77781" lon="2.11007">
        <ele>142.39999389648</ele>
        <time>2021-03-28T11:20:29Z</time>
      </trkpt>
      <trkpt lat="48.7778" lon="2.11005">
        <ele>142.39999389648</ele>
        <time>2021-03-28T11:20:31Z</time>
      </trkpt>
      <trkpt lat="48.77781" lon="2.1099">
        <ele>141.39999389648</ele>
        <time>2021-03-28T11:20:40Z</time>
      </trkpt>
      <trkpt lat="48.7778" lon="2.10983">
        <ele>141.39999389648</ele>
        <time>2021-03-28T11:20:44Z</time>
      </trkpt>
      <trkpt lat="48.77781" lon="2.10962">
        <ele>141.39999389648</ele>
        <time>2021-03-28T11:21:00Z</time>
      </trkpt>
      <trkpt lat="48.77785" lon="2.10952">
        <ele>142.60000610352</ele>
        <time>2021-03-28T11:21:10Z</time>
      </trkpt>
      <trkpt lat="48.77788" lon="2.10946">
        <ele>142.80000305176</ele>
        <time>2021-03-28T11:21:15Z</time>
      </trkpt>
      <trkpt lat="48.77796" lon="2.10924">
        <ele>143</ele>
        <time>2021-03-28T11:21:32Z</time>
      </trkpt>
      <trkpt lat="48.778" lon="2.10911">
        <ele>141.80000305176</ele>
        <time>2021-03-28T11:21:43Z</time>
      </trkpt>
      <trkpt lat="48.778" lon="2.10906">
        <ele>140.80000305176</ele>
        <time>2021-03-28T11:21:47Z</time>
      </trkpt>
      <trkpt lat="48.77799" lon="2.10902">
        <ele>140.19999694824</ele>
        <time>2021-03-28T11:21:50Z</time>
      </trkpt>
      <trkpt lat="48.77799" lon="2.109">
        <ele>140</ele>
        <time>2021-03-28T11:21:51Z</time>
      </trkpt>
      <trkpt lat="48.77795" lon="2.10877">
        <ele>138.80000305176</ele>
        <time>2021-03-28T11:22:01Z</time>
      </trkpt>
      <trkpt lat="48.77792" lon="2.1087">
        <ele>137.80000305176</ele>
        <time>2021-03-28T11:22:07Z</time>
      </trkpt>
      <trkpt lat="48.7779" lon="2.10862">
        <ele>136.60000610352</ele>
        <time>2021-03-28T11:22:12Z</time>
      </trkpt>
      <trkpt lat="48.77789" lon="2.10856">
        <ele>135.60000610352</ele>
        <time>2021-03-28T11:22:16Z</time>
      </trkpt>
      <trkpt lat="48.77787" lon="2.10844">
        <ele>134.60000610352</ele>
        <time>2021-03-28T11:22:23Z</time>
      </trkpt>
      <trkpt lat="48.77787" lon="2.10841">
        <ele>134.39999389648</ele>
        <time>2021-03-28T11:22:25Z</time>
      </trkpt>
      <trkpt lat="48.77785" lon="2.10831">
        <ele>133.39999389648</ele>
        <time>2021-03-28T11:22:32Z</time>
      </trkpt>
      <trkpt lat="48.77786" lon="2.10822">
        <ele>132.39999389648</ele>
        <time>2021-03-28T11:22:38Z</time>
      </trkpt>
      <trkpt lat="48.77786" lon="2.10816">
        <ele>132</ele>
        <time>2021-03-28T11:22:42Z</time>
      </trkpt>
      <trkpt lat="48.77786" lon="2.10809">
        <ele>131.39999389648</ele>
        <time>2021-03-28T11:22:47Z</time>
      </trkpt>
      <trkpt lat="48.77789" lon="2.10801">
        <ele>130.39999389648</ele>
        <time>2021-03-28T11:22:52Z</time>
      </trkpt>
      <trkpt lat="48.77794" lon="2.10787">
        <ele>129.60000610352</ele>
        <time>2021-03-28T11:22:59Z</time>
      </trkpt>
      <trkpt lat="48.77796" lon="2.10782">
        <ele>129.19999694824</ele>
        <time>2021-03-28T11:23:02Z</time>
      </trkpt>
      <trkpt lat="48.77797" lon="2.10774">
        <ele>128.19999694824</ele>
        <time>2021-03-28T11:23:08Z</time>
      </trkpt>
      <trkpt lat="48.77795" lon="2.10766">
        <ele>127.80000305176</ele>
        <time>2021-03-28T11:23:14Z</time>
      </trkpt>
      <trkpt lat="48.77795" lon="2.10748">
        <ele>127</ele>
        <time>2021-03-28T11:23:25Z</time>
      </trkpt>
      <trkpt lat="48.77793" lon="2.10743">
        <ele>126.19999694824</ele>
        <time>2021-03-28T11:23:31Z</time>
      </trkpt>
      <trkpt lat="48.77793" lon="2.10742">
        <ele>126</ele>
        <time>2021-03-28T11:23:33Z</time>
      </trkpt>
      <trkpt lat="48.77789" lon="2.10741">
        <ele>124.80000305176</ele>
        <time>2021-03-28T11:23:37Z</time>
      </trkpt>
      <trkpt lat="48.77788" lon="2.10743">
        <ele>123.59999847412</ele>
        <time>2021-03-28T11:23:40Z</time>
      </trkpt>
      <trkpt lat="48.77785" lon="2.10745">
        <ele>122.59999847412</ele>
        <time>2021-03-28T11:23:43Z</time>
      </trkpt>
      <trkpt lat="48.77782" lon="2.10746">
        <ele>122</ele>
        <time>2021-03-28T11:23:46Z</time>
      </trkpt>
      <trkpt lat="48.77772" lon="2.10747">
        <ele>122.59999847412</ele>
        <time>2021-03-28T11:24:05Z</time>
      </trkpt>
      <trkpt lat="48.77768" lon="2.10742">
        <ele>122.59999847412</ele>
        <time>2021-03-28T11:24:22Z</time>
      </trkpt>
      <trkpt lat="48.77744" lon="2.10743">
        <ele>122.40000152588</ele>
        <time>2021-03-28T11:24:36Z</time>
      </trkpt>
      <trkpt lat="48.77735" lon="2.10742">
        <ele>123.40000152588</ele>
        <time>2021-03-28T11:24:45Z</time>
      </trkpt>
      <trkpt lat="48.77732" lon="2.10738">
        <ele>124.80000305176</ele>
        <time>2021-03-28T11:24:50Z</time>
      </trkpt>
      <trkpt lat="48.77729" lon="2.10736">
        <ele>125.40000152588</ele>
        <time>2021-03-28T11:24:53Z</time>
      </trkpt>
      <trkpt lat="48.77728" lon="2.10735">
        <ele>125.80000305176</ele>
        <time>2021-03-28T11:24:55Z</time>
      </trkpt>
      <trkpt lat="48.77727" lon="2.10728">
        <ele>127</ele>
        <time>2021-03-28T11:25:01Z</time>
      </trkpt>
      <trkpt lat="48.77721" lon="2.10721">
        <ele>128.19999694824</ele>
        <time>2021-03-28T11:25:08Z</time>
      </trkpt>
      <trkpt lat="48.77721" lon="2.10714">
        <ele>128.80000305176</ele>
        <time>2021-03-28T11:25:11Z</time>
      </trkpt>
      <trkpt lat="48.77721" lon="2.10708">
        <ele>129.19999694824</ele>
        <time>2021-03-28T11:25:17Z</time>
      </trkpt>
      <trkpt lat="48.77723" lon="2.10701">
        <ele>130.60000610352</ele>
        <time>2021-03-28T11:25:24Z</time>
      </trkpt>
      <trkpt lat="48.77722" lon="2.10699">
        <ele>131.19999694824</ele>
        <time>2021-03-28T11:25:28Z</time>
      </trkpt>
      <trkpt lat="48.77722" lon="2.10696">
        <ele>131.80000305176</ele>
        <time>2021-03-28T11:25:31Z</time>
      </trkpt>
      <trkpt lat="48.7772" lon="2.1069">
        <ele>132.80000305176</ele>
        <time>2021-03-28T11:25:37Z</time>
      </trkpt>
      <trkpt lat="48.77723" lon="2.10683">
        <ele>133.80000305176</ele>
        <time>2021-03-28T11:25:43Z</time>
      </trkpt>
      <trkpt lat="48.77726" lon="2.10676">
        <ele>135</ele>
        <time>2021-03-28T11:25:48Z</time>
      </trkpt>
      <trkpt lat="48.77726" lon="2.10669">
        <ele>136</ele>
        <time>2021-03-28T11:25:55Z</time>
      </trkpt>
      <trkpt lat="48.77726" lon="2.10666">
        <ele>137</ele>
        <time>2021-03-28T11:25:59Z</time>
      </trkpt>
      <trkpt lat="48.77724" lon="2.10661">
        <ele>138</ele>
        <time>2021-03-28T11:26:05Z</time>
      </trkpt>
      <trkpt lat="48.77722" lon="2.1066">
        <ele>138</ele>
        <time>2021-03-28T11:26:07Z</time>
      </trkpt>
      <trkpt lat="48.77717" lon="2.10644">
        <ele>139.19999694824</ele>
        <time>2021-03-28T11:26:21Z</time>
      </trkpt>
      <trkpt lat="48.77717" lon="2.10643">
        <ele>139.19999694824</ele>
        <time>2021-03-28T11:26:22Z</time>
      </trkpt>
      <trkpt lat="48.77709" lon="2.10624">
        <ele>140.39999389648</ele>
        <time>2021-03-28T11:26:32Z</time>
      </trkpt>
      <trkpt lat="48.77704" lon="2.10615">
        <ele>140.80000305176</ele>
        <time>2021-03-28T11:26:38Z</time>
      </trkpt>
      <trkpt lat="48.77692" lon="2.10602">
        <ele>141.39999389648</ele>
        <time>2021-03-28T11:26:48Z</time>
      </trkpt>
      <trkpt lat="48.77686" lon="2.10589">
        <ele>141.80000305176</ele>
        <time>2021-03-28T11:26:57Z</time>
      </trkpt>
      <trkpt lat="48.77684" lon="2.10571">
        <ele>141.60000610352</ele>
        <time>2021-03-28T11:27:11Z</time>
      </trkpt>
      <trkpt lat="48.77682" lon="2.10569">
        <ele>141.39999389648</ele>
        <time>2021-03-28T11:27:26Z</time>
      </trkpt>
      <trkpt lat="48.77683" lon="2.10552">
        <ele>141.60000610352</ele>
        <time>2021-03-28T11:27:43Z</time>
      </trkpt>
      <trkpt lat="48.77682" lon="2.10534">
        <ele>142</ele>
        <time>2021-03-28T11:27:59Z</time>
      </trkpt>
      <trkpt lat="48.77685" lon="2.10505">
        <ele>142.60000610352</ele>
        <time>2021-03-28T11:28:15Z</time>
      </trkpt>
      <trkpt lat="48.77689" lon="2.10483">
        <ele>142.39999389648</ele>
        <time>2021-03-28T11:28:32Z</time>
      </trkpt>
      <trkpt lat="48.77699" lon="2.10461">
        <ele>142.80000305176</ele>
        <time>2021-03-28T11:28:50Z</time>
      </trkpt>
      <trkpt lat="48.77702" lon="2.10436">
        <ele>143</ele>
        <time>2021-03-28T11:29:08Z</time>
      </trkpt>
      <trkpt lat="48.77702" lon="2.10423">
        <ele>143</ele>
        <time>2021-03-28T11:29:17Z</time>
      </trkpt>
      <trkpt lat="48.77703" lon="2.10408">
        <ele>143.60000610352</ele>
        <time>2021-03-28T11:29:28Z</time>
      </trkpt>
      <trkpt lat="48.77703" lon="2.1039">
        <ele>143.60000610352</ele>
        <time>2021-03-28T11:29:42Z</time>
      </trkpt>
      <trkpt lat="48.77704" lon="2.10376">
        <ele>143.80000305176</ele>
        <time>2021-03-28T11:30:01Z</time>
      </trkpt>
      <trkpt lat="48.77707" lon="2.1037">
        <ele>143.80000305176</ele>
        <time>2021-03-28T11:30:17Z</time>
      </trkpt>
      <trkpt lat="48.7771" lon="2.10352">
        <ele>143.60000610352</ele>
        <time>2021-03-28T11:30:31Z</time>
      </trkpt>
      <trkpt lat="48.77712" lon="2.10328">
        <ele>143</ele>
        <time>2021-03-28T11:30:47Z</time>
      </trkpt>
      <trkpt lat="48.77718" lon="2.10303">
        <ele>143.19999694824</ele>
        <time>2021-03-28T11:31:04Z</time>
      </trkpt>
      <trkpt lat="48.77723" lon="2.10275">
        <ele>143.80000305176</ele>
        <time>2021-03-28T11:31:21Z</time>
      </trkpt>
      <trkpt lat="48.77723" lon="2.10247">
        <ele>143.60000610352</ele>
        <time>2021-03-28T11:31:37Z</time>
      </trkpt>
      <trkpt lat="48.77723" lon="2.10232">
        <ele>143</ele>
        <time>2021-03-28T11:31:49Z</time>
      </trkpt>
      <trkpt lat="48.77721" lon="2.10218">
        <ele>142.80000305176</ele>
        <time>2021-03-28T11:32:01Z</time>
      </trkpt>
      <trkpt lat="48.77723" lon="2.10213">
        <ele>142.60000610352</ele>
        <time>2021-03-28T11:32:05Z</time>
      </trkpt>
      <trkpt lat="48.77728" lon="2.10198">
        <ele>142</ele>
        <time>2021-03-28T11:32:18Z</time>
      </trkpt>
      <trkpt lat="48.77727" lon="2.10194">
        <ele>141.60000610352</ele>
        <time>2021-03-28T11:32:21Z</time>
      </trkpt>
      <trkpt lat="48.77729" lon="2.10183">
        <ele>140.80000305176</ele>
        <time>2021-03-28T11:32:36Z</time>
      </trkpt>
      <trkpt lat="48.7773" lon="2.10179">
        <ele>140.80000305176</ele>
        <time>2021-03-28T11:32:40Z</time>
      </trkpt>
      <trkpt lat="48.77736" lon="2.10167">
        <ele>139.60000610352</ele>
        <time>2021-03-28T11:32:51Z</time>
      </trkpt>
      <trkpt lat="48.77737" lon="2.10164">
        <ele>139.19999694824</ele>
        <time>2021-03-28T11:32:53Z</time>
      </trkpt>
      <trkpt lat="48.77739" lon="2.10161">
        <ele>138.60000610352</ele>
        <time>2021-03-28T11:32:57Z</time>
      </trkpt>
      <trkpt lat="48.7774" lon="2.10153">
        <ele>137.60000610352</ele>
        <time>2021-03-28T11:33:05Z</time>
      </trkpt>
      <trkpt lat="48.77742" lon="2.1015">
        <ele>137.19999694824</ele>
        <time>2021-03-28T11:33:10Z</time>
      </trkpt>
      <trkpt lat="48.77743" lon="2.10142">
        <ele>136.60000610352</ele>
        <time>2021-03-28T11:33:19Z</time>
      </trkpt>
      <trkpt lat="48.7774" lon="2.10137">
        <ele>136.19999694824</ele>
        <time>2021-03-28T11:33:24Z</time>
      </trkpt>
      <trkpt lat="48.77736" lon="2.10137">
        <ele>135.39999389648</ele>
        <time>2021-03-28T11:33:31Z</time>
      </trkpt>
      <trkpt lat="48.77733" lon="2.10134">
        <ele>134.19999694824</ele>
        <time>2021-03-28T11:33:36Z</time>
      </trkpt>
      <trkpt lat="48.7773" lon="2.10131">
        <ele>133.60000610352</ele>
        <time>2021-03-28T11:33:40Z</time>
      </trkpt>
      <trkpt lat="48.77729" lon="2.1013">
        <ele>133.19999694824</ele>
        <time>2021-03-28T11:33:42Z</time>
      </trkpt>
      <trkpt lat="48.77726" lon="2.10129">
        <ele>132</ele>
        <time>2021-03-28T11:33:46Z</time>
      </trkpt>
      <trkpt lat="48.77723" lon="2.10127">
        <ele>131</ele>
        <time>2021-03-28T11:33:51Z</time>
      </trkpt>
      <trkpt lat="48.77719" lon="2.10123">
        <ele>129.80000305176</ele>
        <time>2021-03-28T11:33:57Z</time>
      </trkpt>
      <trkpt lat="48.77715" lon="2.10118">
        <ele>128.80000305176</ele>
        <time>2021-03-28T11:34:03Z</time>
      </trkpt>
      <trkpt lat="48.77712" lon="2.10115">
        <ele>127.59999847412</ele>
        <time>2021-03-28T11:34:07Z</time>
      </trkpt>
      <trkpt lat="48.77709" lon="2.10113">
        <ele>126.40000152588</ele>
        <time>2021-03-28T11:34:11Z</time>
      </trkpt>
      <trkpt lat="48.77705" lon="2.10109">
        <ele>125.40000152588</ele>
        <time>2021-03-28T11:34:16Z</time>
      </trkpt>
      <trkpt lat="48.77701" lon="2.10101">
        <ele>124</ele>
        <time>2021-03-28T11:34:21Z</time>
      </trkpt>
      <trkpt lat="48.77698" lon="2.10094">
        <ele>123</ele>
        <time>2021-03-28T11:34:26Z</time>
      </trkpt>
      <trkpt lat="48.77695" lon="2.10094">
        <ele>122</ele>
        <time>2021-03-28T11:34:31Z</time>
      </trkpt>
      <trkpt lat="48.77694" lon="2.10094">
        <ele>121.80000305176</ele>
        <time>2021-03-28T11:34:32Z</time>
      </trkpt>
      <trkpt lat="48.77691" lon="2.10095">
        <ele>120.59999847412</ele>
        <time>2021-03-28T11:34:37Z</time>
      </trkpt>
      <trkpt lat="48.77689" lon="2.10096">
        <ele>119.80000305176</ele>
        <time>2021-03-28T11:34:48Z</time>
      </trkpt>
      <trkpt lat="48.77696" lon="2.10087">
        <ele>120.40000152588</ele>
        <time>2021-03-28T11:35:00Z</time>
      </trkpt>
      <trkpt lat="48.77714" lon="2.10074">
        <ele>121.59999847412</ele>
        <time>2021-03-28T11:35:17Z</time>
      </trkpt>
      <trkpt lat="48.77715" lon="2.10074">
        <ele>121.80000305176</ele>
        <time>2021-03-28T11:35:18Z</time>
      </trkpt>
      <trkpt lat="48.77733" lon="2.10063">
        <ele>122.19999694824</ele>
        <time>2021-03-28T11:35:34Z</time>
      </trkpt>
      <trkpt lat="48.77747" lon="2.10068">
        <ele>121.40000152588</ele>
        <time>2021-03-28T11:35:49Z</time>
      </trkpt>
      <trkpt lat="48.77762" lon="2.10075">
        <ele>120.80000305176</ele>
        <time>2021-03-28T11:36:04Z</time>
      </trkpt>
      <trkpt lat="48.77763" lon="2.10075">
        <ele>120.59999847412</ele>
        <time>2021-03-28T11:36:05Z</time>
      </trkpt>
      <trkpt lat="48.77771" lon="2.10078">
        <ele>119.59999847412</ele>
        <time>2021-03-28T11:36:14Z</time>
      </trkpt>
      <trkpt lat="48.77773" lon="2.10083">
        <ele>118.59999847412</ele>
        <time>2021-03-28T11:36:21Z</time>
      </trkpt>
      <trkpt lat="48.77773" lon="2.10084">
        <ele>117.80000305176</ele>
        <time>2021-03-28T11:36:24Z</time>
      </trkpt>
      <trkpt lat="48.77775" lon="2.10085">
        <ele>117.59999847412</ele>
        <time>2021-03-28T11:36:27Z</time>
      </trkpt>
      <trkpt lat="48.77779" lon="2.10085">
        <ele>116.59999847412</ele>
        <time>2021-03-28T11:36:34Z</time>
      </trkpt>
      <trkpt lat="48.77785" lon="2.10078">
        <ele>116</ele>
        <time>2021-03-28T11:36:43Z</time>
      </trkpt>
      <trkpt lat="48.77797" lon="2.10061">
        <ele>116.59999847412</ele>
        <time>2021-03-28T11:37:01Z</time>
      </trkpt>
      <trkpt lat="48.77809" lon="2.10036">
        <ele>116.59999847412</ele>
        <time>2021-03-28T11:37:16Z</time>
      </trkpt>
      <trkpt lat="48.77814" lon="2.10015">
        <ele>116.40000152588</ele>
        <time>2021-03-28T11:37:32Z</time>
      </trkpt>
      <trkpt lat="48.77823" lon="2.09991">
        <ele>116.59999847412</ele>
        <time>2021-03-28T11:37:47Z</time>
      </trkpt>
      <trkpt lat="48.7783" lon="2.09969">
        <ele>117.40000152588</ele>
        <time>2021-03-28T11:38:05Z</time>
      </trkpt>
      <trkpt lat="48.77836" lon="2.09954">
        <ele>118.40000152588</ele>
        <time>2021-03-28T11:38:16Z</time>
      </trkpt>
      <trkpt lat="48.77839" lon="2.09949">
        <ele>119.19999694824</ele>
        <time>2021-03-28T11:38:24Z</time>
      </trkpt>
      <trkpt lat="48.77853" lon="2.09931">
        <ele>119.59999847412</ele>
        <time>2021-03-28T11:38:40Z</time>
      </trkpt>
      <trkpt lat="48.77861" lon="2.09926">
        <ele>120.59999847412</ele>
        <time>2021-03-28T11:38:49Z</time>
      </trkpt>
      <trkpt lat="48.77865" lon="2.09925">
        <ele>121.80000305176</ele>
        <time>2021-03-28T11:38:54Z</time>
      </trkpt>
      <trkpt lat="48.77868" lon="2.09923">
        <ele>122</ele>
        <time>2021-03-28T11:38:57Z</time>
      </trkpt>
      <trkpt lat="48.77874" lon="2.09922">
        <ele>122.80000305176</ele>
        <time>2021-03-28T11:39:05Z</time>
      </trkpt>
      <trkpt lat="48.77879" lon="2.09923">
        <ele>123.19999694824</ele>
        <time>2021-03-28T11:39:14Z</time>
      </trkpt>
      <trkpt lat="48.77891" lon="2.0993">
        <ele>122</ele>
        <time>2021-03-28T11:39:31Z</time>
      </trkpt>
      <trkpt lat="48.77892" lon="2.09931">
        <ele>122</ele>
        <time>2021-03-28T11:39:33Z</time>
      </trkpt>
      <trkpt lat="48.77906" lon="2.09941">
        <ele>121.40000152588</ele>
        <time>2021-03-28T11:39:50Z</time>
      </trkpt>
      <trkpt lat="48.7792" lon="2.0995">
        <ele>121.59999847412</ele>
        <time>2021-03-28T11:40:05Z</time>
      </trkpt>
      <trkpt lat="48.77935" lon="2.09952">
        <ele>120.80000305176</ele>
        <time>2021-03-28T11:40:21Z</time>
      </trkpt>
      <trkpt lat="48.77936" lon="2.09949">
        <ele>120.80000305176</ele>
        <time>2021-03-28T11:40:23Z</time>
      </trkpt>
      <trkpt lat="48.7794" lon="2.09956">
        <ele>122</ele>
        <time>2021-03-28T11:40:35Z</time>
      </trkpt>
      <trkpt lat="48.77942" lon="2.09956">
        <ele>123.19999694824</ele>
        <time>2021-03-28T11:40:38Z</time>
      </trkpt>
      <trkpt lat="48.77943" lon="2.09956">
        <ele>123.59999847412</ele>
        <time>2021-03-28T11:40:40Z</time>
      </trkpt>
      <trkpt lat="48.77948" lon="2.09962">
        <ele>124.19999694824</ele>
        <time>2021-03-28T11:40:44Z</time>
      </trkpt>
      <trkpt lat="48.77953" lon="2.09951">
        <ele>124.80000305176</ele>
        <time>2021-03-28T11:40:54Z</time>
      </trkpt>
      <trkpt lat="48.77957" lon="2.09957">
        <ele>124.19999694824</ele>
        <time>2021-03-28T11:41:09Z</time>
      </trkpt>
      <trkpt lat="48.77962" lon="2.0996">
        <ele>123.80000305176</ele>
        <time>2021-03-28T11:41:26Z</time>
      </trkpt>
      <trkpt lat="48.77972" lon="2.09959">
        <ele>123.80000305176</ele>
        <time>2021-03-28T11:41:43Z</time>
      </trkpt>
      <trkpt lat="48.77986" lon="2.09961">
        <ele>123.80000305176</ele>
        <time>2021-03-28T11:42:02Z</time>
      </trkpt>
      <trkpt lat="48.77996" lon="2.09956">
        <ele>122.59999847412</ele>
        <time>2021-03-28T11:42:13Z</time>
      </trkpt>
      <trkpt lat="48.77998" lon="2.09951">
        <ele>122.40000152588</ele>
        <time>2021-03-28T11:42:17Z</time>
      </trkpt>
      <trkpt lat="48.78006" lon="2.09943">
        <ele>121.19999694824</ele>
        <time>2021-03-28T11:42:26Z</time>
      </trkpt>
      <trkpt lat="48.7801" lon="2.09937">
        <ele>120.80000305176</ele>
        <time>2021-03-28T11:42:35Z</time>
      </trkpt>
      <trkpt lat="48.78021" lon="2.09932">
        <ele>121</ele>
        <time>2021-03-28T11:42:50Z</time>
      </trkpt>
      <trkpt lat="48.78031" lon="2.09911">
        <ele>120.59999847412</ele>
        <time>2021-03-28T11:43:03Z</time>
      </trkpt>
      <trkpt lat="48.78034" lon="2.09908">
        <ele>120.19999694824</ele>
        <time>2021-03-28T11:43:06Z</time>
      </trkpt>
      <trkpt lat="48.78041" lon="2.09892">
        <ele>119.40000152588</ele>
        <time>2021-03-28T11:43:23Z</time>
      </trkpt>
      <trkpt lat="48.78047" lon="2.09884">
        <ele>119.59999847412</ele>
        <time>2021-03-28T11:44:17Z</time>
      </trkpt>
      <trkpt lat="48.78045" lon="2.09873">
        <ele>119</ele>
        <time>2021-03-28T11:44:24Z</time>
      </trkpt>
      <trkpt lat="48.78044" lon="2.09867">
        <ele>118.19999694824</ele>
        <time>2021-03-28T11:44:28Z</time>
      </trkpt>
      <trkpt lat="48.78044" lon="2.09866">
        <ele>118</ele>
        <time>2021-03-28T11:44:29Z</time>
      </trkpt>
      <trkpt lat="48.78053" lon="2.0985">
        <ele>117.19999694824</ele>
        <time>2021-03-28T11:44:41Z</time>
      </trkpt>
      <trkpt lat="48.78061" lon="2.09826">
        <ele>117.19999694824</ele>
        <time>2021-03-28T11:45:00Z</time>
      </trkpt>
      <trkpt lat="48.78062" lon="2.09804">
        <ele>117.59999847412</ele>
        <time>2021-03-28T11:45:09Z</time>
      </trkpt>
      <trkpt lat="48.78059" lon="2.09787">
        <ele>117.80000305176</ele>
        <time>2021-03-28T11:45:19Z</time>
      </trkpt>
      <trkpt lat="48.78057" lon="2.09767">
        <ele>117.80000305176</ele>
        <time>2021-03-28T11:45:32Z</time>
      </trkpt>
      <trkpt lat="48.78063" lon="2.09739">
        <ele>122.36328125</ele>
      </trkpt>
      <trkpt lat="48.78053" lon="2.09696">
        <ele>121.7890625</ele>
      </trkpt>
      <trkpt lat="48.78035" lon="2.09637">
        <ele>123.85546875</ele>
      </trkpt>
      <trkpt lat="48.7803" lon="2.09578">
        <ele>118</ele>
        <time>2021-03-28T11:45:42Z</time>
      </trkpt>
      <trkpt lat="48.78032" lon="2.09575">
        <ele>122.19999694824</ele>
        <time>2021-03-28T11:52:41Z</time>
      </trkpt>
      <trkpt lat="48.78038" lon="2.09574">
        <ele>122</ele>
        <time>2021-03-28T11:52:49Z</time>
      </trkpt>
      <trkpt lat="48.78043" lon="2.09575">
        <ele>122</ele>
        <time>2021-03-28T11:52:59Z</time>
      </trkpt>
      <trkpt lat="48.78053" lon="2.09572">
        <ele>121.59999847412</ele>
        <time>2021-03-28T11:53:10Z</time>
      </trkpt>
      <trkpt lat="48.78066" lon="2.0956">
        <ele>123</ele>
        <time>2021-03-28T11:53:24Z</time>
      </trkpt>
      <trkpt lat="48.78068" lon="2.09558">
        <ele>123.40000152588</ele>
        <time>2021-03-28T11:53:26Z</time>
      </trkpt>
      <trkpt lat="48.78068" lon="2.09551">
        <ele>124.40000152588</ele>
        <time>2021-03-28T11:53:32Z</time>
      </trkpt>
      <trkpt lat="48.78068" lon="2.09547">
        <ele>124.80000305176</ele>
        <time>2021-03-28T11:53:35Z</time>
      </trkpt>
      <trkpt lat="48.78068" lon="2.09521">
        <ele>125.40000152588</ele>
        <time>2021-03-28T11:53:50Z</time>
      </trkpt>
      <trkpt lat="48.7807" lon="2.09508">
        <ele>126.40000152588</ele>
        <time>2021-03-28T11:53:58Z</time>
      </trkpt>
      <trkpt lat="48.7807" lon="2.09506">
        <ele>126.59999847412</ele>
        <time>2021-03-28T11:53:59Z</time>
      </trkpt>
      <trkpt lat="48.78072" lon="2.09498">
        <ele>127.40000152588</ele>
        <time>2021-03-28T11:54:05Z</time>
      </trkpt>
      <trkpt lat="48.78072" lon="2.09489">
        <ele>127.80000305176</ele>
        <time>2021-03-28T11:54:10Z</time>
      </trkpt>
      <trkpt lat="48.78074" lon="2.09473">
        <ele>128</ele>
        <time>2021-03-28T11:54:21Z</time>
      </trkpt>
      <trkpt lat="48.78075" lon="2.09449">
        <ele>128.19999694824</ele>
        <time>2021-03-28T11:54:37Z</time>
      </trkpt>
      <trkpt lat="48.78074" lon="2.09438">
        <ele>128.39999389648</ele>
        <time>2021-03-28T11:54:44Z</time>
      </trkpt>
      <trkpt lat="48.78077" lon="2.09424">
        <ele>128.60000610352</ele>
        <time>2021-03-28T11:54:53Z</time>
      </trkpt>
      <trkpt lat="48.78076" lon="2.09403">
        <ele>128.60000610352</ele>
        <time>2021-03-28T11:55:06Z</time>
      </trkpt>
      <trkpt lat="48.78079" lon="2.09389">
        <ele>129.39999389648</ele>
        <time>2021-03-28T11:55:18Z</time>
      </trkpt>
      <trkpt lat="48.78079" lon="2.09389">
        <ele>129.60000610352</ele>
        <time>2021-03-28T11:55:19Z</time>
      </trkpt>
      <trkpt lat="48.78078" lon="2.09371">
        <ele>129.80000305176</ele>
        <time>2021-03-28T11:55:29Z</time>
      </trkpt>
      <trkpt lat="48.78082" lon="2.09352">
        <ele>130.39999389648</ele>
        <time>2021-03-28T11:55:40Z</time>
      </trkpt>
      <trkpt lat="48.78082" lon="2.09351">
        <ele>130.60000610352</ele>
        <time>2021-03-28T11:55:41Z</time>
      </trkpt>
      <trkpt lat="48.78082" lon="2.09337">
        <ele>131.60000610352</ele>
        <time>2021-03-28T11:55:48Z</time>
      </trkpt>
      <trkpt lat="48.78083" lon="2.09333">
        <ele>131.80000305176</ele>
        <time>2021-03-28T11:55:50Z</time>
      </trkpt>
      <trkpt lat="48.78087" lon="2.09316">
        <ele>132.60000610352</ele>
        <time>2021-03-28T11:56:00Z</time>
      </trkpt>
      <trkpt lat="48.78087" lon="2.09313">
        <ele>132.60000610352</ele>
        <time>2021-03-28T11:56:02Z</time>
      </trkpt>
      <trkpt lat="48.78091" lon="2.09293">
        <ele>133.39999389648</ele>
        <time>2021-03-28T11:56:16Z</time>
      </trkpt>
      <trkpt lat="48.78095" lon="2.09288">
        <ele>133.60000610352</ele>
        <time>2021-03-28T11:56:20Z</time>
      </trkpt>
      <trkpt lat="48.78097" lon="2.09277">
        <ele>134.19999694824</ele>
        <time>2021-03-28T11:56:28Z</time>
      </trkpt>
      <trkpt lat="48.78099" lon="2.09265">
        <ele>134.60000610352</ele>
        <time>2021-03-28T11:56:37Z</time>
      </trkpt>
      <trkpt lat="48.781" lon="2.09258">
        <ele>135</ele>
        <time>2021-03-28T11:56:42Z</time>
      </trkpt>
      <trkpt lat="48.78103" lon="2.09239">
        <ele>135.60000610352</ele>
        <time>2021-03-28T11:56:53Z</time>
      </trkpt>
      <trkpt lat="48.78104" lon="2.09237">
        <ele>135.80000305176</ele>
        <time>2021-03-28T11:56:54Z</time>
      </trkpt>
      <trkpt lat="48.78105" lon="2.09233">
        <ele>136</ele>
        <time>2021-03-28T11:56:57Z</time>
      </trkpt>
      <trkpt lat="48.78106" lon="2.09228">
        <ele>136.80000305176</ele>
        <time>2021-03-28T11:57:00Z</time>
      </trkpt>
      <trkpt lat="48.7811" lon="2.09213">
        <ele>137.80000305176</ele>
        <time>2021-03-28T11:57:08Z</time>
      </trkpt>
      <trkpt lat="48.78111" lon="2.09209">
        <ele>138.80000305176</ele>
        <time>2021-03-28T11:57:10Z</time>
      </trkpt>
      <trkpt lat="48.78115" lon="2.09199">
        <ele>140.19999694824</ele>
        <time>2021-03-28T11:57:17Z</time>
      </trkpt>
      <trkpt lat="48.78117" lon="2.09196">
        <ele>140.80000305176</ele>
        <time>2021-03-28T11:57:21Z</time>
      </trkpt>
      <trkpt lat="48.78119" lon="2.09187">
        <ele>141.39999389648</ele>
        <time>2021-03-28T11:57:27Z</time>
      </trkpt>
      <trkpt lat="48.78124" lon="2.09177">
        <ele>141.80000305176</ele>
        <time>2021-03-28T11:57:34Z</time>
      </trkpt>
      <trkpt lat="48.78127" lon="2.09174">
        <ele>142.39999389648</ele>
        <time>2021-03-28T11:57:38Z</time>
      </trkpt>
      <trkpt lat="48.78133" lon="2.09168">
        <ele>143.19999694824</ele>
        <time>2021-03-28T11:57:48Z</time>
      </trkpt>
      <trkpt lat="48.78134" lon="2.09167">
        <ele>143.39999389648</ele>
        <time>2021-03-28T11:57:50Z</time>
      </trkpt>
      <trkpt lat="48.78136" lon="2.09167">
        <ele>144.19999694824</ele>
        <time>2021-03-28T11:57:59Z</time>
      </trkpt>
      <trkpt lat="48.78139" lon="2.09167">
        <ele>144.39999389648</ele>
        <time>2021-03-28T11:58:04Z</time>
      </trkpt>
      <trkpt lat="48.78141" lon="2.09166">
        <ele>145.80000305176</ele>
        <time>2021-03-28T11:58:12Z</time>
      </trkpt>
      <trkpt lat="48.78142" lon="2.09166">
        <ele>146.19999694824</ele>
        <time>2021-03-28T11:58:14Z</time>
      </trkpt>
      <trkpt lat="48.78144" lon="2.09165">
        <ele>146.80000305176</ele>
        <time>2021-03-28T11:58:17Z</time>
      </trkpt>
      <trkpt lat="48.78148" lon="2.09163">
        <ele>148</ele>
        <time>2021-03-28T11:58:23Z</time>
      </trkpt>
      <trkpt lat="48.78152" lon="2.09162">
        <ele>149</ele>
        <time>2021-03-28T11:58:27Z</time>
      </trkpt>
      <trkpt lat="48.78153" lon="2.09162">
        <ele>149.19999694824</ele>
        <time>2021-03-28T11:58:28Z</time>
      </trkpt>
      <trkpt lat="48.7816" lon="2.09162">
        <ele>150.39999389648</ele>
        <time>2021-03-28T11:58:37Z</time>
      </trkpt>
      <trkpt lat="48.78163" lon="2.0916">
        <ele>150.80000305176</ele>
        <time>2021-03-28T11:58:41Z</time>
      </trkpt>
      <trkpt lat="48.78166" lon="2.09158">
        <ele>151.39999389648</ele>
        <time>2021-03-28T11:58:45Z</time>
      </trkpt>
      <trkpt lat="48.78173" lon="2.09153">
        <ele>152</ele>
        <time>2021-03-28T11:58:54Z</time>
      </trkpt>
      <trkpt lat="48.78178" lon="2.09152">
        <ele>152.60000610352</ele>
        <time>2021-03-28T11:58:58Z</time>
      </trkpt>
      <trkpt lat="48.78187" lon="2.09147">
        <ele>152.60000610352</ele>
        <time>2021-03-28T11:59:07Z</time>
      </trkpt>
      <trkpt lat="48.78199" lon="2.0914">
        <ele>153</ele>
        <time>2021-03-28T11:59:20Z</time>
      </trkpt>
      <trkpt lat="48.78205" lon="2.09136">
        <ele>153.60000610352</ele>
        <time>2021-03-28T11:59:28Z</time>
      </trkpt>
      <trkpt lat="48.78209" lon="2.09131">
        <ele>153.80000305176</ele>
        <time>2021-03-28T11:59:33Z</time>
      </trkpt>
      <trkpt lat="48.78218" lon="2.09121">
        <ele>154.19999694824</ele>
        <time>2021-03-28T11:59:44Z</time>
      </trkpt>
      <trkpt lat="48.78231" lon="2.09108">
        <ele>154</ele>
        <time>2021-03-28T11:59:58Z</time>
      </trkpt>
      <trkpt lat="48.78245" lon="2.09094">
        <ele>154.19999694824</ele>
        <time>2021-03-28T12:00:14Z</time>
      </trkpt>
      <trkpt lat="48.78251" lon="2.09079">
        <ele>154</ele>
        <time>2021-03-28T12:00:27Z</time>
      </trkpt>
      <trkpt lat="48.78253" lon="2.09056">
        <ele>153.39999389648</ele>
        <time>2021-03-28T12:00:40Z</time>
      </trkpt>
      <trkpt lat="48.78258" lon="2.09047">
        <ele>153</ele>
        <time>2021-03-28T12:00:47Z</time>
      </trkpt>
      <trkpt lat="48.78262" lon="2.09043">
        <ele>152.80000305176</ele>
        <time>2021-03-28T12:00:51Z</time>
      </trkpt>
      <trkpt lat="48.7827" lon="2.09031">
        <ele>152.19999694824</ele>
        <time>2021-03-28T12:01:04Z</time>
      </trkpt>
      <trkpt lat="48.78271" lon="2.09025">
        <ele>152</ele>
        <time>2021-03-28T12:01:08Z</time>
      </trkpt>
      <trkpt lat="48.78274" lon="2.09013">
        <ele>151.39999389648</ele>
        <time>2021-03-28T12:01:16Z</time>
      </trkpt>
      <trkpt lat="48.78275" lon="2.0901">
        <ele>151.19999694824</ele>
        <time>2021-03-28T12:01:18Z</time>
      </trkpt>
      <trkpt lat="48.7828" lon="2.08992">
        <ele>150.19999694824</ele>
        <time>2021-03-28T12:01:29Z</time>
      </trkpt>
      <trkpt lat="48.78288" lon="2.08974">
        <ele>152.60000610352</ele>
        <time>2021-03-28T12:01:42Z</time>
      </trkpt>
      <trkpt lat="48.78288" lon="2.08972">
        <ele>152.80000305176</ele>
        <time>2021-03-28T12:01:43Z</time>
      </trkpt>
      <trkpt lat="48.78293" lon="2.0896">
        <ele>153.60000610352</ele>
        <time>2021-03-28T12:01:52Z</time>
      </trkpt>
      <trkpt lat="48.78298" lon="2.08956">
        <ele>153.80000305176</ele>
        <time>2021-03-28T12:01:56Z</time>
      </trkpt>
      <trkpt lat="48.78307" lon="2.08947">
        <ele>153.80000305176</ele>
        <time>2021-03-28T12:02:09Z</time>
      </trkpt>
      <trkpt lat="48.78313" lon="2.08934">
        <ele>152.80000305176</ele>
        <time>2021-03-28T12:02:21Z</time>
      </trkpt>
      <trkpt lat="48.78315" lon="2.08931">
        <ele>152.39999389648</ele>
        <time>2021-03-28T12:02:23Z</time>
      </trkpt>
      <trkpt lat="48.7832" lon="2.08927">
        <ele>151.80000305176</ele>
        <time>2021-03-28T12:02:28Z</time>
      </trkpt>
      <trkpt lat="48.78326" lon="2.08922">
        <ele>150.80000305176</ele>
        <time>2021-03-28T12:02:34Z</time>
      </trkpt>
      <trkpt lat="48.7833" lon="2.08918">
        <ele>150</ele>
        <time>2021-03-28T12:02:39Z</time>
      </trkpt>
      <trkpt lat="48.78335" lon="2.08909">
        <ele>149.60000610352</ele>
        <time>2021-03-28T12:02:47Z</time>
      </trkpt>
      <trkpt lat="48.78339" lon="2.08901">
        <ele>150</ele>
        <time>2021-03-28T12:02:53Z</time>
      </trkpt>
      <trkpt lat="48.78341" lon="2.08888">
        <ele>150.80000305176</ele>
        <time>2021-03-28T12:03:01Z</time>
      </trkpt>
      <trkpt lat="48.78342" lon="2.08881">
        <ele>151.60000610352</ele>
        <time>2021-03-28T12:03:05Z</time>
      </trkpt>
      <trkpt lat="48.78342" lon="2.08877">
        <ele>151.80000305176</ele>
        <time>2021-03-28T12:03:07Z</time>
      </trkpt>
      <trkpt lat="48.78347" lon="2.08864">
        <ele>153</ele>
        <time>2021-03-28T12:03:17Z</time>
      </trkpt>
      <trkpt lat="48.78353" lon="2.08864">
        <ele>153.39999389648</ele>
        <time>2021-03-28T12:03:31Z</time>
      </trkpt>
      <trkpt lat="48.78351" lon="2.0887">
        <ele>153.19999694824</ele>
        <time>2021-03-28T12:03:46Z</time>
      </trkpt>
      <trkpt lat="48.7835" lon="2.08872">
        <ele>153.19999694824</ele>
        <time>2021-03-28T12:03:58Z</time>
      </trkpt>
      <trkpt lat="48.7835" lon="2.08871">
        <ele>153.39999389648</ele>
        <time>2021-03-28T12:04:12Z</time>
      </trkpt>
      <trkpt lat="48.7835" lon="2.08872">
        <ele>153.39999389648</ele>
        <time>2021-03-28T12:04:23Z</time>
      </trkpt>
      <trkpt lat="48.78351" lon="2.08871">
        <ele>153.39999389648</ele>
        <time>2021-03-28T12:04:39Z</time>
      </trkpt>
      <trkpt lat="48.78347" lon="2.08867">
        <ele>153.19999694824</ele>
        <time>2021-03-28T12:04:57Z</time>
      </trkpt>
      <trkpt lat="48.78347" lon="2.08867">
        <ele>153.19999694824</ele>
        <time>2021-03-28T12:05:06Z</time>
      </trkpt>
      <trkpt lat="48.78348" lon="2.08867">
        <ele>153.19999694824</ele>
        <time>2021-03-28T12:05:25Z</time>
      </trkpt>
      <trkpt lat="48.78346" lon="2.08859">
        <ele>153</ele>
        <time>2021-03-28T12:05:41Z</time>
      </trkpt>
      <trkpt lat="48.78346" lon="2.08845">
        <ele>153.60000610352</ele>
        <time>2021-03-28T12:05:52Z</time>
      </trkpt>
      <trkpt lat="48.7834" lon="2.08836">
        <ele>153.60000610352</ele>
        <time>2021-03-28T12:06:02Z</time>
      </trkpt>
      <trkpt lat="48.78328" lon="2.08824">
        <ele>152.19999694824</ele>
        <time>2021-03-28T12:06:16Z</time>
      </trkpt>
      <trkpt lat="48.78324" lon="2.08818">
        <ele>151.80000305176</ele>
        <time>2021-03-28T12:06:20Z</time>
      </trkpt>
      <trkpt lat="48.78322" lon="2.08811">
        <ele>151</ele>
        <time>2021-03-28T12:06:28Z</time>
      </trkpt>
      <trkpt lat="48.78319" lon="2.08799">
        <ele>151</ele>
        <time>2021-03-28T12:06:38Z</time>
      </trkpt>
      <trkpt lat="48.78319" lon="2.0879">
        <ele>150.60000610352</ele>
        <time>2021-03-28T12:06:45Z</time>
      </trkpt>
      <trkpt lat="48.78319" lon="2.08783">
        <ele>150.39999389648</ele>
        <time>2021-03-28T12:06:52Z</time>
      </trkpt>
      <trkpt lat="48.78317" lon="2.08768">
        <ele>150.39999389648</ele>
        <time>2021-03-28T12:07:05Z</time>
      </trkpt>
      <trkpt lat="48.78315" lon="2.0875">
        <ele>150.39999389648</ele>
        <time>2021-03-28T12:07:16Z</time>
      </trkpt>
      <trkpt lat="48.7832" lon="2.0874">
        <ele>150</ele>
        <time>2021-03-28T12:07:28Z</time>
      </trkpt>
      <trkpt lat="48.78325" lon="2.08727">
        <ele>150</ele>
        <time>2021-03-28T12:07:40Z</time>
      </trkpt>
      <trkpt lat="48.78329" lon="2.08715">
        <ele>150.80000305176</ele>
        <time>2021-03-28T12:07:53Z</time>
      </trkpt>
      <trkpt lat="48.78338" lon="2.08702">
        <ele>152.19999694824</ele>
        <time>2021-03-28T12:08:03Z</time>
      </trkpt>
      <trkpt lat="48.78339" lon="2.08698">
        <ele>152.19999694824</ele>
        <time>2021-03-28T12:08:05Z</time>
      </trkpt>
      <trkpt lat="48.78344" lon="2.08692">
        <ele>152.39999389648</ele>
        <time>2021-03-28T12:08:09Z</time>
      </trkpt>
      <trkpt lat="48.7835" lon="2.08683">
        <ele>152.60000610352</ele>
        <time>2021-03-28T12:08:17Z</time>
      </trkpt>
      <trkpt lat="48.78354" lon="2.08669">
        <ele>153.19999694824</ele>
        <time>2021-03-28T12:08:27Z</time>
      </trkpt>
      <trkpt lat="48.78354" lon="2.08668">
        <ele>153.19999694824</ele>
        <time>2021-03-28T12:08:28Z</time>
      </trkpt>
      <trkpt lat="48.78361" lon="2.08652">
        <ele>153</ele>
        <time>2021-03-28T12:08:40Z</time>
      </trkpt>
      <trkpt lat="48.78371" lon="2.08643">
        <ele>153.19999694824</ele>
        <time>2021-03-28T12:08:52Z</time>
      </trkpt>
      <trkpt lat="48.78377" lon="2.08629">
        <ele>153.39999389648</ele>
        <time>2021-03-28T12:09:04Z</time>
      </trkpt>
      <trkpt lat="48.78383" lon="2.08616">
        <ele>153.39999389648</ele>
        <time>2021-03-28T12:09:17Z</time>
      </trkpt>
      <trkpt lat="48.78394" lon="2.08602">
        <ele>154.19999694824</ele>
        <time>2021-03-28T12:09:29Z</time>
      </trkpt>
      <trkpt lat="48.78397" lon="2.08596">
        <ele>154.39999389648</ele>
        <time>2021-03-28T12:09:33Z</time>
      </trkpt>
      <trkpt lat="48.78403" lon="2.08586">
        <ele>154.60000610352</ele>
        <time>2021-03-28T12:09:40Z</time>
      </trkpt>
      <trkpt lat="48.78413" lon="2.08571">
        <ele>154.60000610352</ele>
        <time>2021-03-28T12:09:54Z</time>
      </trkpt>
      <trkpt lat="48.78415" lon="2.08557">
        <ele>154.19999694824</ele>
        <time>2021-03-28T12:10:03Z</time>
      </trkpt>
      <trkpt lat="48.78419" lon="2.0854">
        <ele>153.60000610352</ele>
        <time>2021-03-28T12:10:16Z</time>
      </trkpt>
      <trkpt lat="48.7842" lon="2.08536">
        <ele>153.39999389648</ele>
        <time>2021-03-28T12:10:18Z</time>
      </trkpt>
      <trkpt lat="48.78421" lon="2.08528">
        <ele>152.39999389648</ele>
        <time>2021-03-28T12:10:24Z</time>
      </trkpt>
      <trkpt lat="48.7842" lon="2.08524">
        <ele>152.19999694824</ele>
        <time>2021-03-28T12:10:27Z</time>
      </trkpt>
      <trkpt lat="48.78421" lon="2.08514">
        <ele>151.19999694824</ele>
        <time>2021-03-28T12:10:34Z</time>
      </trkpt>
      <trkpt lat="48.7842" lon="2.08508">
        <ele>150.60000610352</ele>
        <time>2021-03-28T12:10:39Z</time>
      </trkpt>
      <trkpt lat="48.78419" lon="2.08504">
        <ele>150.19999694824</ele>
        <time>2021-03-28T12:10:43Z</time>
      </trkpt>
      <trkpt lat="48.7842" lon="2.08497">
        <ele>149</ele>
        <time>2021-03-28T12:10:48Z</time>
      </trkpt>
      <trkpt lat="48.78419" lon="2.08493">
        <ele>148.60000610352</ele>
        <time>2021-03-28T12:10:50Z</time>
      </trkpt>
      <trkpt lat="48.78419" lon="2.08487">
        <ele>148</ele>
        <time>2021-03-28T12:10:54Z</time>
      </trkpt>
      <trkpt lat="48.78418" lon="2.0848">
        <ele>146.80000305176</ele>
        <time>2021-03-28T12:10:59Z</time>
      </trkpt>
      <trkpt lat="48.78417" lon="2.08475">
        <ele>146</ele>
        <time>2021-03-28T12:11:03Z</time>
      </trkpt>
      <trkpt lat="48.78417" lon="2.08474">
        <ele>145.80000305176</ele>
        <time>2021-03-28T12:11:04Z</time>
      </trkpt>
      <trkpt lat="48.78416" lon="2.0847">
        <ele>144.39999389648</ele>
        <time>2021-03-28T12:11:07Z</time>
      </trkpt>
      <trkpt lat="48.78417" lon="2.08462">
        <ele>143.39999389648</ele>
        <time>2021-03-28T12:11:12Z</time>
      </trkpt>
      <trkpt lat="48.78418" lon="2.08458">
        <ele>142.19999694824</ele>
        <time>2021-03-28T12:11:15Z</time>
      </trkpt>
      <trkpt lat="48.78417" lon="2.08452">
        <ele>141.19999694824</ele>
        <time>2021-03-28T12:11:20Z</time>
      </trkpt>
      <trkpt lat="48.78416" lon="2.08447">
        <ele>140.19999694824</ele>
        <time>2021-03-28T12:11:23Z</time>
      </trkpt>
      <trkpt lat="48.78417" lon="2.08443">
        <ele>140</ele>
        <time>2021-03-28T12:11:25Z</time>
      </trkpt>
      <trkpt lat="48.78415" lon="2.0844">
        <ele>139.19999694824</ele>
        <time>2021-03-28T12:11:28Z</time>
      </trkpt>
      <trkpt lat="48.78414" lon="2.08439">
        <ele>138.19999694824</ele>
        <time>2021-03-28T12:11:30Z</time>
      </trkpt>
      <trkpt lat="48.78413" lon="2.08435">
        <ele>136.80000305176</ele>
        <time>2021-03-28T12:11:34Z</time>
      </trkpt>
      <trkpt lat="48.78412" lon="2.08434">
        <ele>136.19999694824</ele>
        <time>2021-03-28T12:11:36Z</time>
      </trkpt>
      <trkpt lat="48.78411" lon="2.08434">
        <ele>135.60000610352</ele>
        <time>2021-03-28T12:11:38Z</time>
      </trkpt>
      <trkpt lat="48.78407" lon="2.08434">
        <ele>134.60000610352</ele>
        <time>2021-03-28T12:11:42Z</time>
      </trkpt>
      <trkpt lat="48.78403" lon="2.08435">
        <ele>133.39999389648</ele>
        <time>2021-03-28T12:11:46Z</time>
      </trkpt>
      <trkpt lat="48.784" lon="2.08437">
        <ele>132.39999389648</ele>
        <time>2021-03-28T12:11:49Z</time>
      </trkpt>
      <trkpt lat="48.78398" lon="2.08437">
        <ele>131.39999389648</ele>
        <time>2021-03-28T12:11:52Z</time>
      </trkpt>
      <trkpt lat="48.78394" lon="2.08437">
        <ele>130.39999389648</ele>
        <time>2021-03-28T12:12:00Z</time>
      </trkpt>
      <trkpt lat="48.78395" lon="2.08436">
        <ele>130.19999694824</ele>
        <time>2021-03-28T12:12:03Z</time>
      </trkpt>
      <trkpt lat="48.78401" lon="2.08433">
        <ele>130.19999694824</ele>
        <time>2021-03-28T12:12:12Z</time>
      </trkpt>
      <trkpt lat="48.78406" lon="2.08433">
        <ele>130.60000610352</ele>
        <time>2021-03-28T12:12:22Z</time>
      </trkpt>
      <trkpt lat="48.78408" lon="2.0843">
        <ele>130.80000305176</ele>
        <time>2021-03-28T12:12:35Z</time>
      </trkpt>
      <trkpt lat="48.78407" lon="2.0843">
        <ele>130.80000305176</ele>
        <time>2021-03-28T12:12:53Z</time>
      </trkpt>
      <trkpt lat="48.78408" lon="2.08431">
        <ele>130.60000610352</ele>
        <time>2021-03-28T12:13:08Z</time>
      </trkpt>
      <trkpt lat="48.78408" lon="2.08432">
        <ele>130.80000305176</ele>
        <time>2021-03-28T12:13:20Z</time>
      </trkpt>
      <trkpt lat="48.78408" lon="2.08434">
        <ele>130.60000610352</ele>
        <time>2021-03-28T12:13:37Z</time>
      </trkpt>
      <trkpt lat="48.78402" lon="2.08445">
        <ele>130.39999389648</ele>
        <time>2021-03-28T12:13:50Z</time>
      </trkpt>
      <trkpt lat="48.78396" lon="2.08455">
        <ele>130.19999694824</ele>
        <time>2021-03-28T12:13:58Z</time>
      </trkpt>
      <trkpt lat="48.78391" lon="2.08461">
        <ele>130</ele>
        <time>2021-03-28T12:14:04Z</time>
      </trkpt>
      <trkpt lat="48.78381" lon="2.08475">
        <ele>129.39999389648</ele>
        <time>2021-03-28T12:14:18Z</time>
      </trkpt>
      <trkpt lat="48.78368" lon="2.08496">
        <ele>129</ele>
        <time>2021-03-28T12:14:33Z</time>
      </trkpt>
      <trkpt lat="48.78362" lon="2.08501">
        <ele>128.80000305176</ele>
        <time>2021-03-28T12:14:39Z</time>
      </trkpt>
      <trkpt lat="48.78357" lon="2.08503">
        <ele>128.80000305176</ele>
        <time>2021-03-28T12:14:43Z</time>
      </trkpt>
      <trkpt lat="48.78355" lon="2.08503">
        <ele>128.80000305176</ele>
        <time>2021-03-28T12:14:44Z</time>
      </trkpt>
      <trkpt lat="48.78344" lon="2.08496">
        <ele>129</ele>
        <time>2021-03-28T12:14:54Z</time>
      </trkpt>
      <trkpt lat="48.78332" lon="2.0848">
        <ele>129</ele>
        <time>2021-03-28T12:15:07Z</time>
      </trkpt>
      <trkpt lat="48.78319" lon="2.08469">
        <ele>129</ele>
        <time>2021-03-28T12:15:21Z</time>
      </trkpt>
      <trkpt lat="48.7831" lon="2.08458">
        <ele>129</ele>
        <time>2021-03-28T12:15:34Z</time>
      </trkpt>
      <trkpt lat="48.78301" lon="2.08446">
        <ele>130</ele>
        <time>2021-03-28T12:15:47Z</time>
      </trkpt>
      <trkpt lat="48.7829" lon="2.08435">
        <ele>129.80000305176</ele>
        <time>2021-03-28T12:16:02Z</time>
      </trkpt>
      <trkpt lat="48.7828" lon="2.08421">
        <ele>129.80000305176</ele>
        <time>2021-03-28T12:16:16Z</time>
      </trkpt>
      <trkpt lat="48.78272" lon="2.0841">
        <ele>129.60000610352</ele>
        <time>2021-03-28T12:16:29Z</time>
      </trkpt>
      <trkpt lat="48.78263" lon="2.08396">
        <ele>129.19999694824</ele>
        <time>2021-03-28T12:16:42Z</time>
      </trkpt>
      <trkpt lat="48.78257" lon="2.08383">
        <ele>128.80000305176</ele>
        <time>2021-03-28T12:16:56Z</time>
      </trkpt>
      <trkpt lat="48.78251" lon="2.08376">
        <ele>128.80000305176</ele>
        <time>2021-03-28T12:17:07Z</time>
      </trkpt>
      <trkpt lat="48.78244" lon="2.08375">
        <ele>128.80000305176</ele>
        <time>2021-03-28T12:17:18Z</time>
      </trkpt>
      <trkpt lat="48.78233" lon="2.08387">
        <ele>128.80000305176</ele>
        <time>2021-03-28T12:17:30Z</time>
      </trkpt>
      <trkpt lat="48.78223" lon="2.08403">
        <ele>128.80000305176</ele>
        <time>2021-03-28T12:17:45Z</time>
      </trkpt>
      <trkpt lat="48.78216" lon="2.08421">
        <ele>128.60000610352</ele>
        <time>2021-03-28T12:17:59Z</time>
      </trkpt>
      <trkpt lat="48.78209" lon="2.08436">
        <ele>129</ele>
        <time>2021-03-28T12:18:10Z</time>
      </trkpt>
      <trkpt lat="48.78203" lon="2.08445">
        <ele>129.19999694824</ele>
        <time>2021-03-28T12:18:17Z</time>
      </trkpt>
      <trkpt lat="48.78189" lon="2.08463">
        <ele>129</ele>
        <time>2021-03-28T12:18:32Z</time>
      </trkpt>
      <trkpt lat="48.78177" lon="2.08486">
        <ele>128.60000610352</ele>
        <time>2021-03-28T12:18:49Z</time>
      </trkpt>
      <trkpt lat="48.78168" lon="2.08505">
        <ele>128.39999389648</ele>
        <time>2021-03-28T12:19:02Z</time>
      </trkpt>
      <trkpt lat="48.78159" lon="2.08516">
        <ele>128.19999694824</ele>
        <time>2021-03-28T12:19:12Z</time>
      </trkpt>
      <trkpt lat="48.78156" lon="2.08521">
        <ele>128.19999694824</ele>
        <time>2021-03-28T12:19:16Z</time>
      </trkpt>
      <trkpt lat="48.7814" lon="2.08524">
        <ele>128</ele>
        <time>2021-03-28T12:19:29Z</time>
      </trkpt>
      <trkpt lat="48.78138" lon="2.08521">
        <ele>128.19999694824</ele>
        <time>2021-03-28T12:19:31Z</time>
      </trkpt>
      <trkpt lat="48.78134" lon="2.08517">
        <ele>128.19999694824</ele>
        <time>2021-03-28T12:19:35Z</time>
      </trkpt>
      <trkpt lat="48.78131" lon="2.08513">
        <ele>128.39999389648</ele>
        <time>2021-03-28T12:19:41Z</time>
      </trkpt>
      <trkpt lat="48.78127" lon="2.0851">
        <ele>129.39999389648</ele>
        <time>2021-03-28T12:19:51Z</time>
      </trkpt>
      <trkpt lat="48.78126" lon="2.08512">
        <ele>130.60000610352</ele>
        <time>2021-03-28T12:19:53Z</time>
      </trkpt>
      <trkpt lat="48.78126" lon="2.08512">
        <ele>130.60000610352</ele>
        <time>2021-03-28T12:19:54Z</time>
      </trkpt>
      <trkpt lat="48.78119" lon="2.08528">
        <ele>131.19999694824</ele>
        <time>2021-03-28T12:20:07Z</time>
      </trkpt>
      <trkpt lat="48.78118" lon="2.08529">
        <ele>131.60000610352</ele>
        <time>2021-03-28T12:20:12Z</time>
      </trkpt>
      <trkpt lat="48.78115" lon="2.08532">
        <ele>131.60000610352</ele>
        <time>2021-03-28T12:20:17Z</time>
      </trkpt>
      <trkpt lat="48.78108" lon="2.08551">
        <ele>132</ele>
        <time>2021-03-28T12:20:34Z</time>
      </trkpt>
      <trkpt lat="48.78098" lon="2.08571">
        <ele>132</ele>
        <time>2021-03-28T12:20:50Z</time>
      </trkpt>
      <trkpt lat="48.78087" lon="2.08588">
        <ele>131.39999389648</ele>
        <time>2021-03-28T12:21:06Z</time>
      </trkpt>
      <trkpt lat="48.78081" lon="2.08591">
        <ele>131.19999694824</ele>
        <time>2021-03-28T12:21:19Z</time>
      </trkpt>
      <trkpt lat="48.78073" lon="2.08606">
        <ele>131</ele>
        <time>2021-03-28T12:21:36Z</time>
      </trkpt>
      <trkpt lat="48.78064" lon="2.08624">
        <ele>131.19999694824</ele>
        <time>2021-03-28T12:21:48Z</time>
      </trkpt>
      <trkpt lat="48.78061" lon="2.08631">
        <ele>131.19999694824</ele>
        <time>2021-03-28T12:21:52Z</time>
      </trkpt>
      <trkpt lat="48.78054" lon="2.08646">
        <ele>131</ele>
        <time>2021-03-28T12:22:04Z</time>
      </trkpt>
      <trkpt lat="48.78047" lon="2.08667">
        <ele>130.60000610352</ele>
        <time>2021-03-28T12:22:19Z</time>
      </trkpt>
      <trkpt lat="48.7804" lon="2.08688">
        <ele>130.19999694824</ele>
        <time>2021-03-28T12:22:33Z</time>
      </trkpt>
      <trkpt lat="48.78031" lon="2.08711">
        <ele>130.60000610352</ele>
        <time>2021-03-28T12:22:48Z</time>
      </trkpt>
      <trkpt lat="48.78026" lon="2.08733">
        <ele>131.60000610352</ele>
        <time>2021-03-28T12:23:04Z</time>
      </trkpt>
      <trkpt lat="48.78028" lon="2.08752">
        <ele>132.19999694824</ele>
        <time>2021-03-28T12:23:15Z</time>
      </trkpt>
      <trkpt lat="48.78027" lon="2.08756">
        <ele>132.39999389648</ele>
        <time>2021-03-28T12:23:17Z</time>
      </trkpt>
      <trkpt lat="48.78027" lon="2.0878">
        <ele>133</ele>
        <time>2021-03-28T12:23:32Z</time>
      </trkpt>
      <trkpt lat="48.78025" lon="2.08807">
        <ele>132.39999389648</ele>
        <time>2021-03-28T12:23:47Z</time>
      </trkpt>
      <trkpt lat="48.7802" lon="2.08828">
        <ele>131.39999389648</ele>
        <time>2021-03-28T12:24:02Z</time>
      </trkpt>
      <trkpt lat="48.78019" lon="2.08843">
        <ele>131</ele>
        <time>2021-03-28T12:24:10Z</time>
      </trkpt>
      <trkpt lat="48.78018" lon="2.08856">
        <ele>130.39999389648</ele>
        <time>2021-03-28T12:24:17Z</time>
      </trkpt>
      <trkpt lat="48.78017" lon="2.08867">
        <ele>130</ele>
        <time>2021-03-28T12:24:23Z</time>
      </trkpt>
      <trkpt lat="48.78017" lon="2.08882">
        <ele>129.39999389648</ele>
        <time>2021-03-28T12:24:32Z</time>
      </trkpt>
      <trkpt lat="48.78015" lon="2.08901">
        <ele>129</ele>
        <time>2021-03-28T12:24:43Z</time>
      </trkpt>
      <trkpt lat="48.78014" lon="2.08906">
        <ele>129</ele>
        <time>2021-03-28T12:24:46Z</time>
      </trkpt>
      <trkpt lat="48.78005" lon="2.08926">
        <ele>128.39999389648</ele>
        <time>2021-03-28T12:24:59Z</time>
      </trkpt>
      <trkpt lat="48.78" lon="2.08944">
        <ele>128.39999389648</ele>
        <time>2021-03-28T12:25:12Z</time>
      </trkpt>
      <trkpt lat="48.77989" lon="2.08963">
        <ele>128</ele>
        <time>2021-03-28T12:25:23Z</time>
      </trkpt>
      <trkpt lat="48.77987" lon="2.08966">
        <ele>128</ele>
        <time>2021-03-28T12:25:25Z</time>
      </trkpt>
      <trkpt lat="48.77977" lon="2.08977">
        <ele>127.80000305176</ele>
        <time>2021-03-28T12:25:36Z</time>
      </trkpt>
      <trkpt lat="48.77972" lon="2.08988">
        <ele>128.80000305176</ele>
        <time>2021-03-28T12:25:48Z</time>
      </trkpt>
      <trkpt lat="48.77971" lon="2.09008">
        <ele>127.80000305176</ele>
        <time>2021-03-28T12:26:02Z</time>
      </trkpt>
      <trkpt lat="48.77965" lon="2.0903">
        <ele>127</ele>
        <time>2021-03-28T12:26:18Z</time>
      </trkpt>
      <trkpt lat="48.77952" lon="2.09057">
        <ele>127.59999847412</ele>
        <time>2021-03-28T12:26:36Z</time>
      </trkpt>
      <trkpt lat="48.77942" lon="2.09081">
        <ele>127.80000305176</ele>
        <time>2021-03-28T12:26:52Z</time>
      </trkpt>
      <trkpt lat="48.77929" lon="2.09094">
        <ele>128</ele>
        <time>2021-03-28T12:27:05Z</time>
      </trkpt>
      <trkpt lat="48.7793" lon="2.09095">
        <ele>127.80000305176</ele>
        <time>2021-03-28T12:27:16Z</time>
      </trkpt>
      <trkpt lat="48.7793" lon="2.09096">
        <ele>127.59999847412</ele>
        <time>2021-03-28T12:27:27Z</time>
      </trkpt>
      <trkpt lat="48.77922" lon="2.09108">
        <ele>127.40000152588</ele>
        <time>2021-03-28T12:27:40Z</time>
      </trkpt>
      <trkpt lat="48.77916" lon="2.09121">
        <ele>127</ele>
        <time>2021-03-28T12:27:53Z</time>
      </trkpt>
      <trkpt lat="48.77912" lon="2.09127">
        <ele>126.80000305176</ele>
        <time>2021-03-28T12:28:00Z</time>
      </trkpt>
      <trkpt lat="48.77906" lon="2.09134">
        <ele>126.59999847412</ele>
        <time>2021-03-28T12:28:07Z</time>
      </trkpt>
      <trkpt lat="48.77902" lon="2.09137">
        <ele>126.59999847412</ele>
        <time>2021-03-28T12:28:11Z</time>
      </trkpt>
      <trkpt lat="48.77892" lon="2.09137">
        <ele>127</ele>
        <time>2021-03-28T12:28:21Z</time>
      </trkpt>
      <trkpt lat="48.77876" lon="2.09147">
        <ele>127.19999694824</ele>
        <time>2021-03-28T12:28:35Z</time>
      </trkpt>
      <trkpt lat="48.77866" lon="2.09168">
        <ele>127.59999847412</ele>
        <time>2021-03-28T12:28:50Z</time>
      </trkpt>
      <trkpt lat="48.77865" lon="2.0917">
        <ele>127.59999847412</ele>
        <time>2021-03-28T12:28:51Z</time>
      </trkpt>
      <trkpt lat="48.7785" lon="2.09189">
        <ele>128.39999389648</ele>
        <time>2021-03-28T12:29:05Z</time>
      </trkpt>
      <trkpt lat="48.77836" lon="2.09193">
        <ele>128.39999389648</ele>
        <time>2021-03-28T12:29:21Z</time>
      </trkpt>
      <trkpt lat="48.77833" lon="2.09194">
        <ele>128.60000610352</ele>
        <time>2021-03-28T12:29:23Z</time>
      </trkpt>
      <trkpt lat="48.77824" lon="2.09204">
        <ele>128.60000610352</ele>
        <time>2021-03-28T12:29:35Z</time>
      </trkpt>
      <trkpt lat="48.77821" lon="2.09224">
        <ele>128.80000305176</ele>
        <time>2021-03-28T12:29:49Z</time>
      </trkpt>
      <trkpt lat="48.77825" lon="2.09244">
        <ele>128.80000305176</ele>
        <time>2021-03-28T12:30:02Z</time>
      </trkpt>
      <trkpt lat="48.77828" lon="2.09259">
        <ele>129.19999694824</ele>
        <time>2021-03-28T12:30:13Z</time>
      </trkpt>
      <trkpt lat="48.77831" lon="2.09262">
        <ele>129.60000610352</ele>
        <time>2021-03-28T12:30:16Z</time>
      </trkpt>
      <trkpt lat="48.77833" lon="2.09268">
        <ele>130.19999694824</ele>
        <time>2021-03-28T12:30:21Z</time>
      </trkpt>
      <trkpt lat="48.77841" lon="2.09276">
        <ele>131</ele>
        <time>2021-03-28T12:30:30Z</time>
      </trkpt>
      <trkpt lat="48.77852" lon="2.09287">
        <ele>131.19999694824</ele>
        <time>2021-03-28T12:30:45Z</time>
      </trkpt>
      <trkpt lat="48.77863" lon="2.09296">
        <ele>131.19999694824</ele>
        <time>2021-03-28T12:30:59Z</time>
      </trkpt>
      <trkpt lat="48.77871" lon="2.09314">
        <ele>131</ele>
        <time>2021-03-28T12:31:12Z</time>
      </trkpt>
      <trkpt lat="48.77873" lon="2.09318">
        <ele>131.19999694824</ele>
        <time>2021-03-28T12:31:15Z</time>
      </trkpt>
      <trkpt lat="48.77878" lon="2.09335">
        <ele>131.80000305176</ele>
        <time>2021-03-28T12:31:31Z</time>
      </trkpt>
      <trkpt lat="48.77882" lon="2.09353">
        <ele>132.19999694824</ele>
        <time>2021-03-28T12:31:46Z</time>
      </trkpt>
      <trkpt lat="48.77883" lon="2.09355">
        <ele>132.39999389648</ele>
        <time>2021-03-28T12:31:48Z</time>
      </trkpt>
      <trkpt lat="48.77888" lon="2.09378">
        <ele>132.60000610352</ele>
        <time>2021-03-28T12:32:03Z</time>
      </trkpt>
      <trkpt lat="48.77886" lon="2.09402">
        <ele>132.19999694824</ele>
        <time>2021-03-28T12:32:19Z</time>
      </trkpt>
      <trkpt lat="48.77885" lon="2.0942">
        <ele>132</ele>
        <time>2021-03-28T12:32:32Z</time>
      </trkpt>
      <trkpt lat="48.77885" lon="2.09428">
        <ele>131.39999389648</ele>
        <time>2021-03-28T12:32:36Z</time>
      </trkpt>
      <trkpt lat="48.77883" lon="2.09432">
        <ele>131.19999694824</ele>
        <time>2021-03-28T12:32:38Z</time>
      </trkpt>
      <trkpt lat="48.77885" lon="2.09443">
        <ele>130.60000610352</ele>
        <time>2021-03-28T12:32:44Z</time>
      </trkpt>
      <trkpt lat="48.77887" lon="2.09447">
        <ele>130.19999694824</ele>
        <time>2021-03-28T12:32:47Z</time>
      </trkpt>
      <trkpt lat="48.77894" lon="2.09453">
        <ele>129.39999389648</ele>
        <time>2021-03-28T12:32:53Z</time>
      </trkpt>
      <trkpt lat="48.77894" lon="2.09455">
        <ele>129</ele>
        <time>2021-03-28T12:32:55Z</time>
      </trkpt>
      <trkpt lat="48.77895" lon="2.09461">
        <ele>128.80000305176</ele>
        <time>2021-03-28T12:33:00Z</time>
      </trkpt>
      <trkpt lat="48.77897" lon="2.09471">
        <ele>128</ele>
        <time>2021-03-28T12:33:08Z</time>
      </trkpt>
      <trkpt lat="48.77897" lon="2.09472">
        <ele>128</ele>
        <time>2021-03-28T12:33:09Z</time>
      </trkpt>
      <trkpt lat="48.77899" lon="2.09483">
        <ele>127</ele>
        <time>2021-03-28T12:33:18Z</time>
      </trkpt>
      <trkpt lat="48.77899" lon="2.09485">
        <ele>126.59999847412</ele>
        <time>2021-03-28T12:33:20Z</time>
      </trkpt>
      <trkpt lat="48.779" lon="2.09498">
        <ele>126</ele>
        <time>2021-03-28T12:33:29Z</time>
      </trkpt>
      <trkpt lat="48.779" lon="2.09499">
        <ele>125.80000305176</ele>
        <time>2021-03-28T12:33:30Z</time>
      </trkpt>
      <trkpt lat="48.77902" lon="2.09507">
        <ele>125.19999694824</ele>
        <time>2021-03-28T12:33:40Z</time>
      </trkpt>
      <trkpt lat="48.77905" lon="2.09511">
        <ele>124.80000305176</ele>
        <time>2021-03-28T12:33:46Z</time>
      </trkpt>
      <trkpt lat="48.77909" lon="2.09516">
        <ele>124.19999694824</ele>
        <time>2021-03-28T12:33:52Z</time>
      </trkpt>
      <trkpt lat="48.77916" lon="2.09525">
        <ele>123.80000305176</ele>
        <time>2021-03-28T12:34:03Z</time>
      </trkpt>
      <trkpt lat="48.77916" lon="2.09525">
        <ele>123.59999847412</ele>
        <time>2021-03-28T12:34:04Z</time>
      </trkpt>
      <trkpt lat="48.77933" lon="2.09536">
        <ele>123.19999694824</ele>
        <time>2021-03-28T12:34:13Z</time>
      </trkpt>
      <trkpt lat="48.77934" lon="2.09537">
        <ele>123</ele>
        <time>2021-03-28T12:34:14Z</time>
      </trkpt>
      <trkpt lat="48.77943" lon="2.09548">
        <ele>122.59999847412</ele>
        <time>2021-03-28T12:34:25Z</time>
      </trkpt>
      <trkpt lat="48.77943" lon="2.09549">
        <ele>122.59999847412</ele>
        <time>2021-03-28T12:34:26Z</time>
      </trkpt>
    </trkseg>
  </trk>
</gpx>